GFSCGP_prec_cthk_000.txt.gz
RH
21 34 39 28 24 26 29 24 23 32 23 19 19 24 26 25 26 26 26 27 30 37 38 47 54 58 54 54 55 54 58 72 80 75 63 66 67 74 73 71 68 71 72 69
19 30 31 26 15 19 26 23 26 25 20 16 30 30 28 27 29 29 28 29 33 37 40 43 48 51 55 52 54 60 64 66 67 70 69 70 73 70 68 69 70 71 72 81
29 25 14 14 20 18 24 21 29 27 24 18 25 38 33 35 33 33 31 32 36 38 41 45 50 54 55 54 57 60 62 66 70 71 73 72 68 65 64 70 81 76 76 78
23 20 19 22 23 20 28 25 23 20 22 34 31 35 45 44 43 42 38 34 37 40 41 43 46 48 48 53 60 65 66 68 71 74 71 68 66 69 75 72 64 59 59 59
31 26 28 28 27 22 28 26 22 22 24 25 33 35 46 49 50 49 45 42 40 44 48 51 53 54 56 59 62 66 68 70 67 65 66 67 69 69 64 60 55 56 56 58
24 21 23 24 23 21 23 26 26 27 29 42 33 42 58 53 54 58 51 49 44 47 49 53 56 58 60 63 69 72 69 64 62 63 64 63 60 56 58 59 60 58 60 58
29 28 26 24 32 31 28 34 44 58 61 51 46 42 52 46 52 55 53 49 48 51 56 60 63 66 65 65 66 65 64 64 65 65 62 60 61 62 64 65 64 64 60 63
45 52 33 30 31 33 33 34 49 52 58 53 43 34 55 47 50 48 43 47 52 55 56 59 60 60 62 62 59 59 58 58 60 62 63 65 66 66 67 69 72 68 63 64
39 40 29 26 25 28 35 37 25 37 45 42 28 53 58 54 56 53 53 50 56 61 62 60 70 72 63 63 61 57 57 60 65 66 64 61 61 65 71 71 69 71 72 69
28 39 27 26 35 36 30 28 40 49 56 49 44 46 66 62 67 65 55 55 56 64 71 74 75 68 65 65 62 63 64 62 65 68 63 65 72 73 70 70 67 68 57 48
27 36 31 34 32 34 39 45 35 33 41 49 51 44 49 55 55 53 56 60 62 59 64 71 72 65 64 64 63 66 64 66 66 65 67 74 74 70 69 65 53 45 38 29
25 28 39 31 29 27 30 35 34 47 47 54 55 43 47 53 58 67 66 69 67 63 62 61 63 65 65 70 70 68 67 68 68 69 70 70 70 68 61 50 44 37 30 32
27 34 42 40 44 39 34 39 36 43 47 47 66 57 59 67 73 70 71 71 65 61 61 61 61 63 63 63 63 61 61 62 62 64 65 61 61 55 53 47 44 39 38 44
29 28 30 37 33 31 32 32 38 41 57 54 58 54 57 67 71 69 65 63 59 60 61 62 66 62 61 59 55 56 59 58 59 60 63 54 57 49 44 44 41 43 46 45
28 32 31 30 29 29 31 33 36 42 45 54 51 55 60 64 62 61 59 60 64 62 66 67 66 62 59 54 51 51 51 53 55 62 71 55 50 47 45 45 47 47 47 47
30 40 38 37 31 30 31 33 36 38 43 48 53 55 65 65 58 62 61 65 66 67 67 66 62 58 59 53 48 44 44 48 58 56 54 50 70 84 77 79 69 54 54 56
38 41 40 44 37 38 52 43 41 45 48 53 60 60 63 63 66 68 64 64 66 69 65 61 59 59 53 46 41 42 40 36 41 45 54 59 77 87 86 77 60 64 61 65
42 44 48 51 48 54 41 39 44 46 50 55 61 68 74 72 70 68 69 71 73 69 62 60 53 49 50 46 44 38 32 27 30 44 59 66 68 70 78 61 70 71 75 78
38 44 51 57 48 37 37 43 46 51 53 57 64 69 73 75 70 71 73 75 69 64 59 52 46 49 46 45 42 37 31 35 39 44 45 73 77 92 76 73 74 81 84 54
42 48 52 57 61 52 42 51 53 55 60 70 73 74 75 71 72 72 71 67 63 56 48 47 50 50 47 42 39 34 35 36 40 41 50 75 84 95 89 75 78 85 57 53
49 51 54 58 60 52 44 50 55 65 72 77 81 83 79 77 76 73 71 66 52 49 53 54 48 45 41 39 37 38 36 37 48 51 49 71 93 96 79 74 83 58 50 54
47 57 59 59 62 62 53 59 67 73 81 82 84 81 78 76 74 70 63 53 52 57 54 49 46 43 38 37 42 43 40 37 43 52 59 67 75 76 76 82 75 48 51 54
48 46 52 54 52 54 62 63 68 76 82 85 88 82 76 74 71 63 54 55 61 58 50 46 45 41 38 45 50 47 45 43 48 51 63 68 72 78 84 83 47 48 51 53
38 38 51 52 45 50 59 70 75 80 85 89 87 81 78 76 67 60 58 61 55 50 45 45 41 37 39 38 41 46 46 49 53 61 70 77 81 83 82 56 48 48 51 52
42 42 42 46 46 56 68 75 82 83 88 90 88 85 79 72 66 62 57 52 49 47 45 41 37 38 36 37 42 44 46 52 56 66 71 72 77 84 62 48 48 48 49 52
40 43 50 55 59 63 73 83 86 88 89 87 84 80 74 71 63 54 51 46 41 38 34 31 32 34 36 40 44 48 52 56 64 68 68 74 69 61 53 53 47 44 49 53

GFSCGP_prec_cthk_003.txt.gz
RH
30 32 32 30 31 36 34 29 33 32 27 25 22 32 34 32 31 29 30 32 34 37 39 42 44 47 52 61 61 61 59 59 66 70 75 69 73 72 72 71 67 62 60 63
30 32 38 38 29 24 32 29 33 26 24 21 23 34 30 31 33 33 32 35 35 37 40 44 48 53 57 64 69 71 62 62 65 67 70 70 75 74 70 67 62 64 64 64
27 28 20 22 26 20 28 31 30 26 22 18 24 38 37 36 39 44 42 42 39 39 39 41 46 51 54 56 58 63 62 60 63 69 72 75 72 64 61 62 66 63 60 56
25 26 23 21 21 21 26 26 24 21 21 27 30 46 43 40 40 41 45 44 46 44 43 42 46 45 45 47 49 53 60 65 67 68 70 66 61 61 63 65 60 58 56 57
29 26 25 25 26 22 26 24 21 21 24 28 31 45 53 54 60 53 52 51 54 54 45 41 41 44 47 51 53 56 58 60 65 65 60 58 61 59 53 52 53 56 57 57
26 23 22 22 21 22 23 27 29 32 31 41 38 49 65 62 58 54 57 58 60 48 46 46 47 49 53 56 59 60 60 59 55 52 50 49 48 48 48 48 47 49 52 56
30 31 24 25 29 30 28 33 50 51 63 57 43 51 69 61 59 58 59 61 54 53 52 52 54 55 55 56 56 55 55 54 52 51 51 52 52 52 51 50 54 55 58 63
42 55 31 27 32 32 30 33 49 56 70 55 43 56 60 57 60 64 65 58 61 60 57 57 62 65 68 65 65 59 57 56 55 56 54 52 54 59 63 56 72 69 67 64
45 44 30 20 21 31 35 30 26 42 45 46 47 55 61 62 63 64 66 64 66 60 55 61 62 64 70 69 66 61 58 60 60 59 60 65 68 68 69 76 82 69 64 60
37 38 26 31 34 32 29 26 38 43 48 48 50 61 69 66 65 62 60 61 57 62 65 67 62 62 62 62 60 60 60 62 65 64 68 69 74 75 75 75 62 61 55 54
33 35 32 32 34 34 35 38 32 31 44 53 59 52 53 59 56 58 57 64 64 64 67 65 62 57 58 60 60 60 62 62 61 64 63 59 59 56 55 56 49 49 46 45
27 34 40 31 30 26 26 31 34 48 52 60 61 48 46 54 57 62 68 67 64 66 66 60 57 57 58 57 57 56 54 53 49 43 43 42 45 56 58 57 51 43 47 41
28 31 44 41 39 31 30 33 36 44 47 49 61 56 59 61 60 68 70 66 67 63 58 57 60 56 56 55 57 54 52 48 41 42 44 46 46 60 76 74 60 63 72 70
29 28 30 43 32 30 28 28 33 43 59 53 56 49 48 59 66 65 66 66 64 62 62 63 64 61 58 56 55 51 41 39 39 35 38 42 40 52 71 64 69 82 94 82
27 36 32 29 26 28 27 28 30 35 41 52 47 51 60 64 66 74 74 70 65 69 65 61 58 56 57 55 52 42 37 35 32 27 28 35 50 58 65 80 78 97 86 68
28 39 34 33 34 33 30 31 31 33 37 41 46 56 60 61 63 69 66 68 70 69 63 59 57 57 54 51 43 42 39 35 30 28 25 26 35 49 64 67 98 85 70 70
35 39 42 46 39 41 46 34 35 36 40 45 52 58 61 62 65 70 72 70 70 67 62 59 57 52 46 42 45 43 38 34 29 25 23 30 41 46 54 67 90 93 89 76
38 40 44 47 43 45 38 32 32 38 45 48 56 62 63 67 71 73 70 72 70 67 62 56 49 44 44 47 44 38 34 29 28 22 21 28 35 39 48 67 93 94 87 76
34 40 45 50 50 36 34 35 35 40 49 54 61 66 69 72 76 76 77 75 68 61 50 46 46 47 48 42 37 35 31 31 27 25 25 31 44 46 54 76 91 89 79 64
43 44 46 52 53 50 41 40 40 43 54 58 60 68 73 73 80 77 70 66 62 54 49 49 50 49 44 40 40 34 34 29 30 31 34 40 44 55 64 78 80 74 71 56
49 49 50 55 52 45 35 39 38 55 52 61 65 71 73 76 75 73 72 65 59 52 53 56 52 48 44 43 37 35 30 33 33 34 39 44 51 61 64 67 74 79 69 46
44 51 52 54 57 54 37 41 47 48 56 62 68 71 75 77 74 75 68 62 56 58 58 54 50 47 42 38 37 30 32 32 33 37 43 49 59 69 72 80 87 84 55 44
45 42 49 47 46 38 45 48 50 51 61 69 75 75 76 78 79 75 67 61 61 59 56 50 45 42 39 38 32 33 33 33 38 43 46 54 64 71 77 86 89 70 49 45
37 41 48 50 47 49 54 51 53 60 66 71 75 79 80 80 76 70 66 60 57 53 46 46 41 34 31 27 29 32 34 38 43 47 51 57 64 70 76 78 66 54 49 44
34 38 40 44 46 50 52 53 61 67 72 81 83 84 88 80 75 68 60 58 51 47 42 32 27 24 22 24 27 34 39 41 47 56 57 60 64 64 57 56 58 56 51 45
39 43 50 48 49 52 56 64 69 74 79 80 84 84 80 72 65 59 57 49 46 36 29 26 23 22 24 28 29 32 38 47 55 64 61 62 63 56 53 56 59 56 49 43

GFSCGP_prec_cthk_006.txt.gz
RH
25 32 32 31 33 36 37 34 31 35 36 34 36 33 34 36 36 36 36 35 37 40 44 48 51 53 58 68 74 71 79 82 71 66 71 75 74 75 75 75 77 73 69 66
33 33 34 33 31 36 40 36 38 36 31 31 36 37 40 41 40 39 41 42 46 53 52 55 59 66 75 70 68 70 67 65 68 74 75 74 73 73 76 79 75 71 65 61
31 32 31 34 37 34 38 38 36 34 29 27 33 40 44 46 43 41 43 48 54 58 58 60 61 60 60 62 64 61 63 65 67 70 72 72 73 74 73 67 65 62 57 53
30 28 27 23 24 26 28 36 36 32 26 29 34 51 49 47 46 45 51 54 57 58 58 57 54 50 47 50 51 53 58 62 63 64 65 67 67 63 58 56 52 50 48 46
29 29 29 27 26 22 26 25 24 22 25 26 37 50 54 51 50 50 55 58 58 57 53 48 47 46 46 48 49 51 54 57 59 58 55 51 49 48 48 47 46 50 54 56
31 29 26 26 25 25 24 25 30 32 31 40 43 49 58 56 55 59 65 61 61 57 49 47 48 48 50 50 51 53 53 51 52 51 51 49 47 47 46 48 51 54 57 59
30 28 23 24 26 25 24 31 46 49 55 54 47 59 61 60 61 63 66 60 58 56 59 61 55 52 51 53 58 59 60 60 56 52 49 49 48 49 52 55 57 67 65 78
41 46 29 28 33 32 31 33 49 55 63 60 51 58 56 59 64 68 60 62 62 67 61 60 62 60 60 58 56 54 54 57 57 56 58 58 59 61 60 64 65 75 72 73
47 41 27 22 28 33 31 29 29 40 46 46 48 49 51 54 59 62 72 73 66 63 58 64 67 67 64 58 55 58 60 63 62 61 62 65 67 62 60 61 42 42 43 49
40 33 27 30 29 26 23 25 34 37 40 48 50 52 58 58 60 60 59 56 57 61 68 70 70 67 58 60 62 63 62 61 61 62 60 57 50 43 39 36 39 52 56 61
36 30 35 35 35 31 30 30 31 33 41 48 58 51 46 51 51 52 50 54 62 72 75 73 71 67 63 64 63 60 61 59 58 57 48 36 36 39 42 44 45 53 62 84
34 34 41 31 28 25 25 30 32 42 42 52 56 50 46 49 53 59 61 63 67 79 77 72 70 67 67 64 62 63 60 56 51 41 36 36 38 40 44 46 49 56 63 71
29 34 42 41 38 29 29 29 33 36 41 42 52 44 46 53 57 61 63 66 69 74 76 73 67 67 62 56 55 55 55 50 39 32 31 29 28 28 32 43 42 51 66 80
30 32 31 40 31 28 26 26 32 36 49 46 48 40 49 54 55 59 60 65 67 75 76 70 66 63 60 59 56 53 46 37 36 33 31 29 26 23 26 38 48 70 72 73
30 31 30 28 29 29 28 27 29 32 36 42 39 43 51 54 57 59 61 66 70 74 74 71 67 64 62 57 51 41 38 39 37 34 30 27 21 20 26 36 41 47 59 62
30 35 31 27 33 35 29 28 29 29 30 35 43 50 51 55 61 66 70 72 73 72 72 69 67 63 57 48 43 42 41 38 35 31 30 26 22 21 24 27 34 48 59 67
32 36 34 38 42 38 36 30 30 31 35 35 42 48 54 59 63 66 69 71 73 75 73 71 66 58 50 45 45 45 40 36 34 33 28 23 21 23 28 33 46 56 72 82
39 39 40 39 38 37 35 29 30 38 40 40 46 51 56 61 65 71 74 74 75 74 70 65 59 52 48 47 46 45 38 36 32 28 24 24 24 26 32 44 55 76 86 83
33 39 47 41 47 31 30 32 34 34 45 46 51 56 58 60 65 70 74 72 71 69 66 62 53 49 49 49 48 40 38 33 32 27 26 26 29 31 38 52 59 64 69 73
42 40 40 51 38 36 32 34 34 34 43 46 46 52 55 61 71 72 71 72 72 69 66 56 51 50 50 48 44 40 38 37 33 29 27 29 32 41 47 59 66 71 76 84
48 47 47 52 49 40 31 36 39 48 38 43 47 51 56 62 66 66 68 72 71 69 61 52 50 52 53 48 42 41 39 34 30 27 32 36 38 45 54 62 70 76 88 92
41 47 51 54 54 48 31 38 41 36 40 46 52 55 60 66 67 68 73 73 69 63 53 52 54 54 48 43 40 33 31 29 28 31 35 38 43 51 60 68 79 84 87 77
40 36 43 41 40 32 35 37 39 43 46 52 58 63 67 67 73 75 73 70 67 55 54 57 53 43 38 33 29 28 29 29 31 32 39 46 50 55 63 72 75 64 61 60
37 38 43 44 37 41 43 45 52 54 56 62 65 64 69 73 76 75 71 71 60 57 56 46 39 32 29 27 27 29 28 30 31 37 50 55 55 55 58 61 58 51 57 59
37 42 42 45 46 51 51 52 53 58 63 66 68 75 76 76 76 74 73 65 57 52 43 36 32 30 28 26 23 23 25 29 35 49 60 63 62 59 56 56 55 54 55 55
40 44 49 47 47 47 47 52 58 62 64 67 72 75 80 79 78 74 67 56 51 42 34 33 32 30 27 24 22 25 30 35 45 53 65 71 72 68 58 53 52 53 53 52

GFSCGP_prec_cthk_009.txt.gz
RH
27 32 30 29 26 28 28 29 30 35 35 35 34 36 37 33 37 39 37 38 40 43 47 48 52 57 62 65 70 74 76 74 78 71 72 75 78 75 78 75 78 77 73 70
27 30 27 31 39 37 36 31 30 31 36 34 37 40 42 39 42 42 41 48 49 54 55 59 61 68 70 68 67 75 71 70 71 68 70 74 80 78 76 75 77 72 64 58
28 28 33 40 40 41 42 39 37 38 38 36 34 43 45 45 48 48 49 55 58 61 64 68 67 67 67 69 64 60 60 66 67 70 70 66 66 68 69 68 63 57 52 50
34 30 30 32 32 36 43 40 37 39 40 44 35 54 48 50 55 56 55 59 63 63 64 59 60 55 54 53 52 53 54 56 58 60 61 63 64 64 60 55 52 52 54 52
34 33 32 29 26 26 32 33 36 38 39 38 38 46 47 53 56 57 58 64 63 68 63 58 52 54 54 56 55 56 58 60 62 59 59 59 57 54 52 52 52 52 52 51
30 28 29 28 26 26 27 31 35 37 36 44 39 45 51 52 55 62 64 64 65 69 60 56 59 64 62 55 53 58 63 64 65 62 57 55 54 52 51 53 54 54 55 56
31 29 28 27 28 27 27 32 44 45 49 50 42 50 51 49 54 60 64 65 68 62 66 68 65 58 58 59 60 57 57 54 51 52 53 52 53 57 59 59 57 58 56 49
36 36 27 28 29 28 29 33 44 46 56 45 44 53 52 52 54 56 56 56 60 65 75 65 56 60 64 65 63 56 52 52 56 57 56 56 56 61 59 58 54 49 40 37
41 39 26 30 32 30 29 30 33 45 52 52 50 45 46 47 50 52 53 56 64 71 58 53 61 68 66 66 60 57 56 56 57 57 59 55 53 51 45 42 37 36 36 40
45 40 29 28 30 32 27 28 33 37 39 46 45 44 46 44 48 50 54 57 54 53 57 62 70 76 72 69 65 63 64 64 62 57 51 47 43 40 35 34 33 35 40 46
44 36 33 33 34 31 31 28 30 34 41 45 53 46 37 41 43 47 49 46 50 57 63 66 72 76 77 79 74 69 66 64 60 54 44 36 31 30 30 27 26 31 39 47
40 41 43 34 30 27 26 27 28 36 38 49 50 40 34 38 42 44 49 52 58 62 67 71 78 79 84 78 71 70 67 63 57 45 40 36 34 29 24 21 23 33 43 48
33 37 45 41 34 28 27 28 31 32 38 43 46 37 36 40 44 49 51 56 59 64 68 72 76 75 76 73 72 69 65 55 48 44 39 35 30 26 21 18 20 26 28 32
33 36 31 39 32 29 26 27 31 31 42 39 41 34 41 42 46 51 55 56 60 65 69 71 70 71 69 74 72 64 56 53 46 40 37 33 27 23 21 21 22 26 30 40
30 32 33 31 31 27 27 27 31 33 33 37 32 35 38 44 48 51 54 58 63 67 69 69 70 72 78 72 66 61 54 47 44 39 36 31 28 23 23 23 23 27 37 46
32 38 34 32 33 33 28 28 29 29 29 32 34 38 38 44 50 55 58 62 66 69 71 74 79 77 68 65 60 54 50 48 44 38 34 32 28 25 25 24 26 32 43 51
34 40 31 30 39 35 29 26 28 26 29 31 40 35 41 50 54 56 60 63 66 69 73 70 67 65 66 62 57 52 50 47 41 38 36 33 29 28 27 26 28 38 46 57
40 41 38 39 37 32 23 26 28 28 32 34 36 38 43 49 54 57 59 63 68 71 68 65 66 67 63 57 52 50 49 45 41 39 37 32 28 29 30 31 37 45 52 60
36 38 46 42 44 30 24 29 32 31 33 36 36 42 45 48 54 56 61 61 62 62 62 63 66 62 54 51 51 50 48 44 41 36 32 30 31 30 32 36 42 51 59 64
39 38 39 52 38 33 23 28 29 32 39 36 38 42 42 49 59 55 58 61 64 66 65 66 62 54 52 53 50 50 43 39 34 30 29 33 32 31 35 42 47 55 64 72
51 49 44 54 46 36 25 31 32 42 33 35 37 40 45 52 57 58 62 66 69 68 67 64 56 54 54 50 48 39 34 31 31 31 32 35 33 35 40 47 55 64 72 76
44 47 50 52 53 39 26 34 37 33 32 37 43 46 49 58 63 66 67 70 71 69 69 63 58 55 51 45 35 31 30 31 31 31 32 35 40 43 46 50 58 66 63 62
47 39 43 41 38 29 30 31 32 36 40 44 49 52 59 66 69 71 75 73 71 73 73 64 55 51 43 33 32 32 30 28 27 29 32 40 49 53 51 52 55 57 55 56
44 44 45 43 35 36 38 38 40 46 50 52 53 60 67 69 76 76 77 76 78 77 67 56 51 41 35 35 34 33 30 26 27 31 36 47 56 60 60 59 59 55 54 56
43 45 45 46 42 42 41 43 48 52 55 59 62 67 68 74 75 76 78 81 79 68 57 52 43 38 36 35 33 30 26 26 30 36 43 52 62 66 68 70 66 59 55 52
45 47 51 48 44 47 47 50 52 55 59 63 64 68 73 79 84 84 84 80 70 58 53 44 41 39 36 34 28 27 27 30 35 40 47 57 66 70 75 76 67 58 54 53

GFSCGP_prec_cthk_012.txt.gz
RH
40 38 38 35 30 26 25 30 36 32 25 35 41 42 42 38 36 40 41 44 46 48 52 55 54 60 60 66 70 73 84 86 79 75 74 75 75 80 78 73 71 71 72 69
35 36 35 35 31 30 29 32 34 34 34 36 44 43 40 39 36 37 38 43 50 51 53 54 60 65 71 71 73 80 72 70 72 73 73 70 64 63 61 62 62 60 54 48
26 30 31 33 31 34 37 32 34 37 39 41 42 43 41 41 41 43 44 48 53 56 62 67 71 74 71 67 62 57 58 60 61 61 58 59 60 59 59 57 55 49 46 47
31 33 35 34 39 41 40 40 36 42 43 50 42 56 45 46 47 48 50 53 55 56 57 62 63 58 53 50 51 57 58 54 56 58 61 64 64 61 56 52 49 49 51 55
28 31 33 39 35 32 37 39 38 40 43 45 45 52 45 50 52 54 56 57 57 58 60 61 60 57 57 58 60 55 53 55 58 60 58 57 53 52 53 54 54 56 56 56
31 33 32 31 30 27 27 33 40 43 43 47 38 42 45 49 46 53 57 59 61 61 56 59 61 66 70 62 57 59 61 60 53 52 52 54 56 58 58 57 56 57 53 49
34 33 30 29 29 28 29 33 45 46 53 50 39 42 37 40 47 54 58 60 62 58 55 60 68 68 63 63 62 63 65 60 56 56 59 60 61 60 58 57 55 52 43 34
40 38 29 27 29 29 29 34 45 45 53 43 40 46 41 41 45 51 55 56 56 57 59 66 74 58 58 63 67 70 68 66 63 60 59 57 53 51 48 44 37 32 30 30
37 34 26 29 29 32 31 34 35 47 50 51 49 41 42 44 43 45 46 50 53 56 60 59 55 58 61 63 66 71 71 70 66 58 55 52 50 45 39 34 30 27 24 24
37 38 31 31 36 33 33 32 35 40 37 43 42 40 41 38 39 41 44 47 52 53 52 55 56 57 59 61 67 66 78 74 69 65 61 55 47 42 36 30 26 22 19 24
44 43 36 32 33 36 33 31 31 33 40 43 50 41 32 35 37 41 44 46 50 53 54 57 59 61 65 68 74 84 73 71 71 65 57 50 45 41 33 27 23 20 20 30
47 48 50 34 34 33 30 29 28 35 30 46 47 35 29 33 36 38 42 47 51 54 57 59 63 68 72 78 78 72 75 77 67 58 52 49 44 36 31 26 22 20 20 28
42 45 52 40 35 31 27 30 30 30 36 40 46 32 29 30 33 38 43 47 53 56 59 63 68 71 72 71 69 77 79 68 60 57 54 48 40 35 30 25 22 20 22 29
36 39 36 39 31 31 28 29 28 29 40 37 38 26 31 33 36 40 45 50 54 60 61 65 68 69 68 67 80 72 62 59 61 59 52 45 40 35 29 24 22 24 27 31
33 36 36 35 33 30 26 25 30 30 29 33 28 29 27 32 36 40 46 51 56 61 64 67 68 67 71 80 71 63 62 62 59 52 49 43 39 32 26 25 27 27 29 31
34 37 35 36 36 34 29 27 27 29 28 32 31 30 28 31 36 42 45 51 56 62 66 66 68 75 77 63 60 63 62 57 53 51 46 42 34 29 27 28 29 30 33 38
31 39 32 30 38 33 28 23 25 25 25 26 31 25 30 33 35 40 45 50 57 64 66 68 68 66 61 62 64 61 56 54 51 49 42 36 33 30 29 29 30 32 38 44
36 37 37 40 36 31 20 23 24 25 26 27 28 29 32 33 37 42 46 51 59 64 67 66 65 66 67 62 59 56 56 52 51 43 38 35 32 33 30 28 30 34 41 50
37 36 42 40 43 29 22 27 30 31 27 29 30 33 34 37 41 40 44 51 59 65 66 66 68 67 61 59 58 58 54 52 42 38 34 34 34 32 30 30 34 39 46 55
42 38 37 47 37 33 25 26 29 29 37 28 30 36 37 38 46 38 46 53 62 66 66 67 70 66 64 60 58 55 52 43 37 35 36 33 33 34 33 36 41 48 53 62
53 50 43 54 44 35 25 28 30 39 31 29 31 33 37 41 40 44 50 59 67 69 71 71 72 72 69 62 56 53 43 37 36 34 30 30 33 34 39 43 47 52 56 59
47 50 52 52 52 36 26 32 36 31 29 30 33 38 41 45 50 52 60 64 71 74 72 75 79 78 66 57 53 44 39 37 34 30 28 28 30 36 45 50 52 51 55 54
47 43 46 44 42 34 35 36 36 36 38 37 40 44 51 56 59 64 66 69 72 73 78 83 84 70 59 57 46 41 39 36 32 28 27 28 33 41 51 53 56 59 61 58
43 42 43 42 36 37 37 37 38 42 43 45 51 58 60 63 69 73 77 77 79 84 86 89 69 63 58 49 43 40 39 33 29 27 28 32 38 46 54 60 64 68 64 61
43 44 44 45 40 40 40 40 42 44 48 54 57 62 65 68 72 81 85 85 86 90 85 71 67 60 50 45 42 41 35 29 26 27 31 38 44 50 58 64 71 75 70 61
42 47 50 48 42 44 44 47 49 52 54 57 60 64 69 75 81 88 91 88 94 79 72 70 62 50 47 43 42 36 31 28 29 31 36 44 50 56 63 71 78 79 64 57

GFSCGP_prec_cthk_015.txt.gz
RH
45 39 36 34 31 28 24 24 29 30 32 38 41 39 42 41 39 42 44 45 48 49 51 53 56 57 58 62 69 72 80 83 80 72 75 73 70 69 64 62 58 55 55 56
40 39 38 36 33 31 29 30 39 37 36 34 39 43 42 37 37 38 42 45 48 51 52 53 57 62 65 75 84 75 70 67 64 63 64 59 56 53 53 54 55 54 52 50
41 38 38 37 37 38 38 39 39 40 42 39 37 40 41 37 37 37 39 41 44 48 52 58 65 67 64 62 60 56 53 56 60 56 52 53 55 54 53 51 50 51 53 53
33 31 38 38 40 40 37 39 38 44 45 47 40 36 44 42 40 42 44 48 54 58 60 60 60 58 62 55 54 56 57 55 55 55 54 51 51 52 53 55 58 59 58 56
39 35 33 38 40 38 38 42 41 38 37 38 40 38 39 44 45 46 47 51 56 57 56 54 55 54 53 56 62 60 63 60 58 57 56 56 57 59 60 62 63 62 59 55
36 31 34 33 36 39 40 37 41 42 39 39 38 38 36 44 41 46 50 54 56 53 57 58 54 55 59 69 57 50 54 58 64 66 69 66 66 64 60 61 59 53 47 39
31 33 35 33 37 34 31 33 39 41 45 39 39 39 29 31 37 45 49 52 55 57 56 56 55 62 59 53 52 55 60 64 66 68 72 68 61 57 54 51 43 40 35 29
36 33 30 30 31 29 30 30 39 43 45 38 37 40 31 35 39 48 51 53 51 49 52 56 57 61 52 53 55 58 61 65 65 64 65 63 60 59 54 46 42 37 30 25
38 36 31 29 30 30 31 31 33 41 44 42 39 36 34 38 40 44 45 45 48 50 52 56 57 53 54 55 58 62 62 65 66 68 64 63 62 53 49 47 40 32 26 22
31 34 31 30 33 34 33 31 36 39 41 38 32 35 28 32 32 35 39 41 44 48 54 55 53 54 55 59 61 66 66 72 71 68 69 61 53 53 50 43 36 28 23 21
31 37 40 36 33 36 35 35 34 32 36 31 33 24 26 27 28 30 34 39 43 48 51 54 57 57 60 64 68 69 73 81 73 68 61 57 56 50 47 37 29 26 24 22
34 46 49 40 33 33 35 32 28 31 30 37 37 25 23 25 27 31 35 40 44 49 53 57 60 64 66 69 71 75 80 70 69 66 64 57 54 49 41 34 29 27 25 24
36 50 53 43 36 34 33 32 30 30 33 36 43 23 24 26 28 31 35 39 44 49 53 60 64 68 70 72 75 74 73 74 66 60 53 54 51 44 39 33 29 28 27 26
37 44 43 40 34 32 32 32 29 27 32 31 32 24 22 26 27 30 34 38 43 48 54 61 68 71 72 75 70 80 70 66 59 54 55 52 48 44 39 33 30 29 28 28
34 37 39 38 36 32 28 30 31 27 26 29 24 25 22 23 26 30 35 39 43 48 53 60 67 71 68 73 81 61 62 59 55 55 54 52 49 43 38 34 30 28 29 31
35 37 37 41 37 34 30 27 26 28 28 26 27 25 22 25 28 32 34 39 43 48 54 60 64 65 80 66 56 60 62 59 56 57 55 52 46 43 37 33 29 27 30 32
36 39 33 32 36 32 30 24 24 24 25 25 29 20 24 26 29 30 34 39 44 48 54 60 61 67 64 61 62 65 63 57 59 58 57 48 44 39 35 32 30 29 29 33
35 34 32 36 35 34 21 23 24 24 24 24 24 24 27 29 31 31 35 39 41 47 53 58 61 64 65 65 67 64 60 61 61 60 48 43 38 36 33 32 31 30 32 35
36 36 40 40 34 26 19 22 27 30 25 25 26 28 32 35 35 34 34 37 43 51 58 63 65 67 66 70 66 65 64 61 60 48 41 38 36 33 33 32 32 34 37 43
43 41 39 44 36 35 23 22 28 29 33 24 27 31 36 38 40 33 35 41 48 56 62 67 71 70 74 73 72 71 63 60 50 44 40 36 31 30 29 30 34 38 42 47
51 48 42 47 43 34 26 29 31 35 29 27 29 31 36 37 38 38 41 47 57 66 68 70 83 83 79 80 78 65 61 53 45 42 37 32 29 28 28 31 38 42 45 47
41 45 47 48 47 41 30 36 39 35 34 34 36 37 39 41 45 50 54 62 68 68 74 80 78 77 83 76 68 65 57 47 44 39 33 28 27 27 30 35 43 46 50 55
41 39 42 40 38 32 34 36 36 37 38 39 42 45 48 52 58 63 66 69 71 79 79 81 82 87 74 70 68 58 48 46 41 34 31 28 29 30 34 40 47 51 56 60
40 41 41 41 36 38 37 37 38 39 42 45 48 50 54 60 66 71 73 74 78 81 81 85 89 75 71 68 60 51 49 44 35 32 29 30 31 31 37 44 52 58 62 69
41 42 43 44 41 40 40 41 44 47 48 49 54 58 62 66 70 73 73 77 82 86 94 90 76 75 69 62 56 52 46 37 34 32 33 35 34 36 40 49 57 64 72 74
42 44 48 48 43 48 49 53 58 62 66 67 66 67 68 69 70 76 84 87 89 98 91 79 77 70 62 60 54 47 39 36 35 35 37 36 36 41 46 53 62 69 75 71

GFSCGP_prec_cthk_018.txt.gz
RH
45 40 37 37 34 32 28 30 29 25 23 24 31 39 40 43 47 47 46 45 47 49 50 50 51 57 59 60 64 70 77 86 78 75 70 65 62 61 57 53 51 50 50 50
43 44 37 38 35 30 26 28 38 38 37 36 36 38 41 39 40 42 44 44 46 49 50 51 55 58 63 69 73 79 82 74 69 65 62 57 54 53 49 48 49 52 53 55
46 43 42 39 36 35 35 36 40 40 36 35 35 36 34 35 33 36 39 41 43 45 48 51 57 64 69 72 72 69 65 63 59 56 56 55 54 49 52 54 57 58 60 61
45 40 40 40 38 38 38 37 37 41 40 40 39 35 33 36 37 31 34 36 40 45 54 59 63 58 58 60 59 55 59 58 52 50 53 50 55 58 61 69 70 70 66 62
39 34 35 39 38 38 41 36 35 32 37 36 35 32 43 37 36 39 38 41 45 53 60 57 52 56 57 54 51 53 53 51 48 49 54 59 63 68 70 71 70 68 62 54
41 41 37 34 35 38 39 34 37 42 41 38 34 31 34 35 33 36 41 43 49 55 54 51 54 57 56 56 52 49 50 51 54 59 61 64 64 66 66 63 59 55 51 51
41 39 37 32 36 36 36 39 39 40 40 37 34 30 24 28 29 33 39 45 49 51 51 54 56 58 57 56 54 52 55 56 59 61 61 62 62 63 64 58 49 49 48 43
39 38 33 33 36 35 37 36 34 35 37 31 33 27 27 28 29 36 43 46 48 50 52 53 54 58 59 58 54 57 59 60 60 59 63 68 72 64 62 55 50 48 41 36
32 33 31 31 31 31 33 31 31 34 37 35 25 28 27 29 32 37 42 44 46 47 49 51 55 57 59 57 57 59 59 63 61 63 77 89 69 58 57 51 51 43 36 33
33 36 31 31 30 30 29 29 32 31 38 34 25 23 23 26 28 32 37 38 41 44 48 53 56 58 57 57 60 62 63 65 67 79 87 74 56 56 55 50 43 39 36 35
25 28 33 32 30 31 33 31 30 31 34 26 22 18 19 21 24 27 30 35 40 43 46 51 53 55 57 62 63 64 65 70 76 75 59 56 57 56 50 43 42 39 38 35
27 32 39 40 36 30 32 33 30 28 28 31 34 18 17 19 22 25 29 33 39 44 46 51 52 55 60 63 64 69 69 72 73 74 59 52 53 49 46 46 43 41 39 35
29 32 40 42 40 35 31 31 29 27 28 30 37 18 18 19 20 23 29 33 38 41 44 48 51 54 60 63 67 68 69 75 84 62 49 52 52 48 49 48 45 42 38 36
31 33 40 46 38 34 34 31 28 26 27 23 23 17 19 19 20 21 25 30 35 41 44 48 51 55 59 64 64 66 73 79 64 51 53 54 51 51 51 48 44 42 36 33
33 35 38 40 37 33 29 27 27 25 24 26 17 19 16 19 20 21 25 29 34 39 43 48 51 54 59 62 62 69 73 61 53 55 56 54 54 54 49 48 44 38 33 34
36 37 36 38 35 34 31 26 24 25 23 23 20 19 20 20 21 22 24 28 33 37 42 47 51 54 58 60 62 76 63 58 58 58 58 58 58 52 50 46 41 37 39 36
38 37 35 32 34 34 37 26 23 22 23 23 25 21 23 23 24 25 28 29 33 38 41 44 49 55 60 64 67 63 64 61 61 60 60 62 56 51 47 44 40 42 36 36
38 35 35 36 34 49 21 21 21 22 22 22 23 24 27 27 29 30 30 33 34 36 40 45 52 58 64 63 70 68 65 68 67 64 65 59 53 48 43 40 40 39 37 40
35 34 41 48 34 25 18 20 21 25 21 23 23 24 27 30 33 32 32 32 34 38 44 51 58 63 65 70 69 74 81 77 67 69 63 55 50 47 39 35 34 38 40 42
41 37 38 43 52 54 25 24 28 28 28 23 24 27 30 33 37 35 34 37 41 44 51 56 63 69 71 71 78 87 78 71 69 65 55 50 48 41 37 34 32 36 43 43
44 46 49 43 49 32 26 26 29 32 31 29 31 31 34 38 39 40 40 45 50 55 62 66 71 71 72 82 81 80 74 72 67 57 53 48 41 37 36 34 35 39 46 43
39 44 49 44 52 49 27 32 37 35 33 33 35 39 40 41 45 48 51 57 62 66 70 72 73 75 85 82 90 77 77 68 60 56 49 42 40 40 37 37 37 46 46 48
38 37 38 35 34 31 33 34 36 36 36 37 40 44 47 49 52 55 60 66 70 72 75 76 81 87 93 92 73 74 73 63 58 49 46 45 41 40 38 37 45 48 48 54
35 36 37 37 34 35 36 37 38 39 41 42 44 46 51 57 63 67 69 72 76 77 83 86 86 96 91 77 75 72 65 60 52 49 46 47 44 41 36 38 44 50 52 58
38 40 40 39 37 38 39 43 45 48 52 57 63 68 70 70 70 71 70 72 75 79 85 94 96 84 79 80 73 69 62 54 52 51 50 48 44 39 39 41 43 50 56 62
40 41 43 45 43 45 49 55 58 62 66 69 70 71 70 70 71 75 78 83 86 88 95 91 88 86 78 76 69 63 55 54 50 47 50 48 43 41 41 41 46 51 58 63

GFSCGP_prec_cthk_021.txt.gz
RH
49 51 47 43 43 39 35 33 24 28 27 30 28 31 27 35 46 50 52 54 57 54 55 53 56 59 65 69 72 71 70 74 85 87 79 73 64 64 63 55 52 49 47 50
51 49 48 42 40 35 31 30 35 29 18 28 28 36 34 39 46 48 47 51 55 53 54 55 60 62 65 69 72 71 76 79 83 79 70 64 63 60 57 49 47 51 55 58
51 51 39 42 39 37 36 32 43 37 29 26 39 44 34 34 38 40 44 50 53 53 54 57 58 63 69 72 76 77 77 71 71 68 63 61 54 50 53 55 57 59 65 67
51 48 44 42 43 41 41 34 41 37 38 36 31 35 46 34 29 34 34 41 45 49 54 55 61 66 68 68 66 63 60 60 57 57 55 53 57 62 60 62 64 66 65 64
50 45 43 44 48 34 56 38 36 35 33 47 40 31 48 53 37 31 34 35 38 42 48 54 62 62 59 61 62 60 55 51 48 50 50 53 55 61 64 66 66 65 63 57
51 40 38 45 34 34 32 36 34 35 33 40 31 43 42 54 44 38 34 36 42 46 49 53 55 54 57 59 59 52 50 50 49 49 51 55 58 62 62 68 71 68 58 51
50 45 41 37 36 31 34 42 44 43 47 43 42 37 32 34 45 43 36 36 43 45 46 47 48 49 54 55 54 53 51 52 50 53 54 56 58 64 71 88 72 63 50 48
47 48 33 31 39 46 38 43 48 41 41 35 39 31 27 31 24 24 37 39 43 43 43 44 45 48 51 55 55 53 54 52 52 56 55 56 70 78 83 71 60 44 45 41
43 49 45 34 32 31 42 35 37 43 38 34 22 25 34 27 22 27 38 39 43 42 42 44 46 48 51 55 56 55 54 52 53 56 61 66 71 73 60 48 43 40 36 34
43 47 39 32 29 28 28 37 34 29 39 38 28 30 25 31 21 25 35 36 39 41 41 42 45 48 50 53 56 56 53 53 58 65 66 67 69 69 67 59 42 39 38 38
37 35 45 35 29 34 38 28 27 35 44 40 30 27 30 16 21 22 27 35 34 37 40 42 45 46 48 52 55 54 54 59 63 69 67 67 66 65 61 46 43 42 42 49
29 30 38 35 37 29 31 39 41 36 36 32 34 23 20 15 17 22 24 30 32 36 40 43 44 46 49 51 53 55 57 63 66 71 69 64 67 60 52 50 51 49 54 52
28 26 36 40 32 30 29 27 30 33 34 28 38 25 22 18 17 19 22 27 31 35 38 43 43 46 49 52 53 55 60 62 68 69 65 68 61 56 52 55 54 57 57 51
28 29 33 41 53 48 39 31 31 31 31 26 25 22 22 21 21 20 22 24 31 33 37 43 45 46 51 55 56 58 61 65 69 69 66 64 61 56 58 60 60 61 56 52
34 34 36 36 42 42 34 32 30 29 25 30 22 24 20 22 22 21 24 24 26 33 36 40 45 48 52 56 57 59 61 66 70 69 66 62 58 64 66 63 63 60 57 52
35 38 36 37 34 35 34 29 26 25 23 25 22 23 22 23 23 23 23 26 27 32 36 41 45 49 52 54 54 57 65 69 73 66 62 67 65 70 70 65 62 58 54 54
40 42 39 33 34 33 36 29 26 24 23 24 26 24 26 29 27 26 27 31 30 33 36 40 43 47 50 51 52 59 71 72 75 68 73 74 74 77 65 62 58 53 53 53
40 41 40 38 40 51 20 22 21 22 22 23 26 24 26 28 28 29 29 30 33 32 36 39 45 48 54 58 59 70 73 75 75 72 81 78 74 66 61 59 55 51 53 54
36 38 41 51 33 27 24 21 23 23 23 26 27 25 26 30 27 28 37 36 36 39 40 43 49 54 61 65 70 71 76 77 77 85 80 72 67 63 61 56 54 52 50 47
39 40 39 40 53 57 31 27 24 25 27 28 25 27 27 29 35 37 42 41 39 39 44 49 56 65 70 71 74 74 77 91 88 81 79 77 68 64 60 58 51 53 53 53
44 48 49 45 50 36 27 25 25 28 36 34 30 31 33 34 38 41 41 41 45 50 57 61 68 72 73 73 78 82 82 86 85 84 76 73 66 64 57 53 51 54 53 52
38 43 49 45 55 49 26 28 31 39 32 33 34 35 39 42 44 46 46 50 57 64 70 72 72 68 70 82 87 92 92 84 82 79 72 69 63 59 58 53 52 56 55 55
41 37 41 34 39 38 30 31 33 34 33 35 38 39 43 45 49 55 63 64 67 70 68 68 70 75 83 92 95 91 87 81 77 76 67 66 61 60 58 56 47 49 49 48
36 35 35 34 32 34 36 34 36 38 40 41 44 49 55 61 67 70 71 66 66 64 67 73 81 89 93 92 87 85 82 83 73 68 67 63 63 57 53 52 51 45 47 48
39 39 39 39 34 37 39 46 44 44 49 55 60 65 67 68 69 70 70 67 70 72 80 86 89 93 92 92 87 87 81 73 66 63 63 61 59 57 51 50 44 40 43 49
41 41 43 44 44 42 43 49 50 56 60 62 65 67 65 66 68 72 75 76 84 85 89 92 93 91 90 89 84 79 71 65 64 63 57 54 53 51 51 51 47 42 42 49

GFSCGP_prec_cthk_024.txt.gz
RH
40 45 50 47 52 45 43 39 34 31 32 31 35 36 30 27 35 49 62 48 48 47 49 48 50 52 56 60 60 65 65 70 75 74 80 77 69 60 60 54 45 45 45 45
47 47 52 52 47 44 37 37 31 29 18 28 30 31 25 24 34 43 43 52 52 51 50 49 50 53 58 64 60 64 72 72 73 75 75 66 63 58 48 44 44 46 48 49
54 56 51 48 44 38 37 39 38 35 17 16 37 28 36 26 34 40 46 48 49 52 52 52 54 55 58 62 64 68 70 69 66 60 60 60 56 49 44 46 48 54 57 59
61 50 50 47 45 40 47 44 41 44 42 30 38 48 56 56 33 32 36 37 40 45 50 51 55 57 58 63 67 65 65 62 63 57 56 53 47 49 52 55 55 59 63 70
66 46 43 45 48 45 49 40 43 40 35 43 46 49 48 50 44 34 36 37 36 40 45 47 53 52 58 61 60 63 60 58 56 55 48 48 49 54 56 58 61 64 70 70
47 49 58 56 40 36 34 32 37 35 38 54 41 59 49 53 53 65 54 42 41 38 41 47 52 52 56 56 55 55 55 53 51 50 49 48 49 51 52 57 63 69 73 61
42 31 40 39 34 28 25 35 41 64 65 51 37 40 48 44 61 55 46 41 40 38 40 47 50 49 51 50 51 52 50 51 49 48 48 48 51 52 55 61 66 67 59 51
44 57 46 33 31 54 41 35 50 85 84 52 44 41 33 34 42 42 51 42 43 42 44 45 46 47 46 47 48 49 51 50 48 47 47 49 53 61 62 62 59 58 60 53
57 60 61 45 33 29 42 42 44 54 58 43 29 25 22 29 33 30 34 38 40 42 42 43 44 44 45 48 50 51 52 50 49 49 50 54 59 65 67 61 55 52 51 49
67 86 58 45 31 26 23 30 35 31 35 34 25 33 37 44 33 19 31 35 37 40 40 39 39 40 42 46 49 50 51 51 51 50 55 61 63 67 68 57 55 60 55 41
36 56 52 40 33 24 37 34 26 28 44 56 45 36 36 33 27 19 24 36 35 36 35 34 36 39 42 46 47 50 52 50 50 55 59 63 66 68 60 58 62 61 50 45
29 32 40 35 37 30 34 44 38 50 35 44 44 28 26 25 17 17 20 28 36 33 35 35 37 39 41 45 47 49 51 50 53 58 63 65 65 69 61 62 65 58 52 54
35 30 34 30 45 34 26 22 24 43 45 43 53 32 27 23 20 19 20 24 34 35 37 40 41 41 40 44 48 50 52 53 57 62 67 69 66 73 73 64 64 59 57 62
28 29 29 38 38 51 59 42 31 34 47 40 33 24 32 28 27 25 23 23 27 35 38 42 49 47 46 48 51 54 54 56 60 66 73 68 73 77 71 66 62 66 69 67
28 30 30 33 38 52 55 46 39 37 33 38 30 30 28 31 32 30 30 28 26 27 40 44 51 55 56 52 54 57 57 58 62 72 71 76 76 69 76 66 76 77 65 66
34 40 37 35 34 37 37 39 33 30 32 35 29 32 30 31 28 26 28 27 29 30 30 39 43 51 54 56 60 60 58 58 67 74 76 75 76 77 73 82 74 63 70 69
47 49 43 40 35 34 35 30 26 25 26 28 30 26 27 27 29 31 27 29 30 30 31 34 42 47 52 56 57 58 61 65 74 75 76 78 80 80 86 81 66 75 68 69
54 50 45 48 45 47 25 24 23 23 22 22 24 27 30 30 31 30 29 28 30 37 38 38 40 45 48 53 60 63 67 70 76 77 80 82 86 85 82 74 77 70 72 68
45 44 48 60 44 31 28 27 25 25 26 26 26 26 27 28 27 29 33 37 38 37 38 40 41 47 54 60 68 71 75 74 75 79 82 91 92 87 75 78 75 70 68 67
38 44 48 46 55 56 36 31 27 25 30 28 28 29 29 28 36 36 38 38 39 40 41 48 53 62 68 72 73 71 76 76 82 90 90 87 86 88 80 74 71 70 67 67
48 50 54 52 57 46 32 29 27 31 39 35 34 32 32 34 37 40 40 40 43 47 54 61 69 71 67 67 68 74 81 83 88 94 95 92 87 79 76 73 72 69 63 64
39 47 53 52 62 55 29 29 32 40 36 32 32 33 34 37 37 40 44 54 57 62 66 65 63 63 63 71 80 85 90 97 97 90 91 86 78 73 74 70 65 62 58 58
43 38 45 39 44 36 33 32 32 33 33 33 35 37 39 42 47 55 60 65 63 67 60 60 65 76 80 82 86 92 93 88 89 92 84 74 73 74 69 60 52 46 42 41
36 35 37 37 29 35 37 35 37 38 39 40 42 46 52 55 61 64 66 64 60 58 65 76 78 79 84 87 89 91 93 93 87 79 71 72 65 58 49 48 44 43 38 36
40 39 36 37 35 37 39 44 45 43 45 47 51 57 58 59 61 62 60 62 68 71 76 78 81 85 85 87 90 91 86 83 74 67 64 58 51 46 43 42 42 38 36 39
38 38 42 46 45 41 46 46 44 46 47 50 55 56 57 57 57 63 70 76 79 79 79 77 77 77 81 81 79 75 72 64 59 51 43 44 42 41 41 38 38 39 40 43

GFSCGP_prec_cthk_027.txt.gz
RH
42 42 51 47 54 47 48 46 43 40 38 36 40 32 30 31 41 44 43 49 37 34 35 39 41 44 44 47 54 52 61 66 64 65 63 66 65 62 55 50 49 46 44 42
49 52 49 47 52 48 47 47 42 36 35 31 41 37 28 35 36 49 46 43 39 40 40 42 42 45 42 48 52 61 67 68 62 60 63 63 57 54 50 46 42 40 42 48
53 48 48 53 49 51 50 48 44 37 23 24 36 36 40 38 33 42 45 44 46 46 40 41 44 44 44 46 53 62 69 65 60 63 64 57 54 50 44 42 41 44 48 53
58 52 49 52 49 48 44 49 42 39 31 25 30 43 41 46 44 46 47 45 47 48 42 39 41 47 47 49 56 68 65 58 60 59 59 54 52 48 46 43 46 50 54 57
53 50 47 53 50 48 47 45 40 43 48 52 48 47 42 46 49 49 49 53 49 47 44 45 46 46 51 52 53 55 56 59 57 55 56 57 57 51 48 49 51 53 54 56
52 47 47 46 45 41 37 36 36 47 47 58 38 45 51 53 48 47 49 42 44 52 51 50 50 50 50 51 54 55 55 54 54 55 55 53 51 47 48 52 57 62 65 62
46 46 52 44 41 41 38 37 49 53 65 64 48 51 52 49 46 39 31 31 35 43 49 49 48 48 50 50 51 56 53 53 55 54 52 51 50 51 56 61 63 65 68 62
50 51 52 52 47 46 44 35 57 69 74 58 50 58 46 35 38 39 36 41 33 38 44 45 44 47 48 50 54 53 50 51 53 52 54 56 57 56 59 61 67 66 67 54
52 54 51 55 46 46 39 44 47 65 64 67 49 29 45 43 42 44 44 29 33 37 40 41 43 44 47 50 50 47 47 47 48 51 56 59 60 61 64 68 70 66 62 54
52 53 51 59 50 39 32 43 51 50 47 45 29 38 51 51 46 45 38 34 34 35 36 38 39 39 40 43 43 43 44 46 47 51 55 61 65 65 67 69 72 64 67 63
56 51 55 53 50 40 34 34 30 30 44 57 57 47 42 40 38 37 43 39 34 35 36 35 34 33 33 34 38 42 46 48 50 55 59 62 64 67 72 72 70 73 64 76
52 48 54 48 38 38 36 37 48 53 37 49 50 38 29 32 32 31 30 33 35 37 37 35 34 33 33 34 37 41 46 50 53 55 60 65 71 75 73 71 72 71 69 61
33 36 46 40 34 37 40 33 34 44 47 48 53 38 28 26 28 29 27 25 31 37 39 39 38 36 35 39 45 51 53 54 55 58 64 70 73 71 71 73 76 75 74 69
35 32 34 37 26 37 46 43 47 33 49 46 48 36 26 28 33 32 29 28 29 31 36 41 44 45 48 54 57 61 63 62 61 62 62 70 71 71 76 79 74 78 75 79
31 31 27 28 27 38 45 48 58 48 42 47 40 38 30 37 35 33 33 33 32 33 39 45 47 53 61 61 69 67 67 66 65 59 62 66 70 75 74 75 78 81 82 81
26 34 30 29 28 34 39 43 46 46 38 36 35 39 36 35 34 31 32 32 33 36 36 30 38 48 53 51 64 68 65 61 59 61 69 76 75 71 76 82 86 89 81 75
39 41 42 41 35 32 32 26 28 30 31 32 33 34 33 32 31 30 30 30 30 31 30 32 37 41 46 50 58 55 58 61 69 73 78 75 75 77 84 91 92 83 79 79
50 54 57 55 43 37 29 27 26 28 29 29 30 30 30 31 32 32 31 31 30 31 34 36 37 41 43 46 49 59 70 76 76 75 76 78 81 85 89 90 86 89 84 79
56 57 61 55 50 35 32 30 29 28 31 28 28 29 29 30 31 33 32 32 34 35 35 37 37 40 47 59 68 74 76 73 74 78 81 83 85 91 97 94 89 84 79 76
46 50 48 52 52 48 39 32 29 27 39 31 30 30 29 28 36 38 36 35 36 37 39 41 45 52 60 65 65 65 67 73 77 83 84 87 93 93 93 89 82 80 71 68
49 51 52 59 56 47 37 31 28 33 37 32 32 32 31 32 34 37 39 41 39 39 46 55 60 61 63 64 68 76 80 83 86 90 90 97 97 93 85 79 74 72 63 54
41 49 51 56 60 52 29 28 28 35 33 33 32 30 32 33 34 37 40 44 49 54 59 60 61 64 70 77 83 86 88 94 96 95 95 93 87 80 74 70 65 57 46 42
41 36 41 39 42 30 28 29 31 32 31 33 35 37 36 38 43 49 50 54 56 57 58 62 66 70 77 81 83 87 89 89 87 86 79 75 63 55 56 51 41 39 38 35
36 35 40 37 35 34 32 33 34 33 34 37 37 37 40 45 50 55 55 54 54 58 63 69 73 77 77 76 75 74 75 74 69 64 56 43 39 37 33 29 32 35 36 39
38 36 38 38 35 38 41 42 42 43 42 40 44 43 45 49 54 55 56 58 63 67 71 77 79 77 70 70 69 67 59 53 46 38 35 31 26 24 25 29 34 39 42 45
38 39 39 43 38 37 43 43 44 44 46 46 46 49 52 54 56 60 64 69 73 77 79 77 74 70 69 65 56 46 37 34 29 25 24 22 23 26 32 35 38 44 47 47

GFSCGP_prec_cthk_030.txt.gz
RH
37 42 48 44 50 48 52 48 50 48 45 47 47 42 46 40 48 48 51 54 46 41 42 42 41 45 48 47 48 47 51 62 61 59 54 55 52 54 52 47 41 38 37 38
41 48 47 51 56 55 51 51 49 41 36 38 47 48 47 41 45 47 47 44 45 43 44 42 39 40 41 46 49 53 61 65 59 55 56 56 58 61 51 43 41 40 39 40
47 42 46 50 55 52 50 48 47 45 37 38 42 46 40 36 46 56 51 41 41 39 41 45 40 39 39 43 47 53 66 68 60 59 60 60 63 57 51 45 43 42 44 48
49 42 46 53 53 50 47 41 43 46 40 31 32 45 38 34 40 47 54 55 43 39 38 40 41 40 40 43 56 63 65 63 60 66 63 60 58 51 48 46 46 47 50 53
49 48 45 51 49 48 49 46 46 45 47 31 35 42 39 44 40 45 48 50 48 43 38 41 41 42 44 46 52 61 59 60 62 59 60 60 57 54 51 52 52 53 55 58
50 48 46 48 48 46 46 47 47 49 52 59 53 47 48 50 45 38 42 41 40 46 48 49 52 52 53 58 55 63 63 56 60 60 60 59 57 56 54 57 57 59 64 65
49 47 43 46 45 43 39 40 49 54 67 63 52 50 43 45 42 37 35 40 39 45 51 53 54 58 60 61 64 65 55 55 59 58 59 61 60 63 66 67 70 73 72 71
52 52 49 46 45 45 46 43 51 53 59 50 46 49 46 38 35 35 36 41 34 39 44 45 50 55 59 64 57 58 53 50 50 57 59 61 66 69 72 73 74 74 75 76
52 54 49 44 43 42 47 48 43 59 65 63 57 41 38 39 38 37 41 30 29 33 35 39 44 50 51 58 54 51 52 49 51 57 64 67 70 72 75 75 78 76 74 81
44 51 50 47 47 44 40 42 53 59 59 55 37 37 44 42 39 37 43 34 29 32 34 38 38 39 41 43 47 49 48 50 52 60 66 70 72 74 75 76 75 80 82 68
53 45 48 46 47 48 43 35 43 47 50 48 52 45 35 38 35 35 35 32 31 27 30 32 32 32 32 38 40 42 43 48 52 57 64 70 74 75 79 81 78 72 70 79
49 55 64 49 42 45 42 36 41 57 49 58 52 38 37 39 36 36 33 31 31 32 31 31 30 31 34 36 38 38 42 49 54 55 59 64 69 75 77 70 69 70 75 79
48 51 62 48 50 39 38 42 43 47 56 52 54 45 33 30 30 32 33 31 31 32 33 34 37 39 39 38 39 45 44 49 60 70 73 71 71 68 62 61 65 71 72 68
47 46 37 40 32 35 37 37 45 51 55 51 48 38 37 30 31 33 30 29 30 33 38 41 44 43 42 42 50 52 63 65 79 78 73 69 67 63 65 67 70 71 70 73
50 46 41 36 30 29 29 37 35 43 48 52 34 44 37 34 32 30 29 30 31 34 39 42 47 44 45 50 53 56 65 77 76 73 69 66 68 70 71 70 71 73 76 81
47 48 43 39 36 29 26 32 34 42 54 55 44 41 38 37 34 31 31 33 34 35 36 39 39 39 40 46 52 59 58 71 70 67 67 73 77 74 69 74 76 78 79 84
44 45 42 37 33 30 34 23 28 31 45 45 47 44 38 39 38 36 37 37 37 37 36 34 31 31 34 40 46 50 53 58 65 71 75 74 71 73 77 79 79 83 88 95
49 61 54 54 46 46 27 23 24 29 30 31 34 35 35 36 37 37 36 35 35 34 34 34 33 33 36 39 45 52 59 75 78 79 77 76 77 75 75 75 82 91 96 92
58 68 68 62 61 45 30 28 27 31 37 34 34 34 35 36 35 37 37 37 36 35 34 32 33 34 38 45 54 60 68 72 72 74 80 85 92 85 83 89 96 96 89 84
48 60 62 70 60 51 32 29 32 34 45 36 35 35 34 31 39 38 37 37 35 33 34 36 38 45 51 54 59 62 63 70 75 81 84 88 95 93 97 96 92 88 80 67
49 57 58 66 59 43 32 34 32 34 34 35 34 33 32 32 32 33 33 33 32 33 38 45 52 56 57 60 61 66 75 81 91 93 96 90 89 92 90 89 78 57 50 40
38 51 56 62 61 49 34 34 34 32 32 31 30 30 30 31 31 32 33 36 41 45 50 55 56 57 59 61 67 76 84 87 87 87 88 90 85 76 62 50 40 35 28 23
38 35 40 40 39 31 28 28 28 27 28 31 33 34 34 33 34 36 40 45 49 52 54 55 58 62 67 72 79 83 83 81 79 76 70 62 51 41 35 32 29 22 23 24
36 34 38 38 36 35 32 31 31 30 31 34 38 37 36 37 39 42 48 51 52 53 56 61 65 70 77 78 78 77 72 69 63 56 48 40 34 29 26 23 22 24 26 29
34 35 38 41 42 40 39 37 36 37 39 40 40 41 42 43 46 50 52 54 57 60 67 71 76 79 78 77 72 65 60 54 48 39 30 24 21 20 21 23 26 28 32 38
32 35 38 40 37 38 41 42 44 44 46 46 46 47 47 50 53 55 57 60 66 73 78 80 80 78 72 64 60 55 47 38 29 23 22 23 23 24 26 29 30 38 44 52

GFSCGP_prec_cthk_033.txt.gz
RH
36 39 42 43 48 45 43 48 48 45 43 42 52 55 55 52 57 51 54 49 42 38 40 42 43 44 43 41 41 42 52 61 63 61 59 64 61 60 56 52 49 45 42 40
40 47 43 42 46 52 49 49 47 45 37 39 45 53 54 48 49 50 46 46 45 45 43 42 41 43 43 45 44 46 53 56 61 59 59 62 60 59 58 55 51 44 40 37
42 42 47 46 49 55 54 51 49 47 44 37 41 46 49 42 45 52 54 46 42 40 41 42 43 43 45 47 45 51 59 67 66 59 63 63 64 65 59 55 52 45 42 41
46 42 43 47 50 49 53 50 48 45 41 41 34 39 41 43 41 47 54 57 55 42 42 47 44 43 47 51 52 60 68 71 67 61 65 66 69 69 59 56 55 50 49 50
45 45 44 48 47 49 50 48 46 45 47 47 39 38 37 35 38 44 47 53 56 52 42 44 45 50 51 60 66 59 72 79 71 63 65 71 66 62 61 57 53 53 56 56
45 45 44 45 45 46 45 46 47 51 50 58 42 44 41 43 40 40 41 46 53 52 50 54 51 51 52 63 66 66 73 69 72 64 65 64 63 63 61 57 56 63 65 67
45 45 47 46 44 45 43 44 48 52 63 58 49 51 39 37 40 39 39 36 40 45 47 49 49 51 57 57 66 74 74 70 63 58 56 55 58 63 69 67 73 76 71 74
50 48 45 46 47 47 46 44 51 51 62 51 50 47 36 36 42 37 36 36 39 35 37 43 48 52 53 57 64 79 67 62 56 55 52 52 58 69 74 75 80 74 77 77
52 47 48 50 47 46 46 41 43 54 60 59 52 48 38 34 40 39 35 41 31 28 31 37 43 44 52 54 63 67 55 54 53 50 49 51 63 71 71 78 78 82 80 86
41 47 46 46 47 45 43 42 46 56 54 55 49 43 44 40 37 34 35 39 29 26 28 31 33 38 41 51 53 47 48 47 44 46 51 55 61 64 72 73 76 80 85 84
37 38 44 48 44 44 47 49 47 44 59 61 61 42 30 34 27 26 29 34 30 28 25 26 27 31 33 32 31 33 35 36 39 44 49 57 66 74 75 76 78 78 76 73
38 38 47 43 48 48 47 53 53 55 47 61 57 43 28 33 33 30 29 30 33 31 28 24 28 34 36 37 38 37 38 45 51 55 61 72 79 83 83 79 75 69 68 72
39 42 51 49 49 46 44 45 46 48 52 49 59 47 30 33 28 29 29 26 26 28 31 33 35 39 44 45 46 51 57 65 71 75 80 84 81 83 80 74 69 69 73 72
36 43 48 55 45 49 49 43 44 46 58 48 46 32 31 30 30 30 26 27 28 28 31 34 39 43 48 50 55 54 61 71 75 77 79 80 82 77 73 71 74 73 70 73
38 44 48 45 40 40 34 37 44 40 38 44 38 43 44 35 36 32 30 30 29 31 35 38 43 48 48 52 53 56 66 72 78 67 66 78 80 77 78 76 72 73 77 74
43 52 49 48 44 42 38 35 32 33 37 37 41 48 40 35 39 35 32 32 33 36 37 39 42 44 45 44 44 48 52 56 54 61 69 73 80 86 81 75 74 82 83 90
48 50 49 46 44 40 42 33 31 27 27 33 40 44 44 42 40 37 35 36 37 37 38 37 36 36 36 37 40 41 44 50 55 62 70 78 78 74 77 83 83 82 86 90
51 51 53 53 44 49 31 28 27 25 23 23 27 34 37 40 42 42 36 36 36 36 35 35 37 36 35 34 35 37 43 51 59 69 73 75 74 79 80 81 81 83 95 93
46 47 51 55 61 52 41 35 32 29 30 29 32 34 36 37 36 36 36 35 34 34 34 34 34 33 32 32 37 44 53 59 66 69 71 74 79 86 93 89 98 93 95 93
50 42 52 61 59 58 46 43 36 33 42 33 35 36 37 36 41 39 36 36 35 34 33 32 32 34 37 41 48 53 56 60 63 68 75 86 91 90 97 89 92 94 91 71
54 56 58 59 54 46 35 36 36 40 34 37 39 39 38 37 36 37 36 34 32 32 33 37 41 44 47 50 52 54 60 66 73 78 84 87 89 91 89 88 80 68 56 42
52 62 57 53 53 45 33 34 33 32 37 38 40 37 36 36 35 34 34 34 36 37 40 43 46 47 50 51 55 61 67 74 80 85 87 87 84 77 69 60 51 40 31 28
48 42 36 36 37 29 28 28 31 34 34 32 31 32 33 34 34 34 35 38 41 44 48 50 52 54 56 62 67 74 79 82 82 78 71 65 59 54 48 37 28 24 22 22
47 35 31 32 30 30 27 26 26 28 28 30 32 35 36 35 36 39 42 44 49 52 55 56 57 60 68 77 81 81 79 75 69 63 58 54 46 36 29 22 20 21 23 26
45 33 34 36 33 33 31 30 30 31 32 34 37 39 40 40 43 47 48 51 54 58 60 62 66 73 77 76 75 72 68 64 58 51 43 37 32 26 23 23 24 26 29 35
46 33 33 35 30 31 33 35 35 35 38 41 43 44 46 48 52 53 55 59 63 65 68 72 76 77 75 70 67 63 57 50 44 39 35 30 26 24 24 26 26 33 40 46

GFSCGP_prec_cthk_036.txt.gz
RH
36 38 38 40 44 46 47 47 44 40 45 43 53 51 50 58 57 57 47 41 41 37 40 41 40 38 40 43 41 46 53 62 62 60 56 56 58 63 59 60 56 51 54 50
42 44 39 41 44 46 46 47 47 43 43 41 45 49 47 51 53 51 52 44 40 38 39 39 40 40 38 37 38 44 53 57 62 60 53 58 58 61 62 61 58 59 56 50
45 42 42 37 45 47 50 47 50 51 42 39 44 46 52 46 49 51 54 51 42 43 40 38 38 39 40 41 42 45 51 58 62 59 53 56 60 64 66 68 65 59 56 49
44 43 43 46 47 53 55 49 50 47 44 38 39 41 43 42 45 49 49 54 55 46 40 42 43 42 44 48 49 50 55 62 63 60 56 56 62 67 74 74 63 59 56 52
46 47 42 40 48 48 49 47 46 43 44 41 39 39 33 40 43 45 49 51 53 48 48 44 43 49 52 51 52 59 59 62 71 70 66 63 73 78 79 75 75 64 62 60
45 48 46 44 44 45 45 46 46 48 47 53 47 45 40 37 39 44 46 46 49 49 45 45 49 61 61 57 56 58 73 72 72 74 71 62 62 69 74 73 74 72 75 73
44 45 46 47 45 43 45 49 51 49 61 56 49 49 41 39 36 40 40 39 41 42 43 45 48 56 56 61 62 61 81 84 80 78 73 70 66 73 73 74 74 80 83 82
49 49 47 47 45 45 45 46 54 49 59 50 52 51 36 35 34 38 36 32 34 37 33 37 46 49 46 60 61 61 74 80 83 81 73 67 64 66 68 73 78 86 83 85
48 48 48 50 49 46 47 46 45 56 61 58 47 40 33 37 42 42 40 37 34 30 29 33 35 37 45 52 53 54 73 81 71 60 63 59 58 62 63 74 86 82 81 79
45 47 48 49 50 50 47 47 49 52 52 53 47 41 39 35 38 38 38 37 36 33 28 29 32 30 32 36 40 40 63 54 50 54 51 48 52 59 68 76 79 85 84 82
44 41 46 48 47 46 48 47 49 49 53 55 56 46 38 30 34 37 36 35 33 33 27 29 28 26 23 26 30 36 39 40 44 44 47 55 63 73 82 84 86 84 79 76
39 44 47 43 47 45 43 45 47 58 51 66 61 44 35 31 30 31 33 30 32 37 35 31 26 27 31 32 37 40 49 55 61 66 70 75 82 82 84 82 78 76 73 81
41 44 50 43 42 44 45 46 49 55 59 59 54 39 32 40 34 29 31 30 30 29 30 33 32 32 35 41 48 61 64 65 63 63 72 82 84 83 77 73 72 78 77 81
40 43 42 45 42 47 44 47 50 49 55 49 48 35 35 37 36 31 29 25 27 27 28 29 31 34 39 48 58 59 62 59 60 67 73 77 78 73 74 72 75 76 81 83
39 39 42 43 49 47 43 42 47 43 41 44 34 37 30 33 37 40 34 29 30 32 33 32 35 38 43 50 52 54 53 52 51 60 64 68 68 67 70 75 77 78 81 75
40 41 41 48 50 46 40 38 37 36 33 31 33 31 27 32 40 42 37 36 37 38 39 40 40 41 44 45 44 45 43 45 50 53 57 59 66 69 76 82 85 81 72 76
41 46 52 55 57 51 46 33 30 29 28 29 33 29 28 32 41 48 46 43 40 39 38 38 37 37 36 34 34 34 36 38 42 47 52 58 71 78 82 80 80 79 87 93
50 48 56 64 58 54 31 29 29 32 26 26 25 24 23 28 34 41 41 42 41 39 37 37 36 35 33 33 32 32 33 37 43 52 59 67 78 80 81 77 78 91 92 93
55 60 66 66 62 46 33 31 42 40 34 28 26 27 28 32 36 39 40 40 40 38 37 35 35 34 32 31 32 36 42 48 54 59 64 69 70 74 78 86 94 91 88 89
60 64 65 67 56 50 33 33 36 39 37 33 30 33 36 37 42 42 40 38 37 36 35 34 32 32 35 38 42 45 49 51 54 59 63 69 75 83 83 86 87 87 87 86
64 71 67 69 59 45 38 30 30 36 29 29 31 34 37 39 37 38 39 37 35 33 32 33 36 38 41 44 48 48 49 52 57 65 72 76 80 86 88 87 83 71 62 55
55 66 71 68 60 56 33 28 31 30 28 28 32 33 36 36 37 36 34 33 32 32 34 37 40 43 47 49 50 52 56 63 71 78 81 81 80 73 66 61 57 51 40 32
54 47 54 53 50 45 27 23 22 26 30 33 34 35 34 33 33 33 33 33 34 36 39 43 46 49 53 55 57 62 69 75 75 73 70 65 62 60 54 46 38 33 27 23
56 48 47 45 43 36 25 24 23 23 26 29 30 29 29 29 32 34 35 36 39 42 47 50 52 56 60 63 68 71 71 70 67 64 61 56 49 43 40 36 32 27 24 25
57 50 46 45 43 33 27 25 25 25 26 27 28 29 31 33 36 38 39 42 46 49 54 57 60 64 68 70 71 70 67 65 60 53 47 45 43 40 34 31 28 27 29 34
62 53 51 50 46 30 25 26 28 29 30 31 31 34 37 40 42 45 47 51 54 58 64 66 68 72 73 73 70 65 62 55 49 47 47 44 38 31 29 26 23 24 24 23

GFSCGP_prec_cthk_039.txt.gz
RH
34 33 33 32 40 42 42 49 46 45 46 51 51 49 56 59 59 48 39 43 40 34 32 34 41 50 54 51 54 58 61 57 60 56 51 55 54 55 63 70 68 58 54 52
36 38 36 42 42 43 42 47 47 45 43 47 47 46 48 56 53 52 46 40 42 42 39 41 39 40 44 43 46 53 59 62 66 63 60 58 59 61 68 66 65 61 58 55
40 37 40 44 44 42 39 43 48 49 45 44 45 46 47 43 49 52 55 48 42 43 41 40 40 39 39 39 40 46 52 56 62 65 63 59 61 64 66 68 69 70 68 58
40 38 41 47 48 50 47 44 48 50 47 41 39 40 41 40 45 48 51 56 47 40 42 41 38 37 40 39 40 42 47 53 61 67 69 62 59 62 67 72 78 78 71 70
38 39 41 46 49 50 51 49 48 49 46 46 42 33 32 37 35 45 50 51 54 51 44 39 40 45 48 45 47 49 53 60 65 68 71 73 69 70 77 78 76 74 74 74
38 40 41 40 46 48 49 49 47 47 48 49 46 43 35 31 34 36 44 51 51 54 52 48 48 49 54 56 53 54 58 70 76 84 82 77 71 63 63 67 72 75 78 81
38 41 41 41 46 48 48 47 48 44 51 47 47 47 40 35 34 36 38 43 45 49 51 48 50 52 55 61 62 62 63 65 80 80 86 82 79 75 67 66 72 82 79 85
40 43 43 43 45 47 48 46 49 46 49 43 47 44 36 37 34 35 37 38 35 39 40 42 43 47 49 58 58 64 67 68 72 87 80 79 70 71 70 66 69 79 80 86
46 44 44 47 48 48 49 48 46 53 58 51 41 38 32 32 36 36 39 41 36 33 34 30 31 38 45 53 54 66 64 65 72 86 81 70 67 67 61 69 71 79 83 89
41 48 47 48 53 53 52 51 54 53 54 53 44 41 33 32 31 38 37 38 38 35 33 25 25 28 34 38 43 47 57 58 67 62 58 61 63 58 66 74 79 85 88 91
42 44 48 49 51 52 53 52 54 52 53 49 47 40 34 33 34 34 35 37 39 36 30 30 27 27 27 29 31 34 36 39 43 47 55 60 60 69 73 80 89 92 94 94
42 45 50 42 48 49 48 48 50 56 50 52 52 41 39 33 36 34 33 32 34 34 35 37 36 30 24 24 26 27 30 38 50 66 69 71 70 77 81 88 90 93 93 83
43 43 46 45 47 47 48 46 47 49 50 52 60 44 33 29 31 36 33 29 28 28 30 33 34 37 38 37 38 42 48 59 70 71 74 71 71 76 79 85 87 83 79 74
35 42 40 39 38 41 45 45 46 50 56 51 46 34 31 31 32 30 31 31 26 23 27 31 35 38 40 45 49 52 58 63 65 65 59 56 58 64 71 79 79 70 76 85
38 40 41 39 40 43 43 43 46 48 49 49 40 36 30 24 24 24 32 33 34 33 33 37 38 40 41 43 46 49 53 52 50 48 48 50 54 61 63 66 65 69 79 79
43 43 41 41 42 45 43 46 49 45 38 33 32 27 24 24 26 24 35 39 43 39 39 40 42 43 44 45 46 47 49 47 45 44 45 51 54 56 58 65 71 77 79 85
49 50 47 46 45 45 47 43 41 39 36 34 36 26 28 27 29 27 32 45 48 47 43 42 42 40 39 38 37 36 35 35 36 36 38 43 50 57 61 66 71 77 78 89
52 50 49 54 49 55 39 37 38 37 34 35 38 31 28 27 29 30 29 34 43 45 42 40 39 37 36 35 34 34 33 32 34 39 47 53 57 60 64 66 70 84 88 82
54 55 57 59 49 38 35 33 37 37 25 32 35 35 33 30 30 30 30 33 36 39 40 39 39 37 34 32 30 30 32 37 42 46 50 52 55 59 62 67 76 83 84 84
57 53 59 65 60 55 34 34 34 33 29 27 31 32 33 36 36 35 37 39 39 39 39 38 35 33 32 32 34 36 39 42 43 45 49 53 59 64 68 73 78 81 84 81
63 61 60 65 63 52 42 38 34 40 25 25 29 29 32 35 34 37 39 40 41 39 35 34 33 33 34 37 40 41 43 45 49 55 61 65 68 71 73 72 63 58 55 48
60 63 63 59 64 62 42 39 37 31 20 24 30 30 34 36 36 37 40 41 37 34 33 33 34 36 39 43 45 47 50 54 60 67 70 67 60 57 56 55 48 42 39 37
73 59 54 49 47 45 44 37 34 24 18 22 28 32 34 36 37 38 37 36 34 34 35 36 38 42 46 51 52 53 60 65 68 65 59 55 53 51 45 42 42 40 37 33
68 66 64 59 50 43 40 35 39 25 19 21 26 31 33 33 35 35 35 35 36 38 40 42 45 49 53 55 58 60 64 65 64 58 54 49 48 45 44 44 41 37 34 31
69 68 66 60 53 47 38 36 36 25 20 23 26 30 31 32 35 35 37 39 41 43 46 49 53 57 60 61 63 65 66 64 57 51 50 50 48 46 42 40 36 32 30 29
67 68 67 57 52 47 43 44 34 24 22 25 27 31 33 35 36 40 43 46 48 50 55 57 60 64 68 70 70 69 64 58 54 53 51 50 47 43 42 39 35 33 29 25

GFSCGP_prec_cthk_042.txt.gz
RH
34 32 32 31 31 35 38 44 46 47 41 48 47 52 52 52 54 44 40 45 43 39 42 48 53 58 60 60 61 61 61 59 65 63 57 51 51 57 60 59 63 67 69 57
35 33 33 30 33 38 41 41 41 40 39 45 45 42 49 48 53 49 40 38 40 41 42 42 56 63 57 58 61 66 67 69 67 70 66 59 57 55 59 64 68 66 59 62
36 36 33 36 35 41 45 45 43 41 39 44 44 42 46 45 48 51 49 41 39 39 45 44 44 49 51 50 52 57 64 68 72 78 70 66 62 66 65 68 74 76 72 76
35 37 36 39 38 40 46 45 42 43 42 45 42 44 42 39 41 43 48 45 42 38 40 41 40 40 38 41 45 47 52 59 63 69 77 73 68 65 67 67 73 76 82 84
34 36 37 38 41 44 49 50 50 47 46 41 40 37 41 38 31 39 44 47 45 44 38 36 38 39 41 40 44 49 53 59 64 66 69 73 74 73 74 74 79 80 78 79
36 35 38 39 41 43 48 50 51 50 49 47 42 39 39 34 30 33 40 47 48 50 49 43 38 45 48 48 50 53 55 59 60 72 71 80 84 84 79 71 67 68 71 76
33 35 38 38 40 44 46 50 55 53 51 50 44 40 40 36 28 30 34 39 45 49 53 56 53 48 52 57 62 63 61 68 67 84 77 82 84 90 86 85 81 71 69 77
33 35 35 39 40 43 45 47 55 54 51 48 45 41 41 34 32 29 32 36 42 45 49 51 54 59 56 58 60 64 66 69 75 72 75 90 84 85 88 88 79 77 71 79
32 34 38 42 41 43 49 48 48 52 51 46 41 37 31 30 29 29 31 35 40 39 39 43 46 49 53 57 60 66 68 70 75 76 70 77 69 75 72 73 73 70 76 85
33 42 42 46 44 47 50 50 50 50 55 51 46 42 37 32 30 27 30 34 38 40 40 39 35 33 36 43 49 58 67 68 68 67 60 71 60 61 64 66 64 72 81 86
34 40 45 46 45 47 50 50 49 49 51 54 51 44 36 35 36 36 31 35 36 36 36 38 34 29 32 34 40 46 46 48 52 54 54 50 51 65 70 70 73 76 82 90
35 42 46 42 45 44 47 49 50 51 51 51 52 42 36 37 40 38 36 34 31 35 39 40 39 40 39 35 36 37 40 43 45 49 47 49 65 67 68 66 75 83 88 90
35 41 49 45 44 44 43 43 45 47 51 50 55 43 38 36 32 31 32 32 30 29 28 30 33 36 36 40 39 38 36 40 43 49 58 64 64 62 56 53 56 65 79 78
33 43 43 41 38 42 45 44 45 47 51 46 47 41 43 35 32 31 26 27 30 28 29 29 31 32 38 40 41 43 44 45 50 56 59 58 57 55 55 53 59 65 68 74
38 45 45 37 36 39 38 40 42 45 41 42 38 42 40 36 32 28 20 20 27 31 35 38 39 43 45 48 48 50 50 52 53 53 53 52 52 53 60 61 63 63 64 65
41 42 42 39 37 37 36 36 40 43 39 39 36 28 27 27 27 27 25 22 30 33 37 42 44 49 53 55 54 54 55 54 54 52 51 50 48 46 48 50 54 57 62 64
42 40 43 40 41 42 41 37 37 39 41 36 32 28 30 35 31 27 30 30 33 42 44 47 51 51 51 50 53 50 49 47 44 40 39 39 38 41 47 52 57 60 64 64
51 47 49 49 55 60 28 33 34 36 34 32 29 26 33 38 34 31 31 33 34 37 44 48 48 46 45 44 42 41 40 39 38 37 36 39 44 48 51 53 56 60 65 71
56 54 56 62 48 36 32 32 36 39 26 33 28 26 27 34 33 31 31 31 33 33 35 40 44 44 43 40 38 36 35 35 35 38 41 43 44 47 51 54 60 65 69 71
60 60 61 60 53 51 27 29 33 37 26 35 25 20 24 32 33 29 33 35 36 37 40 43 44 42 40 36 35 33 33 36 38 40 43 46 51 57 61 65 66 65 63 60
69 64 66 61 59 42 35 39 43 47 28 29 24 19 24 28 29 32 36 39 41 42 42 42 41 38 37 36 35 36 38 41 43 46 50 54 58 62 62 57 53 53 51 44
69 68 67 63 68 56 33 40 46 43 39 31 25 18 23 29 32 36 38 41 43 45 44 41 40 37 36 37 38 40 43 46 49 54 57 57 53 50 50 47 44 43 46 45
75 63 61 54 50 46 40 34 37 42 40 34 28 19 24 28 32 37 39 40 43 42 41 40 38 38 40 43 45 47 49 54 55 55 54 52 50 47 44 46 47 50 48 48
62 68 70 64 52 51 50 45 42 42 41 34 32 21 24 28 32 35 37 39 40 39 39 39 40 42 44 48 51 53 54 55 55 57 53 48 46 48 47 48 44 45 45 44
48 58 62 62 60 56 55 55 52 47 42 35 31 23 25 28 31 33 35 37 38 39 41 43 46 49 51 54 56 57 58 62 61 55 50 49 47 47 46 45 44 43 42 36
47 46 51 54 58 62 62 60 57 52 45 39 29 27 27 30 31 34 36 38 40 43 46 50 53 56 57 57 59 62 65 64 59 54 51 49 49 47 47 48 49 43 36 33

GFSCGP_prec_cthk_045.txt.gz
RH
31 36 38 42 38 35 40 39 41 43 42 35 44 45 60 53 48 47 47 41 41 44 50 56 54 58 60 60 59 58 57 64 70 64 59 56 55 57 65 69 71 72 72 71
38 37 37 36 30 28 35 40 37 42 36 32 42 50 44 60 46 51 43 45 40 40 44 47 57 58 60 58 61 60 62 66 73 71 62 55 51 50 53 58 66 68 70 71
34 46 37 30 28 34 38 45 52 42 52 32 32 37 43 48 49 48 50 41 41 39 39 49 55 58 55 57 60 62 64 64 65 72 70 66 57 57 55 63 67 67 71 71
33 40 35 33 36 39 46 42 41 40 38 45 47 50 52 49 47 44 48 48 43 39 43 40 44 48 51 52 54 57 61 62 62 65 71 72 68 71 69 65 66 70 80 82
34 35 38 35 41 42 47 46 41 41 48 47 41 35 45 39 44 51 45 49 49 44 43 38 38 38 43 46 45 46 51 56 61 62 62 72 75 77 76 72 72 72 78 86
32 38 37 39 39 42 44 46 44 45 47 53 41 38 54 39 36 36 47 50 51 50 49 47 40 38 38 39 40 46 50 53 57 67 66 70 74 74 84 90 92 77 76 76
32 36 34 37 39 40 43 47 54 53 51 48 54 37 39 51 38 32 40 46 53 52 51 53 54 53 47 43 41 49 56 58 62 70 79 71 72 71 77 94 94 86 87 88
38 38 34 35 36 44 45 48 54 76 51 46 51 34 38 40 33 31 31 34 36 44 52 55 56 58 62 63 62 60 62 65 67 77 81 72 77 70 66 77 88 87 85 89
39 39 36 39 37 42 49 46 49 58 49 49 44 37 34 30 28 28 32 33 40 44 46 50 54 58 62 66 66 66 71 74 74 75 85 85 82 70 55 57 71 76 77 78
37 45 38 40 42 44 50 50 50 48 56 58 39 40 38 41 33 30 29 35 41 42 44 46 49 57 60 57 61 61 66 70 72 69 78 73 72 60 51 52 67 72 74 75
36 38 43 43 42 45 44 49 47 52 54 61 54 42 47 39 36 36 39 34 34 40 46 46 48 48 48 47 50 50 57 64 62 61 66 65 63 58 56 58 73 70 69 68
31 41 53 50 43 43 54 46 49 54 52 53 50 44 45 40 37 40 41 39 36 33 41 46 42 41 42 39 44 47 48 57 61 57 53 59 63 65 57 69 64 63 60 56
36 40 48 53 49 51 48 52 50 52 53 56 68 49 49 39 34 33 33 37 36 33 34 35 38 42 44 44 46 53 57 56 55 59 58 57 57 63 65 62 60 60 59 59
38 37 43 46 50 49 43 43 47 50 57 53 48 47 46 49 48 44 45 47 34 30 31 37 38 37 36 37 39 43 46 50 54 54 58 60 57 61 64 63 60 64 63 62
38 41 40 40 49 48 48 48 47 47 48 51 47 44 44 47 45 43 48 44 30 19 27 34 41 42 39 41 45 48 46 49 53 58 61 62 63 62 61 59 57 61 63 65
43 48 44 42 50 47 44 41 40 40 43 44 44 41 44 41 36 37 34 27 23 22 27 36 45 50 49 50 53 53 57 62 66 64 64 62 60 56 58 57 51 49 50 53
48 47 49 51 52 50 51 36 40 40 41 45 46 40 46 42 36 35 32 32 31 27 29 38 42 49 54 60 62 64 68 66 65 60 59 55 49 45 44 42 43 48 51 53
64 58 50 56 55 59 37 38 35 34 34 38 39 39 34 34 34 31 34 35 35 35 35 40 45 49 54 59 62 59 57 56 53 49 46 43 41 39 40 44 45 45 47 51
67 60 56 61 53 41 35 34 36 37 33 35 37 34 33 36 30 27 27 31 30 30 34 37 41 44 50 53 54 53 51 47 44 40 38 36 36 38 40 42 44 48 53 57
74 65 64 56 54 56 36 37 32 34 34 33 40 33 29 24 23 22 30 31 30 32 32 33 33 35 39 43 46 46 44 39 37 34 33 35 38 41 46 49 51 53 52 48
81 76 74 65 64 49 37 37 38 43 24 41 41 28 24 23 20 25 29 30 31 33 35 36 38 41 43 45 44 40 38 35 34 36 39 41 45 47 49 51 50 49 46 45
84 78 75 68 69 67 42 39 38 30 33 46 44 35 27 26 21 24 29 31 32 35 38 40 41 43 43 40 39 36 36 38 40 41 45 47 47 47 49 49 47 46 47 48
70 79 75 63 55 46 41 41 42 39 47 49 45 41 33 30 23 23 28 31 34 36 39 40 42 42 41 39 37 37 40 42 45 47 48 49 51 52 51 49 49 49 48 46
56 61 73 74 63 55 54 49 49 47 44 50 49 45 38 33 27 24 28 32 34 37 38 38 39 39 39 38 39 43 45 47 49 52 55 56 55 53 51 50 48 48 49 47
50 56 52 54 57 62 63 54 56 58 61 60 53 44 42 36 28 25 28 32 36 38 38 39 40 40 41 43 46 49 51 54 56 59 60 59 55 54 54 52 51 48 47 44
51 53 49 52 46 56 59 61 64 65 62 58 53 50 44 38 28 28 31 33 36 39 41 43 44 45 47 51 56 60 62 62 62 63 63 61 58 56 55 55 55 53 49 44

GFSCGP_prec_cthk_048.txt.gz
RH
30 30 31 36 46 37 36 36 46 47 41 39 32 47 65 61 67 52 41 40 39 47 52 50 49 51 49 46 53 59 68 71 70 61 61 63 58 59 59 60 60 63 63 61
37 37 35 40 46 34 32 33 38 37 45 34 26 37 55 60 57 42 38 38 37 41 42 47 47 52 49 48 47 50 57 67 71 70 58 51 46 45 46 56 64 73 77 68
40 41 48 39 34 27 29 34 41 42 46 37 30 30 45 57 62 44 40 40 38 33 37 45 49 49 52 53 51 52 53 55 59 60 52 60 55 51 47 50 55 59 64 71
40 37 41 39 30 30 37 40 43 43 43 40 40 45 39 42 52 52 41 36 39 33 35 39 42 47 49 48 50 50 52 54 54 57 63 59 65 59 58 56 64 61 63 72
38 40 36 37 31 36 39 48 50 39 37 42 43 45 44 42 45 59 51 49 43 45 38 37 38 41 44 45 45 46 47 47 51 53 67 70 71 61 65 72 72 63 68 72
38 41 37 38 33 39 40 40 45 41 37 44 42 43 55 47 55 48 54 58 52 47 45 45 45 47 47 46 43 40 43 48 54 58 61 69 83 76 81 86 82 84 87 82
42 36 39 37 37 38 39 42 49 56 51 46 40 41 47 41 42 43 44 49 54 57 50 45 49 50 49 48 45 44 45 50 57 60 64 69 77 82 80 80 74 80 91 95
47 42 36 38 34 40 38 38 55 74 71 66 53 42 40 39 42 36 32 34 48 52 52 49 52 51 47 47 50 49 52 56 60 61 68 77 67 66 70 73 69 63 74 78
48 42 40 38 33 34 42 40 39 68 66 69 55 44 38 37 35 33 32 33 36 35 53 56 56 57 52 50 48 51 55 58 62 62 69 76 65 75 74 69 63 55 59 79
44 52 44 46 39 35 35 46 47 50 64 64 44 36 40 42 40 34 28 33 43 43 42 47 54 59 59 59 61 52 53 60 66 63 61 74 77 66 66 65 62 56 62 84
42 49 48 46 41 38 37 42 52 53 50 58 52 50 49 47 42 38 37 32 33 38 38 39 46 60 67 70 69 65 52 57 64 65 64 69 75 73 69 66 68 62 72 70
42 49 52 51 44 40 41 42 49 52 56 64 63 49 48 47 44 41 39 35 36 36 40 35 40 46 55 60 65 64 63 64 80 72 73 78 76 69 65 72 71 73 71 63
46 48 57 52 54 56 39 48 41 42 45 52 69 57 47 42 38 36 32 32 34 33 32 38 37 37 39 40 44 56 61 60 69 71 70 74 69 65 63 67 74 65 66 66
55 50 47 53 50 50 47 48 53 53 66 63 60 48 43 43 45 46 42 40 40 39 33 26 35 38 37 35 38 41 44 47 54 61 60 62 60 66 64 61 64 68 69 65
54 58 47 46 42 51 46 42 46 49 48 51 46 42 42 43 51 42 48 48 46 40 37 30 25 42 40 38 38 39 40 43 52 64 60 55 62 65 68 70 69 65 60 58
55 58 51 53 42 46 58 56 43 40 37 41 43 47 40 42 44 43 39 36 34 35 35 29 21 39 43 43 43 40 43 49 54 52 59 64 64 66 66 60 58 59 58 50
57 58 50 54 45 47 53 55 47 48 44 43 44 44 40 42 46 40 36 36 33 29 30 36 33 44 46 48 48 49 49 55 58 63 68 68 66 64 61 57 49 45 41 43
60 59 58 67 65 63 43 47 45 43 38 38 40 40 43 43 44 40 37 34 32 32 35 36 41 43 53 49 51 54 56 60 66 67 66 65 61 53 47 44 41 40 42 44
68 66 73 72 65 56 46 48 45 39 35 32 33 36 41 42 47 39 34 31 28 27 29 34 36 43 45 49 50 53 57 59 58 58 56 53 48 42 40 36 38 40 42 47
69 73 77 77 67 64 50 41 38 40 41 33 36 37 43 44 45 33 30 23 22 28 31 32 34 36 41 43 46 46 46 51 50 49 48 44 39 35 36 39 43 46 49 49
77 85 88 80 80 62 43 36 40 49 37 36 42 41 43 40 34 25 24 21 22 28 31 31 33 35 37 37 37 40 42 45 47 43 39 36 36 38 42 43 44 46 48 50
76 90 92 86 85 76 49 46 47 39 31 38 40 52 50 41 34 28 26 23 23 27 30 32 35 37 38 40 41 43 44 43 40 38 36 37 39 42 44 45 46 45 47 49
68 65 86 79 69 64 54 55 53 48 47 42 50 52 48 45 40 36 31 29 24 28 32 35 37 38 40 43 45 45 42 40 38 38 39 40 42 45 48 50 49 50 52 54
47 63 67 67 72 68 73 65 57 55 55 51 52 59 61 55 47 44 41 34 28 31 34 37 39 40 41 42 44 44 44 43 41 41 44 46 49 53 55 54 52 55 56 55
43 40 53 55 59 62 64 69 71 65 60 57 58 62 58 53 50 47 43 39 32 33 36 39 40 41 42 42 42 44 45 43 45 48 51 56 60 60 58 58 55 55 56 56
42 40 51 64 59 57 58 73 74 67 56 58 60 61 61 62 57 54 49 46 38 36 39 41 44 45 45 45 46 47 48 50 52 61 67 68 66 67 64 63 61 61 62 62

GFSCGP_prec_cthk_051.txt.gz
RH
40 30 27 22 28 34 38 43 41 40 48 49 49 45 45 51 60 43 50 44 38 43 44 45 44 43 49 54 64 68 70 70 71 73 67 64 63 65 63 60 58 58 56 60
43 33 25 31 34 40 44 39 34 46 49 51 52 49 44 54 63 48 43 40 36 37 40 44 44 40 43 46 50 58 63 62 58 54 48 52 53 57 57 53 51 55 60 64
47 28 32 39 38 41 35 31 31 43 45 47 44 57 53 58 66 65 51 41 39 31 32 39 38 40 37 40 41 43 45 47 46 43 46 50 58 56 52 49 47 51 56 70
49 33 43 42 42 39 28 32 36 39 42 48 43 46 56 62 60 59 52 50 44 38 31 30 35 36 35 34 35 38 40 43 45 47 46 47 49 52 51 46 50 55 65 63
43 37 42 41 39 35 30 35 43 42 42 40 44 45 47 53 63 63 60 55 50 43 39 40 39 38 36 36 34 36 37 38 40 43 47 54 62 56 55 58 61 70 69 79
45 41 43 37 37 37 36 41 42 42 43 46 34 51 54 54 52 54 50 55 47 45 45 40 41 45 46 44 38 37 36 37 40 42 48 59 70 80 77 68 73 79 90 88
44 46 45 40 40 41 37 43 53 63 56 54 51 53 49 45 37 41 37 41 43 41 42 45 42 46 46 49 45 42 41 41 45 49 50 58 74 73 75 71 74 82 75 75
50 51 45 40 39 40 39 43 57 69 81 62 50 51 45 39 40 40 41 40 44 43 39 41 44 43 43 39 42 45 46 48 51 56 57 66 75 73 71 78 71 69 73 65
50 47 46 39 40 41 42 47 41 63 72 74 60 53 47 45 43 41 41 44 45 41 41 40 42 42 44 44 39 40 46 47 50 52 56 62 66 67 74 71 76 69 68 66
50 53 50 39 41 39 37 39 55 61 75 92 59 54 56 50 44 39 40 36 32 38 46 42 40 40 39 40 49 57 56 48 53 60 63 64 65 64 66 74 68 65 64 70
51 54 52 47 48 42 43 41 47 60 65 70 63 56 51 48 44 45 37 36 35 34 38 44 45 42 41 48 60 65 69 91 81 71 67 70 71 76 74 87 78 74 77 78
53 58 58 48 48 44 45 42 42 64 62 69 68 54 48 47 45 42 41 38 34 31 30 29 33 43 46 52 61 69 71 71 59 56 68 80 78 91 78 94 78 71 76 82
57 59 62 57 51 50 50 46 42 48 60 76 76 59 49 52 50 47 44 40 38 34 32 29 25 26 32 48 54 55 60 57 58 68 89 85 88 85 76 67 64 64 70 68
56 58 57 53 54 56 56 47 43 48 64 69 69 45 50 51 53 44 42 43 40 38 38 34 31 27 19 26 34 42 48 51 60 71 65 59 60 64 56 58 59 65 69 71
62 55 54 52 50 53 55 52 47 47 47 56 49 53 46 42 41 46 49 44 38 42 41 37 36 34 30 21 22 34 45 50 54 51 43 43 51 51 53 60 63 66 68 69
59 61 56 57 51 53 53 53 55 53 52 54 55 54 43 35 44 43 41 47 41 44 38 32 34 32 32 30 23 23 30 34 35 36 43 43 45 54 58 63 67 70 68 62
69 60 64 62 55 56 56 51 54 55 51 49 48 40 41 45 45 49 44 43 40 38 35 29 28 33 39 42 42 37 42 44 43 40 42 46 52 62 64 65 66 65 59 50
85 68 68 73 66 69 46 42 46 56 55 51 50 44 45 45 46 44 40 46 44 43 36 33 30 30 32 37 43 42 44 46 48 51 54 60 63 63 64 62 57 49 43 41
92 77 74 71 68 57 47 42 46 54 55 53 48 45 40 41 43 46 46 40 43 40 35 32 29 29 32 36 38 40 45 48 51 54 65 70 66 65 59 52 46 41 38 37
87 82 76 83 76 65 48 43 42 54 53 52 47 43 42 36 45 46 42 42 40 37 32 23 23 29 33 35 37 42 43 46 53 58 59 58 57 52 50 46 41 38 39 42
86 93 90 92 87 66 52 42 45 58 43 46 43 36 35 39 43 39 43 41 37 34 24 22 26 31 35 36 37 38 42 44 42 43 46 45 48 48 42 37 37 40 43 46
95 87 91 91 93 82 63 55 54 46 42 44 41 40 39 45 46 44 45 40 36 29 25 24 26 30 34 36 37 41 40 38 39 41 44 46 43 40 37 38 40 42 47 50
86 80 71 69 67 69 64 66 65 66 62 55 54 52 50 51 54 58 57 45 37 33 32 29 28 32 36 38 40 39 41 44 46 46 47 44 42 40 40 42 44 47 51 53
62 57 62 62 59 66 64 65 66 70 68 61 62 57 55 50 50 52 55 52 48 43 40 37 35 35 39 41 42 44 45 47 49 50 49 46 44 44 45 47 49 57 61 60
57 54 47 49 48 58 60 64 67 69 67 67 63 61 59 58 53 51 53 57 53 51 48 44 41 42 43 44 46 48 50 51 52 53 52 51 49 49 52 58 68 71 68 68
48 45 47 50 41 61 63 63 61 66 72 71 70 63 61 59 58 55 59 61 57 56 56 52 52 48 48 48 50 52 55 56 55 56 58 59 60 61 68 76 77 75 71 69

GFSCGP_prec_cthk_054.txt.gz
RH
41 41 45 26 21 23 34 40 40 40 44 50 54 46 44 50 57 53 42 41 34 38 38 38 42 48 61 74 78 77 76 82 89 86 82 78 77 80 79 72 71 70 69 65
45 46 35 26 24 31 39 41 40 43 47 55 57 52 49 47 54 51 41 40 38 33 39 40 36 40 43 56 60 62 66 69 65 69 77 73 69 68 64 62 62 63 62 61
46 49 33 34 37 40 39 38 32 43 45 52 50 55 55 50 56 57 51 42 42 32 29 36 36 35 37 41 49 55 57 54 57 59 60 57 56 55 52 51 51 56 58 59
44 50 37 41 42 39 36 36 34 39 45 49 46 49 49 51 50 56 53 51 45 43 33 32 33 32 32 34 39 43 46 45 46 48 44 45 45 45 46 46 46 43 42 43
40 50 47 43 41 40 35 36 36 39 41 44 43 45 40 52 58 56 56 57 49 45 42 37 40 37 29 31 34 36 38 39 40 41 41 43 46 47 48 49 48 48 50 57
39 44 43 40 45 38 35 34 39 44 44 49 40 46 43 54 55 48 54 57 59 48 49 40 37 42 42 36 32 33 33 35 38 37 38 43 50 54 53 53 59 61 61 69
40 43 44 41 46 41 37 41 48 51 58 53 47 47 38 47 45 41 42 40 46 46 49 45 43 40 44 43 41 38 37 39 42 45 49 52 57 64 71 75 71 70 71 71
47 48 44 41 47 43 39 41 51 54 67 58 55 52 42 42 44 39 39 38 41 43 45 48 50 49 43 42 43 45 44 43 44 46 49 53 62 71 73 73 77 73 68 74
48 45 40 43 48 47 41 40 38 53 57 62 62 55 46 45 43 41 40 39 39 40 39 46 49 48 52 49 47 46 43 41 40 43 46 51 59 65 70 75 73 74 64 57
45 53 47 45 48 49 46 43 51 56 64 59 61 65 57 47 44 42 42 38 42 34 36 40 44 49 47 47 51 54 53 50 46 47 55 63 66 67 68 66 68 84 82 81
50 54 51 51 50 50 47 45 47 52 57 56 57 57 54 51 44 39 38 42 37 35 33 34 39 41 44 45 51 58 65 73 75 75 66 70 74 78 79 79 71 81 92 91
50 53 52 50 51 48 47 47 46 55 54 54 60 49 52 47 47 42 43 40 37 36 35 33 32 35 38 40 45 48 56 62 68 67 69 59 72 84 89 93 94 86 70 81
56 53 61 57 54 53 50 47 46 52 51 54 63 50 43 53 47 42 40 42 43 39 36 37 35 33 34 34 40 44 44 46 56 67 74 62 69 66 85 83 74 73 68 68
64 55 50 51 55 54 56 52 47 52 62 54 51 42 50 56 52 48 48 47 49 45 41 39 38 38 36 33 30 31 34 38 48 56 61 59 60 58 68 70 66 62 65 68
73 57 57 56 57 58 55 57 54 53 53 55 46 44 39 53 43 43 46 45 45 44 46 43 39 44 35 38 37 35 31 26 33 41 48 56 54 60 66 68 65 65 65 68
79 76 61 62 59 61 61 54 55 57 58 56 55 49 37 42 44 46 45 46 44 38 38 42 40 39 32 29 25 26 31 28 31 37 45 51 53 62 68 63 67 70 71 73
88 88 86 61 62 61 66 52 56 56 59 59 56 54 50 44 49 44 41 42 39 45 42 40 39 35 31 31 28 25 30 37 40 48 51 50 54 55 59 65 73 72 71 72
78 92 90 75 70 76 37 48 51 52 51 55 52 52 48 48 45 40 39 49 37 39 42 38 41 40 35 32 30 29 28 36 42 44 49 52 54 58 61 65 73 75 74 69
59 86 98 91 74 55 49 51 50 56 50 52 57 57 50 49 48 45 43 43 46 43 40 37 39 41 33 32 30 29 34 42 46 42 50 56 59 57 61 64 66 69 61 52
58 72 89 95 95 72 41 53 54 53 55 48 51 57 60 52 53 47 44 40 41 42 40 41 38 35 35 30 28 30 35 40 40 46 50 55 62 69 66 67 66 54 51 49
64 79 90 97 98 80 61 57 56 64 48 51 53 55 56 57 51 47 45 46 44 44 39 37 36 33 32 26 29 31 35 39 43 48 47 48 53 59 60 54 52 51 46 40
63 80 87 97 98 92 69 67 61 59 55 52 51 51 51 51 53 49 47 43 43 44 42 39 39 39 34 30 31 34 38 41 42 44 47 50 49 45 45 49 50 46 41 41
56 45 76 87 97 77 68 70 73 61 61 56 55 54 53 52 52 50 47 45 44 45 40 38 39 39 37 36 35 36 38 39 41 45 45 42 43 46 49 49 48 47 46 48
48 45 66 73 60 63 57 64 65 62 65 68 66 65 59 57 59 61 56 52 54 56 56 52 50 49 43 40 40 43 45 46 47 45 45 46 48 50 51 52 52 52 53 55
52 61 52 65 58 61 55 47 47 61 66 65 71 73 67 64 58 59 62 58 57 53 52 55 56 54 52 48 45 45 47 51 51 51 51 53 55 57 57 60 63 63 65 66
84 79 68 60 57 56 50 44 41 46 59 65 67 73 72 68 67 68 63 64 63 58 59 59 58 58 59 61 62 61 59 54 54 56 59 61 63 65 66 66 70 74 78 81

GFSCGP_prec_cthk_057.txt.gz
RH
40 38 46 44 43 29 24 29 40 40 39 40 45 47 47 41 49 50 39 39 35 35 37 36 38 56 71 77 81 81 89 91 92 88 88 93 94 90 84 83 95 90 84 80
42 38 45 42 39 30 30 33 39 41 41 42 43 48 46 42 46 52 41 37 34 37 36 34 32 46 58 64 70 74 81 90 93 94 95 94 96 94 92 90 90 87 86 81
43 41 44 43 36 31 32 39 38 39 37 38 42 44 48 41 46 48 46 38 33 31 37 33 31 33 45 54 56 57 62 67 78 85 88 85 81 78 77 78 81 78 73 72
46 40 48 48 35 33 40 38 38 36 36 41 40 44 39 42 44 48 45 44 37 33 31 27 27 27 29 38 45 45 47 55 59 62 64 64 64 63 67 68 71 67 64 65
43 43 47 51 39 45 37 44 40 40 40 42 42 44 36 44 46 45 50 46 41 35 36 35 33 27 24 28 33 36 37 42 47 50 54 56 54 54 55 59 59 55 54 52
43 44 48 49 46 48 41 45 41 46 45 47 41 43 38 41 39 44 46 49 46 40 37 36 39 38 33 25 27 31 32 32 38 44 49 51 52 55 55 56 56 56 58 56
42 42 43 45 49 47 46 46 51 50 55 49 45 46 37 29 32 39 38 42 42 44 40 36 36 37 38 38 34 34 31 30 33 35 39 45 52 58 59 59 57 58 58 59
44 47 41 42 44 48 50 50 54 51 57 47 48 47 39 36 37 37 35 35 39 42 42 41 40 41 37 37 36 38 36 37 39 40 40 41 46 51 54 60 64 60 63 66
50 46 42 43 47 44 51 55 47 55 58 61 50 41 34 39 37 36 37 35 37 40 41 41 44 45 47 45 42 40 38 38 38 39 42 46 48 54 57 63 70 72 75 77
45 51 44 43 48 47 51 54 58 59 64 61 47 44 42 44 42 40 38 39 38 43 40 42 46 49 53 51 50 51 50 44 42 40 40 41 48 53 59 66 71 76 77 85
47 50 48 48 48 49 53 53 54 56 60 59 55 45 38 44 46 45 38 33 36 38 33 35 37 42 46 51 52 57 60 62 61 59 58 61 59 59 66 65 70 73 76 82
50 52 52 49 49 50 51 56 56 63 60 61 59 39 37 44 42 44 43 37 37 33 31 32 33 36 39 43 47 45 52 60 67 68 72 75 78 72 74 77 79 84 84 79
62 55 57 56 57 55 54 55 54 57 58 60 60 45 34 40 42 40 35 35 34 35 35 37 35 40 39 35 35 38 41 43 47 56 70 72 74 77 71 64 73 92 78 70
68 65 61 56 59 57 57 53 53 54 60 55 53 44 35 36 42 40 39 43 42 40 40 40 37 36 38 37 35 36 36 35 34 36 49 53 55 67 68 67 65 85 83 72
69 76 69 57 53 58 57 58 55 55 53 55 47 50 37 38 39 41 51 52 47 43 40 40 43 39 40 42 38 32 30 30 30 30 34 38 45 54 68 62 63 68 78 68
78 80 73 64 56 57 60 56 54 53 56 57 57 52 48 41 41 42 44 49 45 39 38 40 40 42 38 45 42 36 30 28 27 30 33 35 42 53 63 68 64 70 67 70
68 80 86 81 76 65 60 49 57 56 55 57 62 57 52 46 41 45 43 48 45 44 44 43 42 44 39 40 40 40 34 33 30 26 32 36 44 54 64 66 71 73 71 75
73 69 89 94 88 91 46 49 50 57 55 54 56 56 54 51 44 43 45 41 42 42 42 38 40 44 40 41 39 39 38 35 33 28 35 42 45 52 55 58 61 61 67 70
54 64 87 87 92 83 61 57 57 60 54 55 54 54 54 54 47 43 40 39 38 40 37 41 42 45 45 40 37 38 38 35 32 31 44 48 44 47 54 59 65 67 72 80
52 60 73 82 83 80 57 63 62 65 58 50 49 55 56 54 55 49 43 44 45 41 38 42 43 45 49 45 39 35 36 36 31 33 38 45 46 48 54 58 61 70 78 80
63 72 73 81 82 66 55 58 65 79 52 55 55 55 53 55 50 52 53 51 47 46 44 43 44 44 43 41 39 41 39 36 34 35 40 44 51 52 54 57 63 69 75 72
54 64 61 62 74 69 55 54 74 83 74 62 62 63 58 54 48 48 51 54 51 51 48 43 41 40 40 40 39 41 44 43 45 44 46 50 50 53 58 63 67 66 59 57
50 48 56 61 59 46 43 54 70 89 89 73 65 60 60 57 56 51 49 49 50 53 53 50 47 44 45 47 47 49 50 49 49 51 55 57 58 61 64 64 59 58 60 61
49 49 48 53 35 31 30 42 54 69 82 72 72 69 68 62 60 56 53 50 57 58 57 59 56 54 56 57 61 62 59 58 54 54 56 58 61 65 63 60 59 61 63 65
55 57 56 50 43 41 34 52 59 66 69 61 63 64 72 76 73 68 66 64 63 64 67 68 66 64 59 59 64 70 70 66 64 66 65 65 65 64 64 64 65 66 68 69
65 65 64 63 71 79 56 62 59 59 61 58 60 63 70 74 75 73 74 73 70 70 72 72 71 72 70 70 72 73 75 74 73 74 78 78 77 78 79 76 74 75 77 81

GFSCGP_prec_cthk_060.txt.gz
RH
42 42 40 44 48 39 38 35 29 31 36 36 37 44 39 40 44 49 48 35 34 37 37 37 43 56 71 79 87 90 88 90 91 89 85 80 83 82 82 83 82 82 85 82
42 40 43 46 47 41 42 39 33 32 36 39 37 39 38 41 41 47 48 38 32 35 40 38 37 49 60 67 77 82 86 88 88 90 94 86 85 88 83 85 84 86 84 86
41 39 45 46 48 44 46 39 32 36 39 38 37 35 37 38 40 45 46 41 36 31 35 40 34 38 51 55 57 67 76 85 93 92 94 91 87 87 86 92 88 85 87 93
42 39 43 44 45 45 48 34 33 39 43 46 39 43 33 34 38 42 42 45 40 33 30 31 30 28 34 47 50 51 57 67 81 92 96 94 89 88 91 91 89 90 86 93
43 42 43 48 46 47 44 35 44 46 46 42 37 41 33 37 35 37 41 43 41 37 33 36 34 25 25 31 37 40 48 51 59 67 71 74 75 77 81 79 77 77 80 81
47 45 47 44 46 49 42 47 52 53 47 51 39 40 37 32 33 32 36 41 43 42 36 34 40 36 24 23 28 32 35 44 47 49 52 55 58 57 61 63 62 64 63 65
49 46 46 46 48 50 49 56 64 61 62 56 42 43 34 30 30 34 34 35 36 41 39 37 34 37 37 30 26 29 30 33 40 43 50 54 51 49 50 50 53 54 55 56
50 49 45 45 46 50 53 58 67 62 64 51 49 48 33 34 30 33 35 33 31 32 38 39 39 38 37 35 36 33 35 35 38 40 42 44 50 54 54 58 57 55 58 63
52 49 42 42 43 47 53 60 57 65 69 70 55 41 30 27 29 33 34 33 31 32 31 33 37 40 42 41 39 37 38 38 39 42 42 42 45 49 52 55 59 60 59 60
46 52 46 43 44 44 48 54 65 68 74 76 60 51 35 31 32 34 35 35 35 37 38 37 34 39 44 49 49 46 44 41 40 39 40 42 45 47 53 55 56 59 64 64
44 46 46 49 50 51 52 54 56 59 67 66 65 56 34 32 36 40 38 36 35 35 36 36 34 35 42 48 50 51 51 52 51 49 49 50 50 56 55 54 54 69 71 73
49 51 51 47 49 49 51 56 55 65 64 68 66 49 36 36 44 42 42 35 32 32 32 30 29 31 33 36 36 43 53 54 57 60 62 61 64 62 69 69 65 69 73 78
71 63 62 60 52 50 51 49 52 58 59 62 65 57 42 41 41 47 43 39 35 32 32 32 33 36 38 36 35 33 36 38 45 53 54 55 59 62 63 70 69 68 67 75
67 73 68 64 57 56 55 52 50 53 62 61 62 55 48 42 40 40 43 44 37 36 34 35 34 36 36 37 34 33 33 33 35 37 39 38 41 48 52 62 73 75 73 72
69 72 78 70 65 61 56 56 57 57 56 60 56 59 52 46 45 41 41 42 48 47 45 38 40 38 37 39 38 39 35 31 32 31 31 27 30 37 44 47 59 74 80 69
64 73 77 76 69 62 61 60 60 59 59 57 58 58 55 48 48 46 42 42 42 45 53 50 38 35 35 37 38 38 38 38 36 28 26 26 26 35 40 48 55 68 74 75
75 73 75 76 72 64 59 60 64 64 61 57 56 54 53 50 51 50 48 47 46 44 48 52 49 42 39 36 41 40 40 41 38 34 29 29 25 30 36 45 53 60 71 75
75 82 80 86 75 88 65 56 58 57 56 59 60 60 58 56 51 52 51 49 46 45 43 44 45 45 42 37 41 47 45 47 41 38 34 32 26 33 41 46 53 62 68 73
65 82 89 82 72 63 60 64 58 62 55 59 58 54 52 57 52 52 52 52 50 47 41 39 42 48 48 44 42 44 47 47 48 42 40 39 29 39 47 53 52 58 65 71
50 71 74 83 82 71 45 53 61 52 46 53 61 60 58 58 57 55 54 56 55 51 50 44 47 48 47 44 46 42 43 44 47 47 43 43 38 40 45 52 52 59 63 66
57 59 68 71 68 60 46 39 52 62 48 52 56 68 67 64 63 58 53 51 56 56 53 52 48 47 47 47 48 50 52 48 47 49 46 53 47 47 47 49 52 55 57 60
64 69 69 70 74 59 38 39 45 50 54 63 64 63 66 67 64 63 57 52 54 55 55 56 52 51 50 50 51 52 50 46 49 52 54 60 57 52 54 56 57 59 59 61
53 53 59 57 49 38 41 41 38 40 47 50 69 69 71 73 68 67 61 61 55 52 53 55 52 52 53 54 54 53 57 59 60 62 64 63 60 60 57 58 57 59 66 71
55 55 54 47 35 37 38 42 42 44 44 49 50 69 70 79 73 70 68 63 61 57 54 59 65 61 60 60 63 62 65 65 72 76 74 71 69 67 68 69 71 77 78 79
59 57 54 49 45 42 40 46 48 43 47 50 53 57 70 68 66 78 79 74 69 69 64 68 68 74 67 65 77 75 73 72 73 73 72 73 75 77 79 81 87 90 89 87
70 67 64 57 56 52 46 50 51 54 52 55 58 63 67 68 76 72 73 81 76 79 78 76 77 82 81 80 81 81 81 83 86 83 81 82 85 86 86 85 86 92 94 95

GFSCGP_prec_cthk_063.txt.gz
RH
52 48 39 38 41 42 42 42 37 33 33 31 32 32 33 38 44 45 47 49 41 36 36 39 37 47 62 81 80 87 90 97 84 92 84 80 88 87 92 92 89 86 86 89
50 45 44 46 43 41 42 40 38 36 35 35 34 31 30 37 41 41 43 45 45 36 35 41 37 42 53 74 80 85 88 87 89 92 90 90 90 83 85 91 92 87 88 89
45 44 44 48 48 44 44 43 44 39 35 39 37 31 29 32 41 40 43 46 44 36 31 33 32 35 48 51 65 77 83 85 83 89 94 90 90 88 87 90 90 89 90 90
44 42 40 45 46 44 42 44 45 41 36 40 38 36 29 27 33 35 39 42 45 39 33 30 30 28 35 46 47 53 61 72 83 90 92 93 91 86 88 90 94 90 91 87
49 47 42 45 42 46 41 47 47 39 41 46 40 37 27 28 29 31 34 39 40 40 34 32 35 25 23 33 38 40 49 58 70 78 92 94 87 87 90 89 90 91 92 91
53 49 45 41 44 44 45 48 46 43 52 54 41 38 28 29 29 30 34 37 40 43 40 33 36 37 23 23 29 32 38 46 50 59 67 74 73 74 77 82 82 86 87 87
58 51 50 47 46 47 47 49 51 57 62 56 47 41 28 27 27 29 35 36 38 40 41 42 34 34 35 25 25 30 33 36 41 48 53 57 60 62 63 67 69 76 76 79
61 60 51 49 49 47 48 48 55 61 63 57 55 45 30 26 28 32 33 38 37 36 36 37 37 32 31 34 30 30 31 33 35 39 46 53 54 53 55 58 58 63 66 66
55 55 52 50 50 50 53 53 49 61 69 65 56 47 36 26 26 31 36 39 38 36 33 32 37 38 37 33 32 32 32 33 37 40 42 45 47 50 51 52 59 61 61 61
44 52 54 51 51 52 52 53 57 62 62 67 60 55 43 32 28 29 34 37 36 38 37 35 36 35 36 39 39 38 36 35 35 38 41 42 43 45 48 51 55 60 61 64
41 45 56 56 53 52 51 52 54 55 59 60 59 53 47 39 28 34 37 40 37 38 38 39 42 41 39 41 44 46 43 42 43 42 44 45 48 51 53 54 58 56 58 58
46 52 53 52 54 54 55 50 50 56 64 67 63 52 45 45 35 34 41 40 41 39 38 36 39 39 37 38 40 40 43 43 45 49 52 53 51 53 59 60 63 63 61 64
69 57 60 58 56 56 55 54 54 55 57 55 61 52 45 51 46 37 38 44 46 43 40 40 35 34 35 39 41 42 41 43 45 48 48 49 52 51 53 60 59 66 68 62
79 82 67 61 65 65 61 57 54 53 61 59 56 52 49 49 53 46 38 42 45 46 45 44 41 36 39 42 41 40 34 36 37 38 38 37 37 39 41 41 50 56 66 70
72 82 81 82 76 74 68 62 59 56 54 56 53 55 51 51 54 52 47 38 39 40 39 40 44 45 44 42 41 42 38 39 38 37 37 31 28 31 36 38 40 41 49 65
71 81 77 68 72 75 72 65 58 57 59 61 61 59 56 54 57 57 53 48 43 33 31 35 42 44 44 45 44 43 41 43 41 40 35 35 34 30 25 30 36 44 47 57
73 84 80 68 68 61 66 63 62 65 67 66 68 65 60 58 57 57 59 56 53 44 40 37 38 39 48 45 41 42 43 45 45 42 43 42 39 36 33 29 33 35 40 47
62 84 86 81 69 62 57 61 59 59 64 64 62 63 61 57 55 54 57 58 56 55 54 48 43 39 39 42 43 42 41 45 44 44 43 42 44 41 36 34 33 40 48 51
56 64 86 78 72 65 53 60 63 66 63 64 60 59 58 56 52 53 60 59 59 56 56 54 52 48 44 43 41 43 41 45 46 47 45 45 48 47 46 40 41 45 50 57
54 55 68 75 73 69 56 57 59 58 54 54 60 55 50 49 55 61 60 60 58 55 59 56 53 50 48 48 47 48 45 44 50 49 52 57 53 50 48 50 48 48 51 54
56 59 60 75 71 61 53 53 52 51 44 42 47 50 55 54 56 60 65 63 61 61 58 59 59 55 52 51 52 53 50 47 51 55 59 63 61 57 55 58 54 52 51 55
63 61 62 60 68 67 50 55 52 42 35 43 41 36 42 55 58 57 58 63 64 60 56 55 55 56 55 55 54 52 53 55 57 62 64 64 63 62 63 71 72 63 58 59
62 60 62 59 57 55 57 53 47 41 37 35 36 31 38 52 60 64 65 66 63 60 61 61 59 60 59 59 59 59 61 63 64 63 65 65 67 71 75 72 64 67 62 65
55 53 54 51 46 46 45 47 47 42 38 37 38 44 48 53 61 68 70 72 74 73 70 64 63 67 68 64 63 60 60 66 70 70 71 74 76 84 79 74 73 75 81 84
55 56 55 54 50 49 49 51 48 42 40 40 41 45 49 52 57 67 69 75 78 80 78 76 70 73 78 77 73 73 72 71 71 75 82 85 85 79 78 80 80 81 86 90
67 66 63 60 63 59 53 52 52 51 48 51 47 51 52 56 67 73 78 74 79 79 80 88 87 83 84 86 85 87 88 89 88 89 94 88 85 85 86 87 88 92 95 97

GFSCGP_prec_cthk_066.txt.gz
RH
49 52 46 39 39 40 38 38 37 36 37 33 33 26 25 31 35 40 42 44 44 42 33 32 36 34 50 72 82 79 75 91 92 93 94 94 96 96 93 94 89 78 83 85
56 52 48 47 46 44 43 39 37 38 39 35 31 31 25 30 31 38 46 45 45 46 34 32 35 34 45 66 78 78 76 86 87 81 87 85 86 97 95 90 89 84 84 86
52 50 53 52 50 48 44 41 41 42 42 38 35 33 28 28 28 32 40 42 44 46 35 29 31 30 40 49 67 77 79 83 86 83 87 91 84 89 95 89 85 82 81 86
59 49 52 52 51 49 46 44 43 42 42 37 40 36 32 30 28 28 34 37 41 42 39 31 32 28 33 38 48 55 67 77 82 86 86 89 81 83 92 92 91 84 84 90
58 53 49 47 45 48 45 46 46 45 42 39 37 39 28 26 24 25 30 32 38 38 43 32 33 32 26 33 33 38 49 55 66 78 85 87 91 89 93 93 89 86 86 94
67 58 50 44 47 47 47 48 48 47 45 45 40 41 31 25 26 27 30 31 35 40 45 38 33 35 31 27 30 32 36 43 53 67 82 92 93 94 91 87 85 90 95 94
74 60 57 51 48 48 48 47 53 53 53 42 42 45 35 27 25 27 30 31 35 38 45 45 35 33 31 31 29 29 31 35 41 50 59 69 78 75 78 74 74 81 88 92
67 69 59 55 50 52 46 45 48 54 53 49 50 47 37 30 27 27 30 31 34 39 41 42 41 32 32 33 31 31 33 35 36 38 46 53 55 56 62 61 69 74 75 77
63 65 63 59 54 51 51 51 49 54 59 55 51 43 42 32 28 28 30 35 37 39 36 41 41 37 34 35 35 33 34 35 37 38 40 45 48 50 54 54 58 63 65 70
57 59 60 64 61 56 56 54 55 55 62 62 53 47 47 40 33 29 34 39 39 39 38 40 39 42 41 39 36 36 36 36 38 41 41 40 43 47 50 51 50 52 56 60
51 51 61 57 60 58 58 57 56 54 53 57 59 52 46 47 41 31 35 36 38 39 40 40 42 45 46 45 42 39 40 42 40 40 44 47 49 50 50 56 55 59 62 60
60 62 63 58 58 55 55 56 56 58 62 58 60 56 47 50 47 35 37 38 40 41 41 41 43 46 48 44 43 43 44 45 43 42 43 43 47 51 55 58 60 64 64 66
65 57 56 56 56 57 58 57 53 54 54 59 65 53 48 50 50 44 38 42 44 44 43 45 45 43 45 46 41 42 44 44 47 47 46 46 47 47 45 45 49 59 65 68
78 70 52 48 49 57 58 56 56 58 60 56 52 51 49 50 50 49 43 44 48 50 51 48 47 45 42 41 42 45 46 46 46 48 48 47 44 42 43 43 41 42 47 55
79 93 79 69 68 65 68 68 63 59 58 59 57 55 52 50 49 48 50 44 45 50 52 49 48 46 45 41 43 46 48 44 41 44 46 42 41 41 41 41 42 43 43 43
80 90 81 78 72 69 71 67 65 64 63 62 60 57 54 52 52 52 51 54 50 46 47 50 49 48 44 46 45 46 47 46 42 42 38 40 40 37 33 34 33 34 38 42
71 85 82 74 67 65 73 72 70 68 65 65 65 63 58 60 60 59 60 59 55 49 46 45 46 47 46 46 48 50 46 51 48 44 43 46 45 45 42 40 40 37 33 37
66 78 80 82 77 77 66 64 67 68 70 68 66 66 63 61 57 58 59 58 57 57 50 50 48 43 40 41 47 55 55 51 49 49 49 48 47 49 50 50 48 48 46 39
58 68 76 72 75 68 62 70 64 63 73 70 66 62 60 56 50 51 53 57 59 58 57 55 52 49 49 47 45 42 52 57 56 50 47 49 53 54 57 50 52 54 54 50
58 56 68 79 70 64 57 64 68 65 59 54 56 54 51 51 54 49 48 51 56 56 55 56 53 56 53 52 49 46 44 48 52 52 51 53 53 57 59 61 59 58 56 54
60 57 58 68 69 63 55 58 59 53 62 58 53 49 46 45 48 52 52 52 52 56 58 55 58 59 58 57 57 52 49 51 53 55 56 58 60 63 66 67 68 58 61 63
53 54 56 53 65 75 59 52 48 57 54 54 50 50 47 41 36 42 47 51 55 54 54 57 61 60 59 58 59 61 60 57 58 57 58 57 59 62 66 72 75 77 79 71
70 57 64 56 55 56 59 58 57 52 53 51 44 42 40 35 37 42 47 50 57 60 62 60 59 62 64 64 61 61 61 63 66 66 69 67 68 73 76 80 80 80 76 80
56 56 59 60 60 61 58 54 48 47 46 44 39 36 35 35 42 47 49 54 60 62 71 70 68 64 70 72 72 68 67 69 74 75 75 78 79 81 81 81 81 81 84 85
61 57 55 54 52 54 55 54 52 50 47 43 40 38 40 40 42 46 46 52 62 67 68 77 75 74 76 79 87 84 79 79 78 80 79 79 81 83 84 86 89 90 91 87
66 62 61 61 67 64 63 58 55 53 52 50 48 46 46 49 50 50 51 55 62 69 77 78 76 71 76 87 92 94 91 87 88 87 85 83 82 82 84 85 89 93 92 91

GFSCGP_prec_cthk_069.txt.gz
RH
42 52 47 43 41 41 37 38 40 41 38 36 36 37 38 35 39 33 37 40 45 44 43 35 28 31 32 47 69 74 80 83 87 93 95 94 96 98 98 95 89 87 86 82
45 43 47 51 52 48 40 38 40 41 38 35 36 32 32 29 36 38 39 41 43 43 45 36 27 27 32 46 65 74 76 76 89 89 91 92 94 96 96 94 90 91 85 79
63 46 51 57 57 54 48 45 43 44 41 38 37 36 36 31 31 34 31 31 42 43 45 38 30 27 30 41 56 72 73 72 83 82 79 84 86 91 91 90 90 87 84 84
77 58 61 59 57 56 50 46 46 45 44 40 37 34 38 35 38 37 34 30 33 41 40 37 31 29 24 32 45 54 65 75 79 82 82 81 87 84 84 85 89 87 80 80
85 70 58 63 59 59 52 52 49 48 46 44 38 35 35 35 34 34 27 31 35 38 37 38 31 30 27 27 31 39 49 55 61 69 79 81 83 93 88 86 87 90 83 83
82 78 73 58 55 59 52 54 52 50 49 48 40 41 38 37 36 32 28 30 38 40 38 42 37 31 31 31 27 30 36 44 50 58 70 84 87 88 87 88 88 88 87 85
83 80 73 70 53 59 50 54 56 57 55 49 43 41 37 38 34 30 31 32 37 37 38 44 41 34 31 31 30 29 30 33 40 46 56 70 85 87 88 89 94 86 83 84
93 86 73 66 56 56 54 54 53 59 59 47 46 44 43 43 39 34 29 31 32 35 39 44 41 37 33 28 29 31 31 33 36 39 44 51 58 66 67 71 76 78 74 76
80 76 72 73 64 59 56 52 49 53 61 58 50 45 45 46 36 31 32 35 35 33 40 42 41 38 34 31 29 29 30 36 35 37 40 45 49 52 55 56 58 61 62 68
75 75 70 79 70 63 61 57 54 52 67 67 55 50 48 43 43 38 36 42 39 37 41 40 40 40 37 33 34 33 32 31 37 37 39 42 45 47 50 49 48 49 51 56
69 68 75 69 73 67 62 59 56 55 55 60 59 56 50 47 49 46 45 41 39 42 42 42 43 42 42 41 37 36 34 33 37 37 39 43 47 50 54 54 54 54 49 49
66 67 75 70 64 66 66 61 60 61 60 53 59 65 49 49 53 50 48 39 39 39 44 43 46 47 46 47 43 38 37 37 40 42 38 38 41 46 51 55 60 62 63 62
89 71 69 73 71 62 67 65 61 61 64 80 71 57 55 53 47 50 48 46 45 45 42 44 47 49 48 50 50 45 40 40 40 42 43 42 40 40 42 46 50 55 57 58
81 81 77 71 68 61 62 59 59 62 65 61 65 60 54 52 50 53 52 48 51 55 51 49 49 49 50 49 49 50 44 45 47 47 46 44 43 43 44 45 45 46 44 46
83 91 89 69 77 68 67 63 60 59 60 60 58 55 50 53 53 52 54 52 48 49 50 52 52 52 54 50 50 49 47 47 48 49 47 42 47 49 49 47 47 47 45 45
88 90 98 82 70 67 64 60 60 62 64 63 62 61 60 59 59 57 55 54 53 52 58 54 53 57 57 58 55 53 53 49 51 49 46 47 46 48 50 48 46 45 44 43
80 92 96 95 83 74 73 67 71 71 67 67 66 67 67 66 61 61 59 61 59 58 56 53 54 55 56 57 56 57 57 58 54 51 52 51 52 49 46 46 44 43 42 45
75 84 88 96 88 88 81 71 67 74 74 70 72 70 69 63 62 64 62 62 64 63 65 64 58 53 56 56 55 54 56 57 60 58 57 55 55 52 51 51 51 54 52 48
69 74 87 88 88 88 68 72 76 83 79 67 72 73 68 59 56 67 66 59 53 61 63 69 64 59 55 56 54 50 47 49 56 59 64 63 60 57 56 54 53 52 53 53
67 66 76 84 93 85 73 77 81 72 84 67 66 65 61 56 52 61 57 55 50 49 54 58 62 66 65 65 62 60 54 52 55 58 60 66 71 68 68 60 60 57 54 57
66 68 68 74 75 63 68 68 67 73 87 77 73 68 64 59 57 53 47 44 45 50 51 49 51 57 64 64 65 70 66 63 61 60 61 62 67 69 70 70 72 70 69 67
57 58 59 65 71 71 68 60 65 81 78 75 68 63 56 48 45 43 43 46 51 51 51 51 51 53 55 61 67 66 68 69 67 68 64 62 64 67 70 72 73 76 77 78
70 50 59 47 52 61 70 77 73 71 69 65 57 51 47 42 36 36 40 48 49 49 42 42 48 51 57 58 63 67 69 71 73 71 71 69 70 73 75 78 78 82 84 85
71 76 65 77 66 80 69 71 64 64 59 54 49 43 36 35 37 38 41 45 44 44 44 47 50 52 58 59 64 69 71 77 78 77 77 79 78 80 83 85 87 87 94 93
78 64 59 66 82 74 68 66 58 55 50 48 46 46 44 42 40 39 42 44 45 45 44 46 53 58 60 63 67 71 80 82 83 85 86 86 85 85 87 90 94 93 96 96
67 68 64 73 75 69 70 66 60 55 54 52 51 49 49 47 46 46 46 48 50 51 53 56 57 59 66 68 67 69 74 85 88 93 92 97 96 92 92 94 95 98 97 97

GFSCGP_prec_cthk_072.txt.gz
RH
39 48 54 58 46 46 41 40 37 37 37 39 39 36 35 36 38 39 40 36 44 45 45 43 42 27 26 31 43 61 66 75 79 79 84 89 89 90 93 94 95 95 91 91
59 47 53 54 53 48 43 43 45 44 42 43 40 36 36 35 36 37 40 40 42 49 46 42 39 27 24 29 44 60 68 70 75 77 85 88 88 91 93 97 96 96 93 87
78 67 63 64 54 58 47 47 46 44 43 43 38 36 37 35 33 32 38 37 43 48 44 42 37 28 26 26 41 56 70 68 73 81 78 80 87 88 89 92 92 90 90 87
85 84 69 69 64 54 52 50 51 48 49 48 42 40 39 36 36 31 32 33 31 38 42 40 36 31 28 26 34 47 57 67 72 77 76 74 77 79 83 82 85 85 86 79
82 89 81 78 71 59 54 62 66 56 51 48 43 42 37 37 39 36 38 37 33 32 37 37 36 34 27 26 28 35 45 50 57 64 69 74 76 77 81 75 75 76 82 83
71 80 87 82 74 68 66 70 76 62 56 53 44 45 40 40 39 37 36 33 29 33 37 38 37 38 30 27 27 28 34 40 46 53 61 69 77 78 78 81 74 77 82 83
72 76 87 86 81 73 71 81 87 74 62 54 43 47 38 40 40 36 34 33 30 34 38 38 38 39 34 27 27 28 31 35 38 43 51 62 73 83 82 80 78 78 82 80
76 87 79 84 81 80 69 76 70 76 64 53 43 45 37 40 38 40 36 29 35 35 37 35 38 39 34 31 27 27 29 32 38 42 44 52 60 72 81 82 81 79 78 75
78 82 79 82 82 84 77 69 58 65 67 70 48 42 45 42 39 39 38 32 32 34 34 36 39 38 34 30 27 27 28 30 33 39 42 48 52 55 59 63 64 67 66 63
78 92 78 81 82 83 82 69 72 62 75 87 60 53 49 45 39 37 38 41 40 42 35 40 41 38 35 31 29 32 31 29 30 34 38 44 46 49 53 55 55 58 60 61
77 93 80 88 92 84 76 71 72 65 59 72 74 63 67 56 46 43 47 48 45 38 39 41 43 40 40 36 35 35 34 33 30 32 34 38 44 50 50 49 50 54 54 56
87 87 79 74 71 83 77 74 72 74 70 61 65 62 55 52 52 51 45 49 45 38 42 45 46 45 43 42 42 38 36 33 34 34 35 35 36 41 46 50 54 58 59 61
86 87 79 76 71 85 84 79 76 76 76 73 83 57 56 57 56 50 47 52 54 47 40 47 49 51 49 50 48 47 44 40 37 39 38 38 38 37 39 41 44 46 51 54
85 85 84 81 85 92 87 75 77 80 89 81 76 63 67 61 56 51 52 52 56 60 58 50 51 53 55 53 52 50 50 48 43 41 42 41 42 41 39 41 41 43 46 48
86 95 94 89 85 85 91 82 79 79 77 75 65 72 72 66 60 55 55 54 53 54 59 59 58 58 55 56 56 57 54 52 50 49 47 45 47 45 43 44 45 48 48 48
85 92 90 81 81 84 97 78 77 81 78 68 61 67 66 66 63 61 59 57 57 58 59 61 60 55 55 61 56 55 57 57 55 53 50 51 52 51 48 47 50 52 51 49
77 88 97 93 93 89 80 82 80 76 70 73 73 76 68 67 65 67 64 63 63 64 64 64 63 59 57 57 60 61 66 61 58 56 57 56 55 54 54 57 59 53 51 49
74 87 95 96 94 89 68 72 71 76 78 74 79 80 75 70 73 71 68 67 69 69 69 68 66 62 63 62 63 63 59 61 68 65 65 64 62 61 61 60 59 60 61 56
64 81 90 97 92 87 76 89 84 76 88 91 85 80 73 65 75 72 67 68 68 66 63 67 71 68 69 67 63 62 64 63 61 71 74 71 67 67 66 64 64 64 66 66
58 75 86 91 92 94 81 87 92 91 98 86 85 78 73 71 81 81 76 70 66 63 61 58 57 63 69 72 70 69 64 63 60 59 61 63 68 65 67 69 67 69 68 68
59 72 82 85 93 71 70 85 81 94 93 91 84 76 73 70 68 67 58 55 59 61 61 55 57 57 51 56 62 68 72 70 72 71 67 67 68 69 73 74 75 76 77 73
68 69 79 75 80 79 77 85 81 89 91 86 79 74 70 66 62 57 55 57 55 52 48 50 50 46 47 51 53 58 63 69 70 72 72 75 74 76 77 77 82 80 78 83
77 60 67 58 57 69 76 78 81 84 83 76 69 65 65 63 58 51 50 46 44 44 45 45 45 45 45 45 48 52 56 60 68 72 75 79 79 79 82 82 85 89 87 87
81 69 77 71 83 78 79 75 78 75 71 70 69 66 62 59 54 49 39 36 38 38 41 42 43 43 42 45 49 49 52 54 55 66 73 75 79 84 86 86 89 92 92 92
82 81 76 90 97 94 94 84 80 74 66 63 59 54 50 46 44 43 42 42 41 42 45 46 45 46 46 46 48 48 49 52 53 54 62 73 76 80 87 94 92 90 92 97
90 91 78 96 93 96 95 88 76 68 64 59 55 53 52 52 50 47 45 45 46 48 48 50 52 54 53 53 53 53 54 56 62 64 59 61 76 84 84 84 86 92 94 98

GFSCGP_prec_cthk_075.txt.gz
RH
28 27 26 29 46 56 56 59 53 39 34 44 45 40 37 37 38 39 40 39 38 38 41 40 41 38 29 26 33 48 58 69 72 75 77 85 91 96 97 97 95 91 88 88
38 35 33 32 42 56 60 62 51 38 36 49 50 49 43 41 37 37 37 39 38 41 41 42 44 35 30 26 30 50 63 71 71 73 76 85 90 93 96 96 98 95 93 90
42 43 50 53 46 61 63 63 52 44 45 55 52 51 44 36 36 36 36 37 36 42 40 41 43 36 31 24 27 43 61 68 69 75 76 83 87 91 95 96 96 96 93 94
49 46 53 60 63 62 68 61 54 54 58 73 57 55 45 40 39 39 35 33 36 44 39 38 39 37 30 24 26 37 51 64 70 74 77 76 73 84 88 92 96 95 95 92
43 49 56 69 70 70 67 67 65 64 72 69 56 57 41 39 37 37 39 35 38 38 34 34 34 36 30 25 23 30 40 50 59 65 71 71 74 77 80 86 86 89 87 86
42 40 51 63 77 76 79 76 72 65 71 82 57 59 42 36 37 39 37 39 38 34 33 33 35 37 32 27 27 25 32 38 44 50 57 62 71 75 76 80 81 79 80 82
41 40 51 64 81 79 82 84 93 90 93 87 51 53 39 37 38 39 38 38 36 37 34 33 36 36 35 28 25 28 30 35 38 42 46 53 63 74 77 77 79 79 77 77
52 54 59 71 80 84 81 94 87 92 91 68 47 50 35 38 39 41 41 38 37 39 34 33 34 35 36 29 26 28 29 32 36 39 43 47 52 66 76 78 76 77 79 82
62 55 63 79 84 87 86 96 81 92 79 87 61 44 44 45 41 37 37 38 39 38 33 33 33 35 35 31 27 24 28 31 32 37 40 45 48 51 58 67 73 71 71 74
64 66 63 78 91 93 92 85 91 98 94 90 66 63 49 46 43 40 42 42 42 41 38 34 33 35 33 32 28 29 29 27 30 33 36 41 44 47 49 51 53 57 59 59
72 72 65 82 92 97 95 96 95 95 91 84 93 77 60 55 49 46 47 46 41 43 42 37 36 37 33 34 31 33 34 33 30 31 34 39 42 48 50 49 47 50 52 51
84 83 78 75 74 85 85 95 95 98 90 79 81 82 66 57 53 51 48 46 46 52 54 42 39 41 38 37 37 36 36 35 34 33 36 37 38 41 44 47 50 55 58 60
67 81 81 72 71 73 87 88 91 95 94 93 95 83 74 66 61 55 51 53 51 50 51 52 46 45 44 43 43 44 42 39 37 39 37 38 39 40 41 43 45 47 48 49
64 65 70 86 92 98 98 97 88 93 98 85 84 77 81 74 66 61 60 60 59 57 54 60 61 55 47 46 45 47 49 50 46 39 40 41 43 42 41 44 45 44 46 47
75 69 68 78 86 91 91 93 97 91 91 96 84 79 87 81 75 69 66 64 62 64 63 62 63 65 63 62 53 50 50 50 52 50 43 44 46 47 48 46 45 47 48 50
75 70 61 73 76 87 92 93 95 95 89 92 90 88 83 86 83 78 70 66 66 62 64 66 66 64 64 67 73 69 62 55 54 53 52 51 49 49 51 53 52 51 50 53
84 74 68 84 88 94 96 93 96 92 92 90 95 90 86 91 86 81 74 69 67 69 66 65 67 72 72 69 68 66 65 68 69 63 59 58 58 57 54 54 54 55 57 60
72 77 76 87 93 98 89 84 91 94 94 90 90 88 88 90 83 79 77 72 69 66 65 65 66 65 70 70 68 70 68 68 68 74 76 75 73 66 61 60 58 55 57 59
54 62 77 89 96 86 88 92 92 92 97 94 95 93 92 91 83 81 80 73 73 69 68 68 71 71 68 64 65 68 66 65 65 69 75 76 77 76 73 77 74 66 63 64
48 55 70 84 96 97 85 91 90 86 97 94 94 95 92 84 92 90 85 78 74 72 70 68 61 63 67 69 69 68 71 72 70 67 65 69 70 71 72 72 70 78 78 77
67 61 72 77 91 85 85 87 84 97 98 97 93 91 87 86 88 86 82 75 73 70 65 61 54 53 54 57 61 62 67 71 76 78 76 72 69 71 71 72 71 73 76 78
77 81 73 80 81 80 86 91 98 96 95 93 90 89 81 76 72 70 68 62 61 60 57 54 55 57 57 53 49 49 51 53 59 66 69 71 74 77 76 77 78 76 80 83
86 73 69 59 67 83 82 92 92 90 88 86 79 79 78 76 74 70 68 64 57 54 52 52 53 52 49 47 47 47 49 52 51 51 50 53 60 67 69 74 75 77 86 89
88 74 81 72 89 87 86 87 89 88 88 86 81 78 73 71 68 66 64 63 61 52 49 49 50 50 48 45 43 42 42 43 43 43 43 45 46 48 52 62 70 79 84 89
99 88 93 99 98 91 89 91 89 83 84 84 81 77 72 63 60 58 55 54 55 54 51 45 41 41 43 44 46 47 47 48 48 48 47 48 48 47 47 50 56 69 74 79
98 98 98 98 99 97 98 96 90 86 78 75 68 66 63 56 54 53 52 51 49 47 44 44 44 44 44 46 47 48 49 49 49 50 51 54 56 56 57 53 55 57 61 69

GFSCGP_prec_cthk_078.txt.gz
RH
22 22 23 20 23 29 34 39 39 38 44 55 50 41 31 34 37 34 35 37 39 39 40 39 40 41 44 34 29 25 43 54 65 75 76 86 94 98 98 96 92 95 92 89
33 33 28 27 25 26 31 42 40 41 47 56 51 43 35 36 38 37 36 37 40 44 41 41 43 42 48 34 29 22 46 59 62 70 76 88 96 98 99 97 93 91 92 92
38 35 35 32 36 43 36 42 48 50 58 57 52 45 40 38 39 37 39 38 38 41 39 40 44 42 46 36 27 18 39 60 61 69 76 87 91 97 99 97 97 97 97 95
41 37 39 42 45 49 55 46 53 57 74 73 62 59 47 47 40 41 38 39 38 40 37 39 45 43 41 37 25 18 31 53 63 69 71 77 82 93 97 99 99 99 98 96
37 37 39 43 43 47 50 56 60 72 77 77 60 65 41 49 41 36 36 39 36 36 35 38 44 42 41 37 24 19 27 37 53 58 66 70 72 79 93 96 99 98 99 97
39 38 38 38 43 48 53 68 68 75 76 79 52 67 44 47 38 36 35 37 38 36 35 42 46 44 43 36 28 23 25 31 38 45 53 60 66 73 77 83 90 93 94 93
42 36 34 41 50 54 65 81 89 90 91 71 49 63 44 41 39 37 37 37 38 35 37 41 41 40 42 38 29 25 27 32 35 37 41 48 57 71 75 78 79 78 82 87
52 49 44 48 53 65 78 90 96 90 91 69 55 62 43 40 41 40 36 35 38 40 42 41 45 40 40 39 31 23 27 32 35 38 42 46 50 64 76 76 76 80 79 78
55 54 50 48 57 71 87 95 88 97 95 89 71 54 38 40 43 40 37 37 41 42 43 43 39 40 39 39 32 22 26 30 34 37 41 44 48 52 66 76 74 76 78 78
60 65 55 56 62 80 92 95 98 98 97 93 71 59 51 52 51 42 38 40 41 43 46 46 36 38 39 40 33 26 24 29 32 34 38 43 44 48 52 55 61 63 64 66
63 69 67 64 71 80 95 96 97 95 94 96 96 79 69 68 64 48 46 42 42 43 45 44 39 38 43 41 35 29 31 30 32 34 34 39 45 46 47 49 49 50 53 54
66 70 70 60 56 73 88 97 95 96 96 87 93 85 80 76 62 51 51 51 45 44 45 47 39 42 47 43 40 34 34 34 31 31 35 38 38 44 48 50 55 58 61 62
60 65 64 54 63 86 90 90 93 97 95 92 95 82 92 83 70 63 61 55 53 50 51 57 54 49 52 46 45 45 43 39 36 34 35 37 38 40 41 45 48 52 55 57
52 60 62 65 67 91 95 98 97 98 99 83 84 81 91 91 82 76 72 64 59 60 58 61 63 60 56 56 58 56 54 53 51 47 42 40 42 43 44 45 46 48 50 52
69 72 64 58 54 69 75 84 88 95 97 93 73 83 94 95 93 86 81 70 65 68 65 68 70 69 65 63 61 59 60 58 57 59 58 53 51 48 48 48 48 47 47 48
74 73 69 63 52 68 81 84 82 82 90 89 83 91 94 96 94 88 81 74 70 71 72 70 71 70 70 70 70 70 68 65 60 60 61 63 65 65 62 59 57 55 53 52
73 85 81 71 54 59 82 86 82 80 83 82 84 80 94 97 95 90 81 80 80 82 76 73 75 73 72 72 71 69 72 74 73 76 76 71 66 66 65 65 64 62 63 63
63 73 77 74 62 81 87 86 92 96 87 83 88 90 96 95 93 93 88 82 86 84 78 77 76 75 76 75 71 70 69 68 71 70 72 79 78 75 74 73 72 71 72 69
53 58 67 66 66 62 78 96 97 98 96 94 94 96 96 94 90 95 94 90 85 83 80 78 76 74 74 71 71 69 69 69 69 69 71 74 81 82 82 81 81 80 80 78
44 50 58 69 68 78 91 92 94 94 99 97 96 96 97 95 95 97 96 93 88 86 80 71 66 67 69 71 73 74 74 72 70 72 71 68 71 74 78 80 82 83 82 82
77 73 69 66 69 71 69 83 96 99 98 95 96 96 94 97 96 95 92 87 84 80 77 70 64 62 63 62 59 61 69 71 71 70 68 68 70 73 76 77 78 79 80 83
86 94 84 76 80 82 78 91 98 98 98 97 96 95 94 94 92 86 81 81 76 70 67 67 62 61 60 58 58 57 56 57 60 59 58 60 62 64 67 71 74 74 76 80
94 84 89 65 64 85 88 97 97 96 97 96 94 95 93 90 84 81 79 76 72 72 69 65 63 60 55 54 55 55 52 49 47 46 45 45 46 47 47 48 51 57 65 73
98 90 86 76 99 94 94 96 93 93 93 89 88 87 85 82 82 80 78 75 71 67 64 63 61 58 57 53 51 52 50 48 47 45 44 41 38 38 39 40 42 45 49 52
98 98 95 98 97 95 99 98 97 93 92 84 84 86 86 83 79 74 68 64 61 57 53 52 54 56 55 50 48 48 47 43 44 44 44 43 42 42 42 41 42 43 46 46
95 98 98 98 98 98 98 97 97 90 92 84 82 82 78 76 72 65 60 57 54 53 52 50 51 52 52 52 51 47 43 42 42 42 42 43 45 45 46 48 50 52 53 54

GFSCGP_prec_cthk_081.txt.gz
RH
20 21 22 18 21 23 28 31 31 30 29 31 30 29 30 33 41 29 26 28 28 29 37 40 43 41 39 41 44 39 28 32 52 62 73 77 85 97 99 99 95 93 96 90
29 29 22 22 24 25 26 29 29 26 27 33 32 30 32 33 36 32 32 31 31 34 38 41 42 43 43 43 44 39 27 34 55 61 69 76 83 96 99 99 97 96 96 87
33 30 31 31 32 36 34 38 33 33 34 33 38 33 32 33 34 36 36 35 34 38 38 42 39 42 44 43 44 37 23 32 53 60 68 76 89 95 99 99 98 97 95 91
33 32 37 37 39 40 47 40 42 38 43 46 49 50 38 38 34 37 40 40 40 38 39 41 39 42 44 41 45 36 21 29 52 60 67 76 81 92 97 99 97 97 96 94
35 40 42 43 39 41 43 44 45 47 50 53 54 68 40 41 36 36 40 41 39 36 41 42 41 39 45 41 43 34 20 27 44 54 61 68 72 87 95 99 98 98 97 97
33 35 38 37 36 39 43 47 50 52 58 65 57 67 48 44 37 41 43 44 41 39 43 43 44 43 46 44 42 34 22 25 34 43 50 58 65 73 85 97 99 98 98 98
42 40 38 38 46 47 51 59 68 71 73 61 53 60 44 40 40 48 49 47 43 42 43 39 40 42 45 42 42 32 24 26 32 35 41 48 54 66 73 84 97 98 98 98
51 45 42 48 49 53 61 64 69 69 76 69 54 58 43 38 39 47 49 46 44 41 42 36 37 42 44 42 41 29 25 26 32 36 37 41 48 57 70 76 83 91 93 94
54 51 48 53 52 54 68 70 67 82 83 90 76 60 49 53 43 50 50 45 41 43 41 42 42 49 45 45 42 29 23 24 31 34 37 39 45 53 66 75 78 79 80 82
56 58 53 56 56 59 68 77 83 86 93 92 76 67 75 74 62 55 46 43 41 45 48 46 46 50 44 46 44 32 25 24 27 32 34 36 40 47 58 70 75 76 78 82
68 65 62 68 64 62 68 78 86 93 94 96 96 88 80 81 71 58 50 45 46 46 46 46 51 53 46 47 45 36 28 26 27 32 34 35 36 41 49 58 63 68 67 63
77 73 66 60 53 60 65 76 93 99 98 93 91 78 82 80 69 64 56 52 48 48 49 53 55 58 54 47 46 39 32 32 30 32 36 37 38 40 42 45 49 50 50 51
81 73 68 45 59 69 78 85 94 98 98 93 94 72 75 79 74 71 70 65 54 54 56 62 61 58 56 53 52 47 41 40 40 39 40 42 42 42 41 45 48 53 56 59
70 66 63 59 50 57 68 79 85 94 98 94 88 73 78 80 85 84 81 83 70 64 64 65 67 69 64 62 63 55 54 53 51 48 45 45 45 45 44 45 46 51 54 55
63 63 65 62 56 51 58 70 69 79 82 89 69 85 82 87 92 92 93 90 81 73 70 71 71 74 73 70 72 68 62 61 61 61 60 58 55 52 50 50 51 51 51 52
63 68 66 65 57 54 52 47 57 70 76 82 76 79 90 94 89 96 97 90 86 85 81 80 79 82 82 76 75 72 70 69 69 71 69 71 70 67 63 62 61 61 61 61
61 60 65 67 59 53 50 57 68 82 85 81 81 71 78 97 96 92 98 96 92 94 86 83 84 83 84 83 80 78 77 75 75 74 75 76 78 78 73 72 71 71 72 73
61 62 63 66 58 59 44 55 70 91 91 89 79 73 79 86 97 98 98 96 96 94 89 81 78 80 80 79 76 75 76 77 77 76 79 81 82 81 81 81 80 80 81 81
50 58 64 69 65 41 34 59 90 99 95 93 91 87 85 86 89 98 98 97 96 92 86 79 79 77 78 75 75 75 73 73 75 77 79 79 78 78 79 83 84 84 85 86
57 55 63 67 67 55 43 60 84 87 97 98 89 93 93 94 97 98 98 98 97 93 89 83 81 81 80 78 76 72 71 69 68 72 75 76 77 76 76 77 76 80 85 87
63 66 68 66 67 50 41 69 87 98 98 97 98 97 96 98 98 99 98 98 97 95 92 87 81 77 74 72 71 70 69 66 64 68 69 70 70 72 72 73 75 77 80 80
66 75 74 73 76 61 53 80 97 98 98 98 98 98 98 98 98 97 96 96 92 87 84 83 80 74 70 69 70 66 60 56 56 59 60 60 60 59 58 58 59 61 64 69
87 85 89 81 78 71 76 92 94 98 97 98 98 98 98 97 97 96 92 88 84 83 84 81 76 73 73 66 64 62 60 58 57 57 56 52 50 46 42 41 41 41 44 45
98 98 94 89 82 74 86 91 97 98 98 97 97 96 96 94 94 92 88 83 80 77 74 74 74 72 69 65 61 60 59 59 56 54 52 49 48 46 43 40 38 36 34 34
98 98 95 94 95 93 98 98 98 98 97 96 96 97 96 93 87 88 86 81 75 69 67 64 62 62 63 64 64 64 60 60 55 51 50 48 45 43 42 41 40 41 42 42
96 98 97 97 98 98 98 98 98 98 97 95 92 91 87 83 80 78 76 76 71 69 68 64 59 56 55 55 56 56 57 59 57 54 52 51 49 46 41 41 42 44 46 47

GFSCGP_prec_cthk_084.txt.gz
RH
24 26 28 20 20 18 21 24 27 23 22 24 23 21 18 23 23 24 23 26 27 26 23 23 25 28 42 47 37 41 47 46 38 37 57 66 73 79 89 95 96 98 98 99
34 30 23 21 22 23 24 26 25 23 22 29 29 25 19 21 20 22 25 28 30 26 25 25 27 37 43 46 41 45 46 44 31 38 56 65 71 79 89 98 98 99 97 98
41 32 30 29 29 30 31 33 34 37 35 33 32 24 19 17 18 19 24 29 31 27 30 31 38 43 44 44 44 45 44 43 24 38 58 66 73 86 93 98 98 97 98 97
39 34 32 35 37 36 44 39 40 40 41 45 41 46 21 21 22 24 26 33 31 32 35 37 43 44 41 41 47 46 43 40 22 42 63 67 75 87 96 98 99 97 97 94
35 38 40 39 38 41 45 43 41 43 48 48 46 56 27 25 27 29 30 31 33 38 38 42 44 43 39 44 50 45 43 34 20 37 56 65 73 80 94 98 98 98 97 96
33 42 42 38 38 38 39 43 44 44 46 56 43 49 38 33 40 35 34 35 39 42 43 44 47 43 40 46 52 46 43 29 20 32 44 55 64 72 85 99 97 98 98 98
41 42 41 43 41 44 46 52 56 60 62 57 38 52 39 35 43 42 39 41 49 50 47 46 46 44 40 44 52 47 43 27 22 31 36 44 53 62 74 87 98 97 98 98
50 45 44 45 44 47 53 54 54 67 68 62 55 51 42 56 55 48 41 42 43 47 47 47 45 43 38 44 48 47 42 26 23 30 35 40 47 54 65 76 89 99 98 97
56 52 51 53 51 50 60 63 60 70 66 74 63 50 57 64 63 55 48 48 48 47 47 45 47 44 38 42 46 49 42 24 24 31 36 41 46 52 60 72 81 89 98 99
59 60 58 59 55 57 57 70 79 80 80 77 61 60 75 73 69 62 55 55 55 50 45 47 48 43 39 43 48 50 40 23 25 32 36 40 43 50 58 69 77 84 84 88
61 64 68 65 67 65 70 71 80 81 88 86 80 67 83 81 73 69 63 64 59 50 52 52 52 48 44 46 49 50 40 26 27 31 36 38 40 46 55 65 74 78 77 78
68 72 71 63 56 64 71 70 74 87 84 85 86 73 79 82 76 70 68 69 66 58 58 56 57 55 52 50 52 52 41 29 29 32 36 37 40 42 46 56 64 69 71 69
85 76 63 48 62 74 83 84 89 89 88 88 95 76 69 67 71 72 70 75 75 70 65 61 59 60 59 60 61 52 43 34 33 35 38 39 39 40 44 47 50 53 54 55
79 80 67 59 54 56 61 59 68 78 85 78 77 70 63 66 74 75 75 84 81 76 72 68 66 67 64 65 66 57 46 42 41 41 40 42 42 41 40 43 47 51 54 56
75 79 76 57 52 55 55 54 51 62 64 76 56 64 63 69 81 82 82 91 86 81 74 74 74 74 72 69 68 64 57 52 49 50 50 50 49 47 47 46 45 45 46 48
71 75 61 55 47 48 54 45 41 45 58 66 63 66 70 69 87 91 89 95 91 86 81 79 79 79 81 82 79 75 74 71 66 64 65 64 63 60 58 57 57 55 54 54
69 66 63 59 44 45 44 49 52 54 58 71 76 69 76 78 88 96 96 97 98 92 87 85 83 86 89 90 87 84 83 83 79 77 75 75 75 75 74 72 71 67 68 69
60 61 63 61 53 53 35 44 52 56 51 68 82 84 88 87 92 98 98 97 96 96 95 92 89 93 95 92 88 90 87 84 81 82 81 81 81 82 83 82 82 80 79 78
54 57 62 67 68 45 31 53 53 55 65 75 83 85 90 92 92 96 98 98 98 99 98 97 97 95 98 95 91 91 87 82 82 82 82 80 80 81 82 83 84 84 84 85
56 56 63 66 67 60 35 44 52 71 88 95 92 87 93 91 93 92 96 97 98 98 98 97 96 93 92 91 85 84 83 80 80 82 82 81 80 84 82 80 82 82 81 82
63 62 65 65 65 58 46 47 54 95 94 97 97 98 98 95 97 98 98 97 99 98 98 96 94 93 91 88 85 81 78 76 77 76 75 71 68 68 73 78 83 85 84 81
63 71 69 75 79 71 63 56 77 97 98 98 98 98 98 98 98 98 98 97 96 98 98 98 97 93 91 88 84 81 77 77 77 73 65 60 59 58 60 62 65 66 66 65
88 93 91 83 83 84 75 70 91 95 98 98 98 98 98 98 98 98 98 96 96 97 96 92 90 92 92 87 84 81 79 74 68 64 63 59 58 56 54 52 50 48 48 47
90 97 97 96 93 89 77 71 94 97 98 98 98 98 98 98 97 97 97 96 93 89 86 85 86 86 82 76 73 69 68 69 69 66 63 59 55 52 48 45 45 44 43 43
89 94 97 98 94 90 87 88 98 98 98 98 98 98 98 97 96 97 96 94 90 85 81 78 74 70 70 72 70 67 66 67 66 64 64 62 59 56 52 48 47 48 50 49
94 97 97 98 98 98 98 98 97 98 97 97 96 95 96 95 94 93 91 90 89 87 83 79 76 72 70 68 66 64 64 62 62 63 63 62 59 56 53 51 51 50 47 45

GFSCGP_prec_cthk_087.txt.gz
RH
35 34 34 20 17 16 19 24 26 23 18 17 16 16 16 14 13 13 14 15 16 18 19 20 21 23 25 25 31 39 44 45 41 49 46 37 56 64 72 79 86 91 96 98
47 36 29 25 27 26 24 23 23 23 20 25 24 20 17 14 13 13 13 11 14 16 20 21 25 26 24 24 34 39 49 42 45 48 42 37 56 68 78 84 90 93 96 98
49 48 44 36 31 29 26 27 29 31 31 29 29 20 16 15 14 12 12 14 14 14 20 24 26 24 24 29 35 44 51 40 45 47 33 44 64 71 80 88 97 98 97 98
55 50 41 37 37 36 37 33 36 42 41 34 33 28 18 19 16 18 20 19 18 17 22 27 26 26 32 37 40 51 49 43 45 43 26 48 68 73 79 87 99 98 98 99
44 42 49 52 47 41 45 44 42 42 43 45 38 42 27 19 21 25 29 26 22 22 27 29 27 36 40 42 44 51 49 45 45 34 26 45 62 69 76 86 99 98 98 98
44 46 45 42 41 44 47 42 41 45 47 52 36 37 27 23 27 31 38 33 30 30 34 33 35 42 42 45 46 46 50 47 45 26 30 42 52 60 70 84 97 99 99 97
53 45 40 43 45 48 49 51 52 57 57 43 40 47 29 29 42 47 46 42 38 37 37 37 40 43 46 46 46 44 51 47 44 25 34 41 45 52 63 76 89 97 98 98
44 48 43 43 43 48 53 53 47 48 55 52 49 44 32 46 52 53 55 50 45 44 45 42 44 46 51 46 47 44 49 50 41 28 38 41 44 49 58 73 86 99 97 95
50 52 52 50 50 52 60 60 56 62 57 57 44 36 39 48 58 59 59 52 48 50 50 47 47 48 50 46 45 45 50 51 34 31 40 42 45 50 55 66 81 93 97 97
65 72 69 68 62 62 62 64 75 72 69 67 48 45 44 61 64 64 62 58 52 55 51 51 49 51 53 52 47 49 51 51 30 33 40 42 43 48 55 65 78 87 95 99
69 64 78 77 72 69 71 72 73 75 74 71 65 47 68 73 72 66 65 62 56 60 59 57 59 56 58 53 48 53 54 47 30 33 38 41 42 45 54 63 76 87 84 86
70 65 70 73 68 67 69 69 67 74 76 80 78 58 62 65 68 68 70 67 65 73 74 70 64 62 61 51 49 56 56 42 32 34 37 41 43 43 52 59 68 79 82 81
69 69 62 77 73 70 72 83 84 74 75 72 80 60 64 60 62 65 74 74 72 80 79 73 68 67 65 62 58 59 57 39 34 33 37 39 42 44 47 53 61 67 71 73
75 72 62 51 54 55 59 58 58 67 68 57 58 51 47 49 53 64 76 77 78 86 81 79 75 72 69 69 68 64 56 39 37 35 38 40 41 42 45 49 52 55 56 57
80 79 76 69 56 51 49 48 47 49 45 53 37 48 47 52 60 69 80 85 84 91 88 85 81 78 76 74 76 71 63 45 44 44 44 45 46 46 46 47 48 51 54 56
81 82 72 64 53 46 43 35 38 46 47 45 45 47 60 62 70 78 83 86 89 96 91 88 84 81 80 78 81 75 71 58 56 56 54 53 54 53 52 53 53 52 51 51
80 76 74 65 51 39 34 40 38 40 46 53 48 42 54 71 82 85 89 92 94 97 95 91 87 84 83 82 85 84 79 72 68 68 63 63 66 67 68 67 67 66 64 61
76 73 72 62 55 41 42 40 45 48 46 46 54 59 64 77 84 88 91 97 97 98 97 94 92 90 88 89 92 87 87 91 89 86 84 80 79 80 80 82 81 80 81 81
67 69 65 64 55 40 44 58 47 50 49 68 72 69 72 77 89 89 95 98 98 97 97 99 96 94 94 94 91 93 95 96 93 87 89 86 85 83 82 83 84 84 85 85
61 61 60 61 54 48 34 42 44 53 72 78 75 75 80 88 92 93 95 98 98 98 97 98 99 98 97 95 95 98 97 96 93 92 90 87 84 81 79 80 81 82 87 88
64 62 61 58 60 49 56 54 55 73 87 88 85 91 96 94 94 95 96 97 98 98 98 95 98 98 98 96 96 94 96 94 90 91 90 87 85 84 83 82 82 81 81 84
67 72 68 61 68 63 70 66 70 91 93 95 95 97 97 97 98 98 98 98 97 96 98 98 97 98 98 97 97 96 93 91 88 86 82 80 78 76 74 68 68 69 70 73
84 85 82 85 86 87 84 78 74 93 98 98 97 97 98 97 97 97 97 98 97 98 98 98 98 98 98 98 97 96 93 93 90 89 87 83 78 73 68 62 58 58 57 56
77 81 92 94 95 95 88 80 76 95 98 98 97 97 97 97 97 97 97 97 97 96 94 93 96 96 96 96 96 95 94 93 90 86 78 72 65 61 58 55 53 52 51 51
87 89 93 97 98 92 88 87 89 97 98 97 97 97 97 97 97 97 97 97 96 95 93 90 87 85 86 86 86 88 88 87 85 81 76 74 69 63 61 59 58 56 55 55
91 95 94 95 95 96 97 95 94 97 97 97 97 97 97 97 97 97 97 96 96 95 95 94 93 92 90 89 86 84 80 77 74 70 70 68 66 65 63 61 59 59 57 55

GFSCGP_prec_cthk_090.txt.gz
RH
45 50 43 33 33 30 16 17 18 21 21 17 15 13 14 15 10 10 9 8 8 9 10 12 14 17 17 19 26 31 37 33 42 48 54 50 49 46 36 52 67 74 87 88
34 44 48 40 29 27 27 23 19 17 17 19 17 19 19 15 12 9 8 9 9 10 10 12 14 17 18 20 24 32 35 34 45 49 57 49 47 42 40 54 67 75 82 89
31 39 50 50 46 45 43 34 30 27 23 22 23 19 14 16 11 11 12 14 13 12 12 13 14 18 22 23 27 33 33 42 50 55 54 47 48 34 55 64 73 80 87 92
40 43 59 56 51 41 38 33 36 31 36 31 32 22 18 17 14 16 20 23 23 21 17 15 14 20 24 29 31 29 38 47 56 56 48 46 41 37 63 69 76 86 93 98
42 42 53 64 51 49 47 51 40 45 43 35 29 32 19 18 19 24 27 29 30 26 23 22 17 22 28 30 30 34 43 52 57 49 47 46 29 41 60 67 75 87 98 98
46 51 49 54 55 51 50 48 46 43 38 43 29 28 20 28 28 31 35 33 36 33 30 23 24 27 34 32 34 42 49 57 58 47 45 36 30 40 51 58 75 88 98 97
47 58 57 57 57 59 60 56 60 62 60 38 35 30 25 29 40 41 43 41 40 37 33 32 32 38 39 42 43 49 55 58 53 48 43 23 35 38 48 53 72 88 97 99
60 64 59 52 51 52 51 49 45 48 45 39 40 38 39 38 43 48 48 46 44 42 41 42 41 43 48 49 51 56 57 58 52 48 36 28 37 39 46 53 69 86 98 98
49 55 53 49 47 50 60 60 51 56 47 48 32 34 40 44 49 48 51 51 51 48 48 47 46 49 52 52 55 57 61 56 55 51 30 33 39 42 48 56 69 86 98 99
68 60 58 58 56 60 59 58 61 57 63 53 40 37 49 61 49 49 53 54 58 52 55 55 48 52 56 57 58 58 61 57 55 48 30 36 39 41 48 57 71 84 99 99
86 67 76 65 61 62 65 64 63 69 63 68 54 55 57 56 55 50 55 57 63 62 61 63 59 57 62 65 62 59 61 56 56 42 32 37 38 40 46 58 72 86 92 98
83 78 79 79 79 73 69 63 68 63 74 62 67 52 49 50 48 49 55 63 68 67 66 68 67 70 70 68 65 63 65 60 55 38 33 37 38 40 48 58 70 85 84 88
78 75 80 84 78 74 68 76 71 65 61 62 66 55 54 47 41 49 61 66 75 74 72 70 72 72 71 69 69 68 65 66 52 40 36 38 39 41 48 55 65 74 81 82
96 77 66 62 68 64 69 63 62 64 65 56 55 45 36 37 43 51 66 69 77 81 80 76 75 75 75 74 73 70 68 64 51 42 40 38 38 43 48 54 60 65 69 70
84 78 67 58 54 49 45 43 46 49 45 46 36 34 37 41 50 52 67 73 84 84 87 84 79 77 79 82 79 82 76 66 49 46 44 40 41 46 49 51 54 56 57 58
82 80 67 58 51 43 39 36 39 38 40 44 37 43 38 46 48 61 71 77 84 89 90 90 90 89 86 81 82 81 77 71 61 53 51 50 49 51 52 52 54 55 55 57
85 76 65 64 49 43 38 43 41 41 43 48 48 49 45 50 59 70 76 82 88 93 93 96 97 93 91 89 88 85 81 78 68 65 57 56 53 54 56 57 58 58 58 59
83 69 69 65 56 51 56 47 48 46 55 54 53 54 55 58 59 71 77 84 90 94 94 96 97 96 94 95 93 92 89 85 79 72 66 65 64 63 65 68 71 72 72 73
73 74 66 61 51 42 54 57 53 52 58 71 63 59 60 64 65 70 81 85 90 97 95 98 98 97 95 96 97 97 94 93 90 85 78 78 75 73 78 84 85 87 87 86
60 55 57 53 51 44 51 48 53 63 79 72 68 63 70 69 72 73 84 89 94 98 97 98 97 98 97 98 99 98 97 97 96 96 96 94 94 93 93 94 94 94 93 92
62 62 58 53 54 52 63 64 59 77 82 83 80 74 78 80 84 87 91 95 97 97 97 96 97 99 99 99 99 99 96 97 95 97 98 99 96 95 96 95 95 92 91 90
74 73 68 63 66 71 75 68 65 83 87 87 86 84 83 90 94 96 96 97 97 97 98 97 97 98 98 99 98 99 98 99 99 97 98 95 95 94 93 92 91 91 91 91
81 75 76 76 81 83 83 78 74 86 94 96 95 95 93 95 97 97 97 97 97 97 97 97 97 98 97 98 98 98 98 99 99 98 97 95 95 95 92 90 87 85 83 81
80 69 76 81 84 87 87 82 77 89 98 98 96 97 97 97 96 97 97 97 97 97 97 97 97 97 97 97 97 98 98 98 98 97 95 96 94 94 91 88 83 78 68 65
77 74 79 88 92 91 90 88 82 91 97 97 97 97 97 97 97 97 97 97 97 97 97 96 95 94 92 94 96 96 96 97 96 95 95 91 88 81 78 70 65 62 61 60
78 84 92 92 93 95 96 91 88 96 98 97 97 97 96 97 97 97 97 97 97 97 96 96 96 96 96 94 94 93 93 92 90 88 87 87 87 86 87 84 77 73 70 67

GFSCGP_prec_cthk_093.txt.gz
RH
24 17 18 20 28 40 44 35 35 34 18 26 24 21 17 15 17 14 9 9 10 11 12 15 16 16 17 19 23 28 29 29 30 35 38 41 46 54 54 48 49 38 46 69
29 23 18 27 31 39 47 39 34 31 23 18 15 17 15 15 16 11 10 10 10 11 13 13 12 14 17 21 21 26 28 33 31 36 40 47 53 58 52 48 45 42 54 66
31 29 34 29 31 37 50 49 36 39 27 27 20 19 15 14 16 12 10 11 12 12 12 12 12 13 18 23 23 25 26 33 33 38 42 53 61 57 49 46 44 51 62 71
31 41 41 48 36 41 50 51 37 38 41 33 36 29 30 28 22 16 17 20 25 24 21 20 15 14 17 21 25 26 27 34 34 38 48 58 58 49 46 45 38 58 67 74
24 26 55 65 47 46 50 56 51 49 51 47 40 38 21 22 20 25 31 34 36 34 28 26 20 17 17 21 26 27 32 38 36 39 51 64 57 49 45 33 39 58 67 74
46 34 58 59 64 59 59 63 62 56 52 50 42 38 32 31 40 38 41 39 40 41 37 34 27 24 21 24 32 32 37 37 38 47 63 65 53 48 41 35 45 55 64 79
55 47 66 65 60 62 67 72 72 68 60 51 40 42 37 43 49 40 41 42 42 44 45 39 36 30 27 28 33 36 36 40 47 59 67 61 49 43 33 40 44 51 63 81
69 53 55 71 59 62 67 67 58 54 52 46 44 40 35 48 44 43 47 48 48 47 48 45 44 39 37 37 38 37 43 51 58 67 67 55 47 33 38 38 43 50 64 82
62 60 55 62 59 65 66 69 57 65 69 67 62 48 64 52 52 51 49 50 50 48 48 49 43 39 44 44 44 42 55 63 65 69 59 53 40 34 37 39 45 54 67 85
72 77 60 65 58 60 69 62 71 61 62 57 38 35 62 71 62 49 46 50 54 51 48 48 52 51 51 51 51 52 60 66 68 68 58 50 39 35 37 40 47 59 73 91
86 78 74 68 56 56 61 76 67 66 52 58 53 55 71 67 59 44 44 48 53 52 52 56 59 58 59 58 58 60 64 70 68 67 58 47 39 36 38 43 49 67 83 95
83 92 86 51 59 55 58 62 68 70 75 60 69 75 74 66 42 41 52 56 54 59 59 64 67 66 65 66 66 65 72 70 69 66 52 48 40 36 39 44 54 74 84 93
98 93 94 92 85 79 68 68 66 72 70 75 59 50 61 46 46 49 50 60 60 62 64 69 72 73 72 73 73 71 75 72 70 65 54 50 41 37 42 47 57 74 81 88
98 96 89 83 66 72 84 80 75 72 66 53 58 48 55 45 49 47 55 57 62 66 71 78 77 78 78 79 80 76 79 75 74 63 56 50 44 40 45 52 57 66 76 82
97 84 77 79 73 67 71 72 69 72 65 55 52 42 45 53 51 52 52 53 62 72 75 82 82 79 81 82 81 82 83 79 78 63 59 52 49 43 47 52 56 61 68 72
96 85 64 59 52 53 55 49 49 47 45 43 44 44 58 52 51 46 51 58 63 74 77 84 88 84 85 85 86 84 84 80 72 65 59 54 52 47 49 52 56 58 61 62
92 69 61 60 44 36 40 43 44 44 49 54 58 58 49 46 49 50 55 59 67 71 77 87 93 90 91 90 89 90 86 81 75 70 65 58 55 52 51 54 56 59 61 61
91 68 65 63 53 68 73 58 56 60 57 52 51 52 50 51 54 55 56 63 69 77 83 89 96 94 95 94 95 94 91 89 85 81 75 65 60 57 58 61 62 62 63 64
79 74 69 71 62 54 63 57 56 54 69 67 62 57 54 59 58 60 63 63 74 80 88 96 97 96 95 98 99 97 94 95 89 85 80 72 69 62 60 61 64 68 70 75
68 70 72 59 57 63 82 53 58 60 85 76 68 65 65 66 68 72 73 71 76 85 92 96 96 97 98 98 97 97 95 94 93 91 89 83 79 76 73 72 72 74 79 83
58 51 60 51 55 62 59 60 53 80 91 82 76 75 74 73 76 79 81 81 82 88 93 96 96 98 94 97 95 95 98 96 94 97 96 96 94 92 91 87 84 83 91 97
76 88 74 59 61 73 66 60 65 77 82 82 83 80 79 81 83 83 87 87 90 91 96 97 97 96 98 97 95 94 94 93 99 95 96 97 99 94 97 98 97 97 97 95
79 69 73 72 75 75 75 78 77 77 86 88 92 88 88 88 88 89 91 97 96 95 97 97 97 97 97 98 96 97 96 97 94 97 98 95 95 98 98 98 98 94 98 95
70 63 71 71 77 78 79 81 82 79 87 96 97 95 94 95 96 96 97 97 96 97 97 97 97 97 96 97 97 96 95 98 96 97 98 96 97 99 98 98 98 97 97 96
71 70 74 80 82 81 82 85 87 83 94 97 97 97 97 97 98 98 97 97 96 97 97 96 97 97 97 98 97 97 96 98 96 97 96 97 97 97 97 95 94 93 94 90
74 78 79 82 87 89 90 90 89 89 97 97 98 98 97 97 97 97 98 96 96 97 96 96 96 96 96 96 96 97 96 96 97 96 95 96 97 98 96 96 95 92 88 83

GFSCGP_prec_cthk_096.txt.gz
RH
27 26 15 13 16 17 20 22 22 21 27 35 39 39 30 29 27 26 27 22 17 16 15 18 22 20 19 20 17 19 22 25 21 26 31 33 35 40 43 44 51 52 49 49
24 27 21 23 18 22 27 28 24 26 29 42 38 34 35 32 16 14 16 10 11 12 13 14 13 17 19 18 17 18 23 26 22 26 30 35 36 39 42 45 54 52 51 47
25 19 32 37 31 24 32 34 33 33 35 42 40 35 35 20 21 15 21 13 15 16 17 18 17 16 15 16 17 18 23 26 26 25 31 35 37 40 42 53 53 53 47 47
40 32 24 30 50 44 34 37 46 41 43 43 42 43 32 38 33 24 19 18 26 32 31 24 20 17 15 16 16 18 21 24 30 26 31 34 34 36 43 53 52 47 42 43
33 42 45 32 38 50 53 44 51 47 45 51 44 50 38 41 36 36 30 34 44 37 36 33 28 22 18 16 17 21 23 24 33 25 32 35 37 38 50 55 49 42 43 34
46 29 46 57 35 55 55 56 52 54 57 57 49 48 45 42 37 40 57 50 52 49 44 40 33 27 21 19 19 24 26 27 30 31 36 41 39 51 55 53 44 41 31 36
66 62 65 53 35 48 65 65 81 81 68 59 51 49 47 48 63 58 55 58 56 50 46 50 42 35 29 24 22 29 29 30 32 38 39 44 48 60 63 49 42 32 34 39
81 48 55 60 47 63 71 67 68 76 71 60 51 52 55 48 59 66 67 65 52 50 45 53 51 45 37 30 30 32 33 37 41 41 41 46 58 66 62 50 40 34 39 43
84 58 62 59 51 69 66 75 60 80 69 81 86 49 67 51 75 64 62 62 57 50 43 52 49 49 47 49 41 40 41 42 46 44 48 60 68 63 60 47 33 40 41 48
65 91 67 65 65 76 69 60 69 73 95 86 89 71 88 82 70 61 52 52 52 49 49 53 58 54 53 47 48 49 45 51 53 56 60 70 59 64 55 41 39 39 44 55
62 86 70 86 81 68 54 71 68 72 71 86 66 73 89 85 71 68 64 59 51 51 54 58 64 65 61 67 58 50 54 60 63 66 71 67 65 62 51 42 38 41 49 67
82 92 85 91 66 66 55 56 78 79 69 61 81 96 89 74 70 77 74 61 59 57 59 60 67 67 66 66 62 54 64 67 71 69 73 71 67 60 51 41 40 43 61 74
93 84 96 89 76 60 52 49 62 78 74 76 83 94 88 75 79 77 72 55 54 58 64 62 70 69 70 68 68 66 70 74 76 74 74 75 64 61 51 42 42 49 67 78
96 82 84 93 80 55 55 58 71 79 83 81 78 89 84 74 69 67 57 48 49 59 64 67 71 73 75 72 73 73 77 80 81 79 78 74 63 62 51 45 46 53 63 77
96 95 96 94 87 79 81 84 94 90 77 73 66 74 76 70 63 55 50 42 46 54 62 67 71 77 78 79 78 79 79 81 83 84 84 73 67 65 53 47 50 55 63 69
92 91 95 95 89 76 89 92 87 68 68 62 62 68 65 60 59 53 49 42 48 53 59 66 71 79 83 81 84 83 84 87 87 87 86 75 72 71 62 55 53 59 64 66
96 98 72 62 50 49 60 58 52 67 63 61 66 66 56 55 53 50 49 50 55 58 61 65 70 76 88 84 85 86 87 89 90 91 88 77 74 74 65 60 57 59 63 63
92 96 68 57 55 77 73 63 64 67 68 67 62 55 54 56 58 58 56 59 61 63 66 70 73 73 84 92 88 87 88 90 93 94 89 83 82 73 66 64 61 59 61 64
85 73 63 60 72 88 74 66 63 65 72 69 66 61 63 65 62 65 67 66 68 66 69 73 75 82 84 94 97 92 95 95 93 95 92 88 84 78 75 71 67 65 62 63
69 67 63 63 57 79 81 64 52 52 71 78 75 71 69 70 72 72 74 73 72 70 71 74 78 86 87 91 98 99 95 99 98 95 96 92 88 83 79 79 77 72 69 70
79 71 72 69 79 81 76 59 50 72 93 85 81 77 75 74 77 78 79 79 79 78 76 77 82 88 92 92 97 98 98 98 99 95 96 95 89 85 82 81 80 80 75 72
76 92 72 69 91 77 63 57 64 73 78 78 81 84 82 82 82 83 85 86 86 87 85 87 88 94 96 96 97 97 97 97 97 98 96 99 94 92 91 92 90 92 91 87
81 73 75 80 79 75 73 75 76 76 77 83 86 94 95 93 91 89 88 89 89 92 97 96 95 96 97 96 97 96 97 97 98 98 97 98 98 98 98 98 97 97 99 97
71 65 70 71 74 74 77 79 80 81 81 87 91 97 97 96 96 96 96 96 96 97 97 97 97 96 97 96 97 97 97 96 97 98 97 97 98 97 97 98 98 96 99 96
67 65 68 70 75 78 82 83 83 84 85 90 96 97 97 97 97 97 97 98 97 97 98 97 97 96 97 96 96 95 96 97 97 97 96 96 97 96 97 96 96 97 97 97
69 70 71 74 80 84 90 91 90 89 90 96 97 97 97 97 97 97 97 97 97 97 97 97 96 96 96 96 95 96 97 95 94 95 95 96 97 96 97 97 96 96 97 96

GFSCGP_prec_cthk_099.txt.gz
RH
10 21 28 21 17 15 15 19 20 17 18 30 32 27 19 21 31 30 30 34 33 32 37 30 23 21 25 21 20 21 20 21 29 26 25 25 27 32 38 43 43 44 49 54
18 16 17 28 28 28 22 22 21 20 17 28 30 28 22 24 26 29 30 32 27 25 31 25 23 24 21 24 21 21 21 21 24 24 23 23 26 30 39 42 43 47 51 60
31 24 22 23 30 38 38 36 25 27 28 37 33 29 22 21 27 33 28 29 19 19 17 15 14 20 19 20 23 21 22 22 25 25 26 26 28 35 39 41 41 46 53 61
25 26 33 33 34 31 38 40 47 39 40 48 44 39 26 23 30 37 36 36 16 16 16 22 28 27 25 19 20 19 20 23 24 25 23 22 22 30 33 38 42 50 57 56
14 17 23 32 35 37 44 47 59 54 49 59 47 46 23 29 37 44 44 32 27 28 37 42 34 28 24 21 19 17 17 21 24 27 22 21 23 29 32 38 42 51 57 57
16 19 34 37 41 49 44 58 58 79 60 64 42 47 32 32 41 49 54 56 45 53 53 47 41 36 28 24 23 19 20 20 23 26 22 23 23 29 35 39 45 51 54 55
37 32 34 58 59 47 61 59 83 90 78 70 41 50 33 37 48 55 74 55 52 50 50 45 48 42 34 26 21 20 23 22 27 26 24 26 27 31 39 43 50 52 56 46
64 50 56 54 67 82 56 59 87 79 72 59 56 48 43 46 50 73 87 69 67 63 61 54 61 53 46 38 28 27 25 26 30 27 28 34 34 40 42 48 58 57 50 43
67 45 47 53 54 72 77 71 60 93 77 92 74 63 61 74 71 82 86 85 80 72 63 51 52 60 55 56 52 37 36 36 39 37 40 44 43 47 53 58 61 56 50 34
76 65 46 55 70 79 68 67 83 96 95 89 79 89 93 97 85 90 91 87 73 69 58 54 60 63 59 65 63 54 49 48 49 54 55 48 47 57 68 67 61 59 40 38
71 65 55 61 76 87 77 72 82 90 76 97 95 98 98 97 96 94 92 81 71 62 60 61 67 70 67 65 68 63 69 68 57 60 51 55 59 68 72 68 67 50 41 40
68 81 77 62 64 75 86 85 86 80 74 75 89 97 96 97 96 91 91 84 76 59 59 66 68 74 78 75 72 71 67 63 60 56 63 65 72 74 68 69 58 49 40 45
84 85 81 66 73 76 79 74 70 73 87 85 94 98 97 94 91 89 82 78 59 52 62 67 68 73 77 76 72 72 67 63 67 70 78 80 79 74 69 68 59 48 45 51
93 86 83 78 72 83 86 75 69 67 86 97 98 96 94 91 87 79 73 66 58 50 58 65 71 75 77 74 75 72 73 73 74 80 83 85 82 79 71 66 60 49 49 56
91 84 83 80 75 82 82 88 80 91 97 98 97 87 83 81 77 69 59 56 48 45 52 60 68 74 79 76 78 78 79 80 81 82 83 84 81 81 69 65 63 54 53 60
96 96 97 97 92 94 98 95 94 95 95 96 88 82 80 77 69 65 61 52 49 51 53 57 62 69 80 85 85 86 81 84 86 81 87 88 86 85 76 74 69 62 56 62
97 98 96 98 92 92 97 94 90 89 89 86 88 83 75 69 65 61 58 58 58 57 59 61 64 69 74 85 88 85 86 87 89 89 87 92 90 86 81 82 75 67 60 61
98 98 86 80 74 91 95 89 82 81 82 78 77 74 69 69 71 67 64 66 62 60 62 66 67 69 71 73 84 89 88 89 89 92 92 92 92 92 85 87 79 72 69 68
89 91 87 84 95 89 76 71 71 74 75 74 70 67 70 71 68 67 69 70 67 65 67 69 72 70 71 73 75 85 90 89 93 94 96 95 93 96 89 89 85 75 74 74
84 86 82 77 89 92 74 64 58 63 72 72 72 69 65 65 68 72 72 75 73 74 73 74 73 72 73 76 79 82 92 94 90 92 93 95 95 92 94 89 85 84 81 78
84 87 90 88 85 83 80 70 61 66 80 80 78 76 72 71 76 81 80 78 79 80 81 79 76 75 78 81 84 87 88 97 96 95 95 98 96 96 94 86 89 85 85 84
90 95 93 90 85 78 66 56 61 69 70 72 74 77 81 81 81 82 82 84 86 87 86 85 86 88 88 88 94 93 90 94 97 98 98 96 96 98 97 95 99 89 90 88
87 87 80 85 85 77 71 68 68 67 69 73 77 84 86 93 93 91 91 91 89 89 89 89 91 91 93 93 96 95 95 96 96 97 97 97 96 98 98 99 98 95 89 92
72 70 70 69 70 70 69 69 71 72 74 80 85 87 95 96 96 97 96 96 96 97 98 98 97 96 94 93 96 96 96 96 96 97 96 97 96 98 97 97 98 98 98 98
71 67 67 69 70 73 76 77 79 81 83 87 88 93 97 96 96 96 96 96 96 97 97 96 96 95 95 95 95 96 96 96 96 96 96 96 97 97 96 97 97 97 98 97
70 71 72 73 76 78 82 86 88 90 90 93 93 97 97 97 97 97 97 96 94 92 88 87 87 87 87 87 89 91 93 94 95 96 96 96 95 95 96 97 96 96 97 97

GFSCGP_prec_cthk_102.txt.gz
RH
15 16 18 21 23 22 24 25 23 15 12 18 18 20 21 19 21 16 15 17 17 20 22 31 31 30 28 23 22 27 21 21 22 22 26 40 61 44 35 36 39 40 42 43
21 20 17 17 20 24 25 27 25 25 21 24 21 20 20 24 21 17 17 18 19 25 26 31 32 31 30 26 25 26 24 24 23 23 23 36 39 40 41 35 38 43 46 46
26 22 22 23 26 31 34 33 36 38 30 29 34 31 24 22 24 21 16 16 22 28 27 31 34 34 36 31 28 23 23 23 24 24 25 29 34 46 44 39 38 40 44 47
20 19 22 24 24 30 36 30 42 42 41 46 40 51 26 24 24 19 16 20 26 30 30 30 35 36 37 33 28 27 23 21 23 23 23 27 30 30 27 30 34 37 43 46
14 16 18 18 16 15 23 30 41 45 52 63 40 64 29 27 21 19 21 36 40 41 42 41 37 35 34 33 26 23 23 25 23 24 24 28 32 35 34 31 30 37 43 50
17 19 22 23 25 25 32 41 46 55 72 73 49 67 32 32 27 24 50 67 76 66 54 47 39 32 33 32 26 27 25 21 24 22 24 33 36 35 33 31 30 35 42 48
34 31 30 32 35 29 35 61 69 85 80 67 51 62 40 41 39 43 68 77 93 87 62 53 38 40 35 33 30 26 25 24 23 23 26 30 32 33 29 30 27 34 39 45
55 46 37 46 53 50 48 74 79 84 78 65 60 57 54 63 72 74 80 85 97 92 80 69 66 72 53 47 40 36 34 27 28 37 40 37 35 32 31 31 31 35 42 47
69 57 48 47 46 62 59 72 65 76 67 75 76 70 74 81 90 92 92 95 93 96 84 79 79 65 55 55 54 49 40 41 48 47 43 41 43 37 35 37 35 41 48 59
69 67 53 52 52 54 64 55 86 83 85 82 79 84 98 98 95 98 96 95 96 95 85 88 77 66 72 79 70 63 51 44 49 59 61 51 51 50 48 47 42 49 57 69
63 64 54 55 64 68 86 86 88 80 80 79 91 98 98 99 98 98 97 94 94 94 89 80 74 69 68 74 80 74 70 65 61 57 60 60 61 57 59 53 54 62 72 74
71 68 69 60 52 63 87 90 82 85 68 85 96 98 98 98 98 97 94 84 82 84 80 73 71 75 69 77 79 81 85 77 70 65 77 72 71 58 58 61 73 74 75 64
77 83 83 67 80 84 94 95 92 92 97 94 97 98 97 97 95 88 83 80 75 69 67 68 65 80 79 84 87 76 78 75 76 82 78 76 69 67 67 78 78 78 69 54
80 87 89 87 76 77 87 95 95 90 96 93 96 98 96 92 89 77 71 72 71 61 58 63 66 68 76 79 81 79 80 80 80 82 79 77 74 79 83 85 82 74 68 55
97 94 92 87 83 82 80 95 93 90 96 95 96 97 95 90 83 72 69 64 63 58 60 54 64 67 73 74 83 82 80 80 83 75 77 77 83 88 88 84 81 72 66 60
91 97 94 84 85 91 97 96 86 91 93 97 95 93 89 84 76 68 66 63 56 52 51 58 56 60 66 73 80 80 79 80 83 84 84 83 86 87 89 85 80 76 68 66
96 98 98 94 91 93 89 98 95 93 91 91 89 88 80 75 71 69 67 66 63 59 57 58 58 60 63 69 76 83 82 85 85 87 88 87 88 92 90 88 82 82 76 68
97 93 98 98 90 89 98 97 94 88 90 87 80 79 76 76 77 78 77 74 70 64 60 60 61 62 63 67 72 77 84 87 89 91 90 91 96 94 93 92 91 88 78 72
95 95 95 97 94 96 92 89 82 79 79 82 82 79 80 81 76 81 81 79 76 72 68 66 63 67 67 67 69 73 82 88 88 91 94 95 97 93 96 96 95 91 87 72
95 95 97 97 91 91 88 75 71 68 78 78 77 77 76 78 78 79 80 80 79 76 74 72 69 68 69 68 68 70 72 80 88 92 95 97 99 99 95 97 96 95 91 86
91 91 92 90 91 90 81 77 71 72 78 76 76 76 75 75 78 80 83 83 82 80 79 81 78 76 73 71 70 71 75 77 82 92 96 96 98 96 98 95 97 97 94 91
94 97 92 85 82 83 75 64 69 75 77 77 77 76 77 78 81 83 84 86 86 86 85 83 83 83 81 79 77 78 80 84 88 89 92 98 96 96 96 93 96 99 95 90
90 94 92 91 86 78 74 72 73 73 74 78 78 78 81 83 84 85 86 86 84 84 83 82 83 82 80 81 82 89 91 93 93 94 94 95 97 97 97 98 98 98 98 96
84 84 82 79 73 71 72 71 72 73 76 80 81 84 85 88 91 90 90 90 89 89 88 90 89 86 86 85 90 92 90 92 95 95 96 97 95 96 97 96 97 98 96 97
74 70 68 68 71 72 72 74 74 76 78 79 83 87 87 93 95 93 93 91 89 87 86 83 82 81 82 83 83 85 87 90 91 92 95 97 96 96 96 96 97 97 96 96
73 71 70 67 71 73 77 78 79 80 81 84 87 87 93 93 94 94 92 89 85 82 79 78 76 74 73 70 70 71 71 73 75 77 81 86 90 94 96 96 97 96 96 96

GFSCGP_prec_cthk_105.txt.gz
RH
25 22 21 19 20 23 25 27 25 21 18 21 23 22 18 13 12 11 13 15 13 13 11 11 14 19 25 29 34 36 35 30 32 34 39 28 27 28 34 49 64 56 48 44
28 28 22 22 23 26 27 29 28 22 21 24 22 21 17 16 19 14 12 15 16 16 14 13 16 18 24 28 31 33 34 29 29 30 34 25 23 27 31 45 62 54 53 49
34 29 26 25 25 27 28 30 29 29 21 20 25 22 17 17 16 18 13 17 22 25 20 18 22 23 27 27 28 29 29 26 28 29 30 27 28 33 38 52 58 47 46 51
26 24 21 20 20 20 18 20 22 23 29 33 30 41 29 21 18 20 21 29 37 33 27 25 29 26 29 29 29 30 31 29 32 30 28 25 27 29 33 46 45 53 51 53
25 21 19 19 17 17 16 16 23 27 34 38 31 43 26 29 29 29 39 45 43 39 35 34 37 38 36 38 37 36 36 32 31 29 25 28 30 30 35 38 44 42 45 50
22 23 22 23 24 27 28 31 28 28 35 56 30 49 31 44 49 49 57 57 55 53 49 48 50 54 48 46 44 41 43 35 34 29 29 26 28 33 34 40 37 36 42 41
28 24 24 26 30 28 32 48 58 60 48 48 37 47 39 63 73 73 69 68 63 62 62 71 71 71 64 57 51 48 43 37 34 32 25 24 26 32 37 39 39 44 41 38
46 37 35 38 36 41 42 55 63 58 62 58 62 73 89 94 97 85 91 84 72 67 80 92 86 86 81 63 49 44 39 40 38 33 33 28 31 38 41 52 45 42 35 36
51 49 43 38 41 50 49 53 49 68 68 78 60 50 74 97 93 91 91 83 83 79 91 95 97 95 78 67 59 46 48 42 38 37 37 34 33 39 48 57 58 39 39 37
57 58 39 37 47 47 54 61 84 92 91 87 61 79 95 96 95 96 92 96 95 94 90 98 96 98 89 79 71 57 51 53 44 41 44 48 47 56 68 59 54 48 48 41
51 57 49 49 50 55 80 89 88 85 82 86 76 92 98 98 97 97 97 97 98 97 96 99 98 89 86 85 80 76 69 60 56 54 50 54 63 74 68 66 61 62 56 51
58 72 74 60 58 57 58 71 98 93 90 78 84 98 98 98 96 97 93 88 92 96 97 98 89 86 83 80 84 88 82 71 66 64 61 61 77 77 78 76 77 72 64 57
71 86 84 70 88 78 92 98 98 96 92 84 93 98 97 97 95 95 95 90 85 90 88 83 81 82 80 79 78 82 86 86 87 84 78 69 73 76 83 86 82 67 61 64
73 86 86 80 72 80 94 94 91 94 98 96 97 97 95 96 92 85 81 87 84 75 75 75 73 76 75 82 85 89 90 91 90 96 95 93 98 93 95 90 78 69 75 78
88 96 96 91 88 91 97 98 95 98 97 93 97 96 96 92 86 78 83 77 81 70 68 66 67 75 76 80 83 82 86 89 89 87 81 90 90 93 93 87 75 77 81 78
97 94 97 93 90 97 97 95 88 96 98 97 95 94 91 87 89 77 74 76 73 66 65 65 62 68 72 77 80 78 81 83 88 92 96 98 95 85 82 84 85 86 82 81
97 98 98 96 88 86 86 96 96 95 94 90 88 89 85 82 79 80 78 76 72 71 67 62 59 64 64 70 78 77 80 82 81 97 97 99 85 83 83 88 93 91 87 79
96 98 98 98 97 91 96 96 94 94 93 87 83 82 81 81 80 80 80 78 77 75 71 67 64 64 67 66 69 75 77 87 83 87 85 83 86 87 86 89 91 90 92 89
99 98 98 97 93 95 94 88 91 90 89 89 85 82 82 83 83 82 84 83 80 79 78 74 69 65 64 67 66 67 72 77 84 86 88 87 91 86 87 90 91 90 90 94
94 98 98 94 90 94 90 81 76 85 83 79 77 76 75 77 78 82 82 83 82 80 78 76 74 72 68 67 69 67 68 70 74 79 84 85 88 90 88 89 91 92 92 93
95 96 94 90 88 91 84 78 77 80 80 75 75 74 74 75 79 81 83 84 84 83 79 78 76 74 73 70 69 67 67 65 70 74 79 83 87 90 92 93 93 98 96 98
92 95 88 80 80 80 78 78 71 76 78 77 77 76 77 78 79 81 83 84 85 86 85 83 81 79 78 75 74 73 70 72 72 74 77 79 84 89 92 91 92 96 95 98
88 89 86 85 84 84 75 74 75 75 75 77 78 79 80 80 81 82 83 86 86 84 80 80 78 77 76 73 74 74 74 75 77 78 79 83 85 86 87 96 97 97 98 96
87 87 83 82 72 70 70 71 73 73 74 78 78 81 83 86 87 92 92 89 86 81 78 77 75 73 73 73 70 69 71 74 76 79 84 87 88 90 90 89 91 93 95 97
83 82 81 73 67 68 70 72 75 77 78 79 82 83 85 87 92 92 89 85 81 79 75 72 69 66 64 62 59 58 58 60 61 62 66 71 79 84 87 90 93 95 96 96
79 78 72 66 64 69 72 75 76 77 78 80 84 88 86 89 91 88 81 76 72 68 64 55 48 42 38 35 33 32 32 33 34 35 37 40 44 49 60 72 83 89 94 95

GFSCGP_prec_cthk_108.txt.gz
RH
34 33 35 32 29 28 27 31 35 29 27 27 26 22 17 17 17 15 14 10 10 9 7 9 9 11 13 16 21 22 27 28 31 32 31 37 46 43 42 42 43 44 51 47
33 34 29 29 30 31 33 33 33 28 27 26 24 20 16 15 16 16 12 11 10 10 10 10 12 12 12 12 16 17 19 25 29 34 30 35 36 44 47 40 42 44 52 57
44 37 32 29 30 31 31 32 30 27 23 20 20 19 14 13 12 13 12 13 16 16 15 17 18 17 15 15 15 16 17 20 23 30 35 37 42 47 48 41 38 42 42 59
35 33 30 28 26 25 24 21 22 20 21 22 24 29 15 15 13 13 16 25 31 34 34 30 25 24 20 21 20 18 17 19 21 25 30 38 39 37 35 42 35 35 42 56
47 40 37 35 30 27 26 22 21 21 28 35 21 29 15 14 15 31 45 58 60 55 50 47 39 32 29 27 26 22 21 20 23 26 27 36 36 34 31 38 36 36 41 60
40 39 37 33 31 28 25 29 29 29 35 42 22 24 21 30 59 60 69 76 77 70 65 59 52 44 39 31 32 29 26 26 29 31 33 36 34 33 36 38 35 38 40 51
43 38 36 32 32 30 33 39 54 53 62 43 29 41 44 66 77 88 87 96 84 81 77 70 64 56 52 43 37 36 35 36 36 39 41 41 39 39 38 40 41 38 41 51
58 44 35 39 32 36 37 42 57 58 57 53 39 50 70 83 81 86 88 97 89 87 82 74 71 67 66 57 51 47 46 50 50 52 49 46 45 48 46 47 48 49 51 50
42 47 40 32 30 34 43 48 42 54 46 60 55 59 71 73 83 90 93 95 94 93 84 76 83 84 86 78 71 69 64 61 61 60 55 48 51 54 50 50 48 50 54 62
40 47 31 29 36 36 43 51 74 83 89 91 68 78 86 85 87 95 95 95 97 95 94 91 94 94 99 91 89 85 76 68 63 63 56 49 55 52 55 50 45 45 51 60
41 48 39 43 45 43 55 80 74 78 82 90 84 85 86 87 92 96 96 97 97 97 98 97 96 94 96 99 96 88 81 71 68 60 53 54 52 58 53 49 46 50 60 67
48 63 63 54 61 64 62 71 81 96 96 86 85 91 89 90 93 95 95 96 97 97 97 98 98 99 98 98 97 92 90 77 69 66 65 62 64 56 50 50 58 67 71 70
59 72 76 70 92 79 81 93 98 98 98 95 93 91 94 95 94 92 89 96 92 96 97 97 98 98 97 94 89 87 91 92 86 78 70 66 67 62 62 67 70 76 76 80
60 74 70 75 67 76 88 92 94 91 92 89 93 97 95 96 90 87 90 91 91 85 90 93 92 92 90 89 90 95 92 92 91 83 83 80 80 79 75 84 84 87 92 92
70 85 87 89 83 86 95 97 96 98 91 97 97 96 96 96 92 81 89 87 86 83 75 74 77 79 80 81 87 90 90 93 96 91 84 90 89 88 85 92 97 97 98 93
95 94 96 92 85 90 97 97 96 95 97 95 95 95 92 92 94 88 83 82 83 80 74 72 70 71 80 83 88 89 90 95 94 94 98 97 98 98 95 97 97 98 89 82
97 98 97 97 91 94 93 97 96 95 93 94 91 93 91 87 86 89 86 86 84 77 75 67 66 75 78 76 82 91 90 91 93 96 99 94 97 90 99 98 95 92 88 85
98 98 98 97 97 94 95 96 93 89 88 87 83 84 84 86 87 85 86 86 84 83 80 77 75 71 72 73 74 79 88 91 92 92 97 93 98 98 98 91 91 87 89 91
98 98 97 97 95 96 94 87 90 93 90 84 85 85 84 86 86 84 84 85 84 83 82 81 78 75 72 74 77 73 75 83 89 89 89 95 99 96 97 99 88 89 92 92
98 98 97 97 87 92 87 84 85 88 86 86 81 80 81 81 80 83 84 83 83 82 81 81 80 78 74 71 70 72 72 72 72 77 85 88 90 98 92 98 99 93 93 92
97 97 96 92 88 88 86 84 90 91 79 79 78 77 76 78 82 83 82 82 83 84 83 84 81 76 75 76 75 70 69 66 67 68 70 74 79 86 93 93 95 94 93 89
95 97 95 88 86 83 81 79 79 77 76 77 77 76 75 79 81 81 81 82 82 81 80 78 75 73 72 72 72 71 70 72 73 73 70 71 73 76 79 83 90 93 93 90
93 92 88 87 85 80 79 78 75 73 75 76 76 77 80 82 82 82 83 82 79 76 74 72 68 66 65 64 63 60 61 62 64 65 70 74 76 77 82 84 83 83 85 89
93 90 84 83 81 79 73 71 72 72 73 75 76 79 83 84 85 84 83 81 78 74 69 64 59 55 49 45 42 41 41 42 43 45 48 52 57 66 74 80 84 86 86 84
85 86 83 82 71 68 68 69 70 72 73 74 77 80 82 84 85 85 82 80 75 68 58 50 42 38 35 32 30 28 27 27 26 27 29 31 33 35 38 41 48 57 69 81
79 80 82 79 63 64 68 70 71 71 74 76 79 82 85 87 84 80 73 64 55 47 40 36 32 27 25 22 21 19 18 17 16 15 16 16 17 19 24 28 31 35 39 44

GFSCGP_prec_cthk_111.txt.gz
RH
34 34 33 29 30 31 32 32 33 33 30 31 27 21 20 20 18 18 14 13 12 11 12 11 11 10 10 10 11 12 20 23 23 24 25 27 29 35 46 48 48 50 49 53
36 36 33 30 29 31 32 33 34 31 30 27 22 18 17 18 19 16 14 14 13 12 15 15 12 10 9 10 11 11 10 15 20 21 24 23 26 28 36 47 48 49 47 51
36 36 37 36 35 35 36 36 33 28 26 23 22 20 18 18 18 17 22 28 30 32 33 30 23 20 17 15 14 13 12 11 15 18 22 25 28 33 31 38 49 47 46 47
40 40 39 38 36 36 37 31 28 28 27 26 26 27 21 20 22 33 35 36 36 35 38 43 39 31 28 24 20 19 18 16 15 17 19 25 24 30 32 30 36 45 46 48
41 39 41 46 51 45 39 35 34 38 41 38 32 38 18 17 28 39 42 42 44 48 52 47 48 47 43 37 29 24 22 22 18 20 21 23 25 23 30 31 35 45 45 46
46 48 47 43 42 44 46 49 47 42 44 42 27 29 19 40 48 51 54 54 49 54 60 64 61 60 59 57 48 39 31 28 23 22 22 24 24 27 30 31 35 41 43 47
53 47 44 43 43 45 47 51 51 46 49 34 32 33 31 49 55 58 57 57 60 59 67 72 74 72 67 63 59 54 43 30 28 25 23 25 31 35 32 34 36 39 43 44
50 47 53 50 48 47 47 44 39 42 40 36 33 28 43 54 57 62 68 73 72 72 70 76 86 78 77 76 76 66 54 40 32 31 26 34 39 40 40 45 44 44 43 48
48 51 45 41 41 42 46 40 35 43 39 45 32 43 59 60 73 79 85 84 81 78 79 84 90 83 87 87 85 77 63 53 47 40 38 38 40 46 46 50 52 50 52 53
51 54 41 32 36 35 36 49 62 58 71 68 52 53 66 78 83 84 86 86 87 89 92 92 92 86 87 92 91 88 75 66 57 51 53 52 57 58 57 58 54 54 58 57
51 50 37 39 40 40 49 53 56 57 64 81 80 82 83 85 87 87 87 87 92 95 96 96 97 97 97 98 97 97 90 81 76 68 66 65 68 65 64 62 62 63 57 55
42 49 53 49 59 63 55 59 83 88 84 92 93 85 95 92 94 91 91 94 96 96 96 97 97 97 98 98 98 99 95 92 89 86 79 75 79 72 67 66 72 74 62 58
50 56 62 69 89 74 77 78 85 96 92 85 93 94 95 96 95 95 95 94 96 96 97 97 97 97 97 97 97 97 93 91 93 87 79 75 77 76 75 72 77 77 69 68
49 61 62 53 55 67 80 83 85 92 91 79 95 96 94 96 94 92 96 93 96 90 93 96 98 99 97 93 89 99 95 92 94 94 93 86 84 81 79 78 79 77 70 74
60 73 74 74 75 80 89 89 92 93 89 92 94 95 96 96 96 90 90 92 91 88 88 88 87 87 87 87 89 93 92 91 96 88 94 93 96 92 92 89 80 72 70 76
81 88 93 81 72 80 88 94 96 96 96 95 96 95 94 91 92 94 89 95 88 93 81 80 79 81 84 87 85 90 88 92 95 98 92 93 98 98 97 95 94 90 92 97
98 96 91 82 88 87 95 96 96 96 96 96 94 93 90 88 89 89 90 89 91 88 80 82 73 75 81 78 81 86 90 94 92 93 99 95 95 99 97 97 99 99 98 96
97 95 88 91 95 95 96 96 93 93 94 93 87 85 85 87 89 87 89 87 85 85 82 81 79 76 76 75 76 79 85 91 98 93 97 98 96 99 97 98 98 96 97 98
98 96 93 93 93 95 96 95 94 94 92 87 85 84 84 87 87 85 88 87 85 86 85 83 81 79 75 73 77 78 79 82 88 93 98 98 98 98 97 97 98 98 98 98
98 98 94 89 92 91 90 91 90 94 91 89 85 82 83 84 80 83 85 86 86 84 84 83 81 79 74 74 73 71 73 73 76 77 84 88 92 94 97 98 98 98 99 97
95 95 95 94 90 87 81 82 94 95 86 82 80 80 80 79 79 82 83 84 82 80 79 76 72 70 69 68 68 67 69 68 70 72 74 72 74 78 78 87 95 94 97 98
96 96 94 94 90 86 85 85 91 82 79 78 77 78 79 80 81 81 81 78 75 72 69 65 61 57 54 51 50 51 52 55 56 59 62 65 67 70 72 72 74 77 82 86
95 96 95 95 88 87 84 86 81 76 75 76 76 77 79 80 81 81 79 74 71 65 59 53 46 41 37 35 33 31 32 32 33 33 35 38 42 45 49 55 63 71 73 74
95 93 88 90 89 83 82 75 74 73 75 75 75 77 79 81 81 78 76 73 65 57 49 42 36 32 29 27 25 24 24 23 21 21 21 23 24 26 28 31 35 38 43 49
89 90 86 86 83 81 75 73 72 73 76 75 76 78 80 81 79 79 75 66 55 47 39 33 29 26 24 21 18 17 15 13 12 12 12 12 12 13 15 18 21 24 28 30
83 86 86 82 70 70 70 72 73 74 77 77 78 80 81 79 75 71 60 50 43 36 32 28 24 19 16 14 13 11 11 10 9 9 9 10 10 10 10 11 12 12 12 13

GFSCGP_prec_cthk_114.txt.gz
RH
38 36 36 32 31 31 29 30 28 25 27 27 25 23 25 22 19 19 19 20 18 21 26 23 23 22 17 15 13 10 9 19 26 32 38 44 48 53 55 58 53 45 44 46
43 37 36 36 33 32 31 31 30 30 28 26 22 17 22 20 21 22 21 26 34 30 29 28 25 25 24 20 19 17 15 13 17 26 28 35 39 40 47 51 56 55 50 46
36 32 34 32 32 34 36 36 35 34 31 29 27 21 23 23 24 30 39 36 33 33 34 32 27 28 28 25 22 19 17 17 15 16 21 25 36 41 38 40 40 44 42 40
40 36 38 36 37 39 40 41 39 37 37 33 31 28 27 27 31 45 42 41 38 38 38 36 33 31 32 31 28 24 20 17 17 19 21 22 28 31 31 34 34 32 34 37
40 38 40 42 42 42 41 41 43 47 48 45 36 41 27 28 33 48 46 47 43 41 39 40 38 39 39 38 35 29 26 22 22 24 24 23 20 24 30 29 31 33 31 34
44 44 43 44 45 45 46 46 41 40 41 45 39 39 31 36 55 48 43 45 45 46 47 46 46 44 46 48 45 41 34 32 30 27 28 29 26 24 30 29 27 30 33 26
49 48 48 49 49 51 49 45 44 48 59 47 38 38 28 53 47 47 53 53 55 56 54 55 53 50 52 58 58 54 50 47 46 39 30 31 30 28 33 31 29 32 30 32
47 47 48 48 45 46 51 49 47 39 37 35 46 37 32 47 43 53 56 58 63 64 63 64 62 63 61 64 60 58 56 52 54 49 36 34 33 33 33 37 36 37 33 36
47 48 51 52 48 48 49 52 44 44 40 42 34 26 39 46 56 60 64 70 72 70 73 72 71 74 68 64 62 68 69 71 66 58 43 40 41 39 40 40 40 38 38 42
51 53 46 48 49 45 39 48 55 48 60 56 42 43 64 73 70 70 79 77 76 77 78 77 82 82 79 76 71 75 78 84 71 58 43 42 41 39 48 49 43 45 50 49
57 46 42 44 39 39 46 42 49 56 61 65 68 82 89 82 82 86 83 81 83 85 83 87 89 94 92 86 85 89 98 90 82 66 50 47 46 47 59 54 56 60 65 69
47 48 37 39 45 49 43 50 57 69 77 70 81 75 85 91 89 90 91 89 90 90 89 89 96 95 95 95 96 97 97 98 92 79 71 67 63 66 75 76 69 69 72 75
43 46 48 58 80 77 78 68 63 74 85 80 87 87 89 93 93 94 95 92 93 93 91 95 96 96 96 97 97 98 99 99 98 93 86 78 74 80 75 70 73 79 83 85
41 40 49 54 52 60 73 81 80 85 87 79 88 94 93 94 95 95 93 94 95 93 95 95 96 97 97 94 97 98 99 98 99 97 93 92 91 90 84 76 77 78 79 85
52 57 61 60 63 71 80 85 83 87 87 94 95 95 95 96 96 96 95 95 96 95 96 94 93 95 94 93 95 99 99 99 97 99 97 97 96 93 88 86 81 82 83 87
56 67 82 83 74 73 83 84 88 95 92 96 96 95 96 94 95 95 96 96 94 96 95 91 94 84 86 90 92 93 97 97 99 98 99 96 96 93 91 88 88 87 91 91
89 90 89 85 73 82 89 92 96 95 94 95 94 94 95 92 92 93 91 93 95 90 89 86 78 80 83 82 82 84 90 96 97 95 98 99 98 98 98 98 97 94 95 94
91 93 88 83 87 89 92 96 93 92 95 95 94 92 90 90 92 90 90 91 90 89 88 84 81 79 79 79 79 83 84 91 97 98 97 98 98 98 99 97 98 98 98 98
94 95 92 87 84 88 93 95 93 95 95 90 86 85 86 88 88 88 89 90 90 88 84 82 80 75 73 74 78 79 77 80 80 85 92 95 97 97 98 97 98 98 98 98
96 96 96 83 82 83 86 88 90 89 92 87 87 84 84 86 84 87 88 87 84 80 75 71 68 66 62 63 62 62 64 68 71 75 77 79 81 87 89 96 98 98 98 98
93 97 89 86 89 80 84 88 90 95 94 87 82 83 85 85 84 86 85 82 76 69 61 54 48 43 41 39 38 40 42 47 49 50 55 61 65 73 77 78 80 87 89 92
92 92 89 88 87 85 86 84 92 94 87 83 82 82 82 82 83 82 79 73 63 55 47 39 34 31 30 28 27 27 28 30 28 29 30 32 35 39 48 53 56 62 66 71
94 91 88 89 88 87 85 83 93 89 80 80 80 80 80 80 79 75 72 66 54 43 36 32 29 26 23 22 21 20 20 20 18 18 18 18 20 21 22 23 24 26 31 36
90 96 94 91 89 90 90 88 89 79 79 79 82 82 82 79 76 73 67 59 47 39 34 30 27 25 22 20 18 17 15 14 12 12 12 11 10 11 11 13 14 15 17 19
87 94 93 93 92 89 91 83 78 78 78 80 82 84 82 78 74 69 61 52 44 37 33 28 26 24 20 17 14 12 11 10 10 10 9 10 10 10 14 11 9 10 9 9
77 90 90 87 84 86 77 76 75 77 78 80 81 81 78 72 67 58 50 43 39 36 33 30 27 22 20 16 13 17 14 13 13 17 17 12 14 14 13 14 18 10 10 9

GFSCGP_prec_cthk_117.txt.gz
RH
31 33 34 33 33 31 32 36 32 28 27 27 27 29 27 26 23 21 22 23 26 30 36 37 33 29 27 25 21 19 22 20 19 24 27 38 56 64 64 61 64 66 58 57
39 38 42 36 34 37 39 35 32 28 27 28 30 25 23 26 27 25 25 26 34 39 37 38 37 33 33 32 28 25 20 18 20 21 24 27 34 50 54 63 60 69 72 65
45 46 39 36 39 40 35 35 35 34 33 31 29 26 30 29 28 29 37 41 43 43 42 39 38 34 34 35 35 31 29 23 20 20 20 21 22 30 43 44 53 55 62 64
40 41 42 44 41 42 38 37 35 36 37 38 39 39 33 38 35 40 50 53 47 48 46 45 42 39 37 37 37 38 35 33 27 23 22 23 24 24 28 38 40 48 52 55
36 34 36 38 38 40 40 41 41 40 41 42 30 43 30 36 37 49 52 51 51 45 46 42 43 45 41 38 38 39 38 36 34 29 25 23 23 24 24 32 44 35 40 49
38 46 41 40 41 41 41 42 43 47 51 52 39 45 31 46 55 65 60 54 47 41 42 43 46 45 44 46 44 38 39 40 38 35 31 27 26 25 23 25 37 45 41 42
46 46 46 45 48 46 46 50 53 55 53 48 43 43 39 53 54 52 44 37 40 48 50 51 50 48 47 47 45 41 41 42 45 43 38 33 28 26 27 24 26 51 45 38
56 60 53 46 45 43 45 53 57 56 51 44 36 40 51 60 56 50 44 53 57 55 55 56 56 57 56 55 52 50 47 47 49 48 45 42 35 30 26 25 23 32 67 36
52 50 46 47 46 46 44 48 50 54 52 53 42 35 53 60 55 55 61 63 67 64 67 65 64 64 65 65 62 58 55 53 53 51 50 50 48 44 38 28 29 34 54 40
57 56 49 47 50 51 45 46 56 56 62 57 42 43 69 78 78 69 70 70 76 78 79 75 74 76 79 78 79 72 64 62 59 60 67 65 59 54 41 31 37 38 43 59
48 56 55 51 50 44 39 44 40 43 60 63 69 88 94 86 84 83 84 84 87 86 84 82 85 88 89 88 92 87 80 70 69 74 78 64 52 51 40 32 42 48 53 60
58 61 56 46 41 43 36 45 51 61 56 70 65 69 78 84 85 88 93 94 89 90 89 91 93 92 94 95 94 89 90 88 86 88 81 64 49 40 43 52 64 65 73 78
56 49 46 43 42 54 67 57 49 63 79 78 90 82 85 87 88 92 95 95 94 94 95 95 97 96 96 97 94 94 94 97 93 97 83 78 61 53 52 57 68 78 78 93
46 43 45 56 74 66 76 67 67 64 71 70 74 97 95 94 94 94 96 96 96 96 97 97 97 97 96 96 96 97 98 98 98 98 92 86 80 73 66 69 80 89 83 74
37 49 48 42 60 58 61 69 75 84 81 89 83 91 93 95 95 96 97 97 96 97 97 96 96 94 94 96 97 97 97 97 98 98 99 96 94 89 84 91 84 84 81 79
48 55 66 65 60 62 68 70 75 81 85 89 94 95 96 95 96 96 96 96 96 97 97 96 94 88 91 90 87 88 97 97 98 98 98 99 98 97 94 93 94 85 84 83
54 69 81 82 73 75 80 77 80 91 89 95 94 94 95 95 95 96 96 96 97 97 97 92 87 85 86 84 84 84 90 95 98 98 97 97 99 98 99 96 97 95 93 91
81 93 89 85 81 83 85 84 91 95 93 92 92 95 94 94 97 97 97 97 96 94 89 85 77 75 78 79 82 83 84 87 90 94 95 94 95 98 98 98 98 98 98 99
87 93 95 90 82 82 84 88 92 94 93 93 92 90 90 91 91 94 95 93 90 83 78 71 66 61 54 55 58 63 66 71 74 77 81 87 92 96 96 97 98 98 98 98
90 94 95 88 82 82 83 83 87 88 95 89 86 86 85 86 90 91 90 85 78 66 59 50 42 37 34 34 34 32 35 36 42 46 50 60 67 73 80 86 95 97 98 98
95 99 91 86 87 89 80 82 86 95 94 89 87 85 85 87 89 87 83 75 67 53 42 38 34 29 27 25 24 22 22 26 28 24 24 25 30 40 45 51 54 58 63 67
79 90 92 83 90 91 83 83 87 92 89 87 85 86 85 84 84 80 74 66 56 47 38 31 28 26 25 22 20 18 17 20 18 18 17 16 17 16 18 25 26 30 32 33
79 83 93 86 90 89 88 87 82 87 89 83 81 79 79 79 77 72 65 56 49 40 36 30 24 23 21 19 18 18 18 17 15 14 13 13 13 12 12 12 14 17 18 19
72 81 85 86 85 88 88 85 79 89 86 80 78 76 77 75 72 67 59 49 43 39 35 32 29 24 21 20 18 16 14 14 12 12 14 15 12 14 11 10 9 9 10 12
73 79 86 89 89 89 88 88 84 91 78 78 76 75 76 75 71 62 50 42 38 36 33 31 29 28 25 20 19 14 14 14 19 19 19 21 21 20 22 20 17 14 12 10
67 77 88 96 85 88 93 91 88 82 78 77 76 76 74 73 65 52 39 35 34 32 30 27 27 26 22 21 20 19 17 20 20 23 22 20 23 22 22 22 23 23 20 16